[[{"header":{"parameterUnit":"m.s-1","parameterCategory":1,"la1":30.6,"la2":29.2853,"lo1":-89.7004,"lo2":-87.6739,"dy":0.0162,"dx":0.0183,"nx":112,"ny":82,"refTime":"2024-06-29T18:00:00:Z","depth":0,"parameterNumber":2,"parameterNumberName":"U-component_of_WINDS"},"data":[0.0,0.0,0.0,0.0,0.0,0.0,0.0,0.0,0.0,0.0,0.0,0.0,0.0,0.0,0.0,0.0,0.0,0.0,0.0,0.0,0.0,0.0,0.0,0.0,0.0,0.0,0.0,0.0,0.0,0.0,0.0,0.0,0.0,0.0,0.0,0.0,0.0,0.0,0.0,0.0,0.0,0.0,0.0,0.0,0.0,0.0,0.0,0.0,0.0,0.0,0.0,0.0,0.0,0.0,0.0,0.0,0.0,0.0,0.0,0.0,0.0,0.0,0.0,0.0,0.0,0.0,0.0,0.0,0.0,0.0,0.0,0.0,0.0,0.0,0.0,0.0,0.0,0.0,0.0,0.0,0.0,0.0,0.0,0.0,0.0,0.0,0.0,0.0,0.0,0.0,0.0,-3.0214,-3.375,-3.625,-3.6854,-3.5427,-3.2674,-2.8377,0.0,0.0,0.0,0.0,0.0,0.0,0.0,0.0,0.0,0.0,0.0,0.0,0.0,0.0,0.0,0.0,0.0,0.0,0.0,0.0,0.0,0.0,0.0,0.0,0.0,0.0,0.0,0.0,0.0,0.0,0.0,0.0,0.0,0.0,0.0,0.0,0.0,0.0,0.0,0.0,0.0,0.0,0.0,0.0,0.0,0.0,0.0,0.0,0.0,0.0,0.0,0.0,0.0,0.0,0.0,0.0,0.0,0.0,0.0,0.0,0.0,0.0,0.0,0.0,0.0,0.0,0.0,0.0,0.0,0.0,0.0,0.0,0.0,0.0,0.0,0.0,0.0,0.0,0.0,0.0,0.0,0.0,0.0,0.0,0.0,0.0,0.0,0.0,0.0,0.0,0.0,0.0,0.0,0.0,0.0,0.0,0.0,0.0,0.0,0.0,0.0,0.0,0.0,0.0,-2.8924,-3.3434,-3.5172,-3.5758,-3.5152,-3.4172,-3.177,-2.7478,0.0,0.0,0.0,0.0,0.0,0.0,0.0,0.0,0.0,0.0,0.0,0.0,0.0,0.0,0.0,0.0,0.0,0.0,0.0,0.0,0.0,0.0,0.0,0.0,0.0,0.0,0.0,0.0,0.0,0.0,0.0,0.0,0.0,0.0,0.0,0.0,0.0,0.0,0.0,0.0,0.0,0.0,0.0,0.0,0.0,0.0,0.0,0.0,0.0,0.0,0.0,0.0,0.0,0.0,0.0,0.0,0.0,0.0,0.0,0.0,0.0,0.0,0.0,0.0,0.0,0.0,0.0,0.0,0.0,0.0,0.0,0.0,0.0,0.0,0.0,0.0,0.0,0.0,0.0,0.0,0.0,0.0,0.0,0.0,0.0,0.0,0.0,0.0,0.0,0.0,0.0,0.0,0.0,0.0,0.0,0.0,0.0,0.0,0.0,0.0,0.0,0.0,0.0,-2.7924,-3.0034,-3.4253,-3.5483,-3.5658,-3.4777,-3.3896,-3.1572,-2.7279,-2.6107,0.0,0.0,0.0,0.0,0.0,0.0,0.0,0.0,0.0,0.0,0.0,0.0,0.0,0.0,0.0,0.0,0.0,0.0,0.0,0.0,0.0,0.0,0.0,0.0,0.0,0.0,0.0,0.0,0.0,0.0,0.0,0.0,0.0,0.0,0.0,0.0,0.0,0.0,0.0,0.0,0.0,0.0,0.0,0.0,0.0,0.0,0.0,0.0,0.0,0.0,0.0,0.0,0.0,0.0,0.0,0.0,0.0,0.0,0.0,0.0,0.0,0.0,0.0,0.0,0.0,0.0,0.0,0.0,0.0,0.0,0.0,0.0,0.0,0.0,0.0,0.0,0.0,0.0,0.0,0.0,0.0,0.0,0.0,0.0,0.0,0.0,0.0,0.0,0.0,0.0,0.0,0.0,0.0,0.0,0.0,0.0,0.0,0.0,0.0,0.0,0.0,0.0,-2.9873,-3.1572,-3.4406,-3.5305,-3.5342,-3.4479,-3.3229,-3.0847,-2.6941,-2.4873,0.0,0.0,0.0,0.0,0.0,0.0,0.0,0.0,0.0,0.0,0.0,0.0,0.0,0.0,0.0,0.0,0.0,0.0,0.0,0.0,0.0,0.0,0.0,0.0,0.0,0.0,0.0,0.0,0.0,0.0,0.0,0.0,0.0,0.0,0.0,0.0,0.0,0.0,0.0,0.0,0.0,0.0,0.0,0.0,0.0,0.0,0.0,0.0,0.0,0.0,0.0,0.0,0.0,0.0,0.0,0.0,0.0,0.0,0.0,0.0,0.0,0.0,0.0,0.0,0.0,0.0,0.0,0.0,0.0,0.0,0.0,0.0,0.0,0.0,0.0,0.0,0.0,0.0,0.0,0.0,0.0,0.0,0.0,0.0,0.0,0.0,0.0,0.0,0.0,0.0,0.0,0.0,0.0,0.0,0.0,0.0,0.0,0.0,0.0,0.0,0.0,0.0,-3.0667,-3.3534,-3.459,-3.4746,-3.4433,-3.3573,-3.1252,-2.8697,-2.5967,-2.3448,0.0,0.0,0.0,0.0,0.0,0.0,0.0,0.0,0.0,0.0,0.0,0.0,0.0,0.0,0.0,0.0,0.0,0.0,0.0,0.0,0.0,0.0,0.0,0.0,0.0,0.0,0.0,0.0,0.0,0.0,0.0,0.0,0.0,0.0,0.0,0.0,0.0,0.0,0.0,0.0,0.0,0.0,0.0,0.0,0.0,0.0,0.0,0.0,0.0,0.0,0.0,0.0,0.0,0.0,0.0,0.0,0.0,0.0,0.0,0.0,0.0,0.0,0.0,0.0,0.0,0.0,0.0,0.0,0.0,0.0,0.0,0.0,0.0,0.0,0.0,0.0,0.0,0.0,0.0,0.0,0.0,0.0,0.0,0.0,0.0,0.0,0.0,0.0,0.0,0.0,0.0,0.0,0.0,0.0,0.0,0.0,0.0,0.0,0.0,0.0,0.0,0.0,-2.9026,-3.1563,0.0,-3.3554,-3.3534,-3.2656,-3.1211,-2.9026,-2.5904,0.0,0.0,0.0,0.0,0.0,0.0,0.0,0.0,0.0,0.0,0.0,0.0,0.0,0.0,0.0,0.0,0.0,0.0,0.0,0.0,0.0,0.0,0.0,0.0,0.0,0.0,0.0,0.0,0.0,0.0,0.0,0.0,0.0,0.0,0.0,0.0,0.0,0.0,0.0,0.0,0.0,0.0,0.0,0.0,0.0,0.0,0.0,0.0,0.0,0.0,0.0,0.0,0.0,0.0,0.0,0.0,0.0,0.0,0.0,0.0,0.0,0.0,0.0,0.0,0.0,0.0,0.0,0.0,0.0,0.0,0.0,0.0,0.0,0.0,0.0,0.0,0.0,0.0,0.0,0.0,0.0,0.0,0.0,0.0,0.0,0.0,0.0,0.0,0.0,0.0,0.0,0.0,0.0,0.0,0.0,0.0,0.0,0.0,0.0,0.0,0.0,0.0,-2.5432,-2.8433,-3.0812,0.0,-3.2636,-3.2753,-3.215,-3.0567,-2.8362,-2.5472,0.0,0.0,0.0,0.0,0.0,0.0,0.0,0.0,0.0,0.0,0.0,0.0,0.0,0.0,0.0,0.0,0.0,0.0,0.0,0.0,0.0,0.0,0.0,0.0,0.0,0.0,0.0,0.0,0.0,0.0,0.0,0.0,0.0,0.0,0.0,0.0,0.0,0.0,0.0,0.0,0.0,0.0,0.0,0.0,0.0,0.0,0.0,0.0,0.0,0.0,0.0,0.0,0.0,0.0,0.0,0.0,0.0,0.0,0.0,0.0,0.0,0.0,0.0,0.0,0.0,0.0,0.0,0.0,0.0,0.0,0.0,0.0,0.0,0.0,0.0,0.0,0.0,0.0,0.0,0.0,0.0,0.0,0.0,0.0,0.0,0.0,0.0,0.0,0.0,0.0,0.0,0.0,0.0,0.0,0.0,0.0,0.0,0.0,0.0,0.0,0.0,0.0,-2.5586,-2.9386,-3.2013,-3.2087,-3.207,-3.207,-3.2071,-2.8968,-2.6254,0.0,0.0,0.0,0.0,0.0,0.0,0.0,0.0,0.0,0.0,0.0,0.0,0.0,0.0,0.0,0.0,0.0,0.0,0.0,0.0,0.0,0.0,0.0,0.0,0.0,0.0,0.0,0.0,0.0,0.0,0.0,0.0,0.0,0.0,0.0,0.0,0.0,0.0,0.0,0.0,0.0,0.0,0.0,0.0,0.0,0.0,0.0,0.0,0.0,0.0,0.0,0.0,0.0,0.0,0.0,0.0,0.0,0.0,0.0,0.0,0.0,0.0,0.0,0.0,0.0,0.0,0.0,0.0,0.0,0.0,0.0,0.0,0.0,0.0,0.0,0.0,0.0,0.0,0.0,0.0,0.0,0.0,0.0,0.0,0.0,0.0,0.0,0.0,0.0,0.0,0.0,0.0,0.0,0.0,0.0,0.0,0.0,0.0,0.0,0.0,0.0,0.0,0.0,-2.5449,-2.8787,-3.1042,-3.1116,-3.0611,-3.0524,-3.1131,-2.8616,-2.6254,-2.4514,0.0,0.0,0.0,0.0,0.0,0.0,0.0,0.0,0.0,0.0,0.0,0.0,0.0,0.0,0.0,0.0,0.0,0.0,0.0,0.0,0.0,0.0,0.0,0.0,0.0,0.0,0.0,0.0,0.0,0.0,0.0,0.0,0.0,0.0,0.0,0.0,0.0,0.0,0.0,0.0,0.0,0.0,0.0,0.0,0.0,0.0,0.0,0.0,0.0,0.0,0.0,0.0,0.0,0.0,0.0,0.0,0.0,0.0,0.0,0.0,0.0,0.0,0.0,0.0,0.0,0.0,0.0,0.0,0.0,0.0,0.0,0.0,0.0,0.0,0.0,0.0,0.0,0.0,0.0,0.0,0.0,0.0,0.0,0.0,0.0,0.0,0.0,0.0,0.0,0.0,0.0,0.0,0.0,0.0,0.0,0.0,0.0,0.0,0.0,0.0,0.0,0.0,-2.5366,-2.8499,-3.0598,-3.065,-2.9932,-2.9801,-3.0684,-2.8455,-2.6254,-2.4514,0.0,0.0,0.0,0.0,0.0,0.0,0.0,0.0,0.0,0.0,0.0,0.0,0.0,0.0,0.0,0.0,0.0,0.0,0.0,0.0,0.0,0.0,0.0,0.0,0.0,0.0,0.0,0.0,0.0,0.0,0.0,0.0,0.0,0.0,0.0,0.0,0.0,0.0,0.0,0.0,0.0,0.0,0.0,0.0,0.0,0.0,0.0,0.0,0.0,0.0,0.0,0.0,0.0,0.0,0.0,0.0,0.0,0.0,0.0,0.0,0.0,0.0,0.0,0.0,0.0,0.0,0.0,0.0,0.0,0.0,0.0,0.0,0.0,0.0,0.0,0.0,0.0,0.0,0.0,0.0,0.0,0.0,0.0,0.0,0.0,0.0,0.0,0.0,0.0,0.0,0.0,0.0,0.0,0.0,0.0,0.0,0.0,0.0,0.0,0.0,0.0,0.0,-2.5357,-2.8466,-3.0524,-3.0575,-2.9802,-2.9659,-3.0604,-2.8416,-2.6266,-2.4605,0.0,0.0,0.0,0.0,0.0,0.0,0.0,0.0,0.0,0.0,0.0,0.0,0.0,0.0,0.0,0.0,0.0,0.0,0.0,0.0,0.0,0.0,0.0,0.0,0.0,0.0,0.0,0.0,0.0,0.0,0.0,0.0,0.0,0.0,0.0,0.0,0.0,0.0,0.0,0.0,0.0,0.0,0.0,0.0,0.0,0.0,0.0,0.0,0.0,0.0,0.0,0.0,0.0,0.0,0.0,0.0,0.0,0.0,0.0,0.0,-2.712,0.0,0.0,0.0,0.0,0.0,0.0,0.0,0.0,0.0,0.0,0.0,0.0,0.0,0.0,0.0,0.0,0.0,0.0,0.0,0.0,0.0,0.0,0.0,0.0,0.0,0.0,0.0,0.0,0.0,0.0,0.0,0.0,0.0,0.0,0.0,0.0,0.0,0.0,0.0,0.0,0.0,-2.5295,-2.8385,-3.0449,-3.05,-2.919,-2.8939,-3.0497,-2.8293,-2.6387,-2.5329,0.0,0.0,0.0,0.0,0.0,0.0,0.0,0.0,0.0,0.0,0.0,0.0,0.0,0.0,0.0,0.0,0.0,0.0,0.0,0.0,0.0,0.0,0.0,0.0,0.0,0.0,0.0,0.0,0.0,0.0,0.0,0.0,0.0,0.0,0.0,0.0,0.0,0.0,0.0,0.0,0.0,0.0,0.0,0.0,0.0,0.0,0.0,0.0,0.0,0.0,0.0,0.0,0.0,0.0,0.0,0.0,0.0,0.0,0.0,0.0,0.0,-2.8799,0.0,0.0,0.0,0.0,0.0,0.0,0.0,0.0,0.0,0.0,0.0,0.0,0.0,0.0,0.0,0.0,0.0,0.0,0.0,0.0,0.0,0.0,0.0,0.0,0.0,0.0,0.0,0.0,0.0,0.0,0.0,0.0,0.0,0.0,0.0,0.0,0.0,0.0,0.0,0.0,-2.5844,-2.8618,-3.0408,-3.0455,-2.9323,-2.9102,-3.0435,-2.862,-2.6871,-2.5589,-2.3856,0.0,0.0,0.0,0.0,0.0,0.0,0.0,0.0,0.0,0.0,0.0,0.0,0.0,0.0,0.0,0.0,0.0,0.0,0.0,0.0,0.0,0.0,0.0,0.0,0.0,0.0,0.0,0.0,0.0,0.0,0.0,0.0,0.0,0.0,0.0,0.0,0.0,0.0,0.0,0.0,0.0,0.0,0.0,0.0,0.0,0.0,0.0,0.0,0.0,0.0,0.0,0.0,0.0,0.0,0.0,-3.5409,-3.5446,-3.5803,-3.622,-3.3401,-3.2775,-3.3497,0.0,0.0,0.0,0.0,0.0,0.0,0.0,0.0,0.0,0.0,0.0,0.0,0.0,0.0,0.0,0.0,0.0,0.0,0.0,0.0,0.0,0.0,0.0,0.0,0.0,-2.9833,-2.9596,0.0,0.0,0.0,0.0,0.0,0.0,0.0,0.0,0.0,0.0,0.0,0.0,-2.6498,-2.8876,-3.0404,-3.0404,-2.9678,-2.954,-3.0414,-2.9124,-2.7535,-2.5796,-2.4878,-2.2939,0.0,0.0,0.0,0.0,0.0,0.0,0.0,0.0,0.0,0.0,0.0,0.0,0.0,0.0,0.0,0.0,0.0,0.0,0.0,0.0,0.0,0.0,0.0,0.0,0.0,0.0,0.0,0.0,0.0,0.0,0.0,0.0,-2.4842,-2.5062,0.0,0.0,0.0,0.0,0.0,0.0,0.0,0.0,0.0,0.0,0.0,0.0,0.0,0.0,-3.5214,-3.6472,-3.7166,-3.7221,-3.7813,-3.811,-3.8181,-3.8409,-3.8456,-3.8324,-3.8093,0.0,-3.4393,-3.2383,0.0,0.0,0.0,0.0,0.0,0.0,0.0,0.0,0.0,0.0,0.0,0.0,0.0,0.0,0.0,0.0,0.0,0.0,0.0,0.0,0.0,0.0,-3.1506,-3.2102,-3.241,-3.1987,0.0,-2.6524,-2.3841,-2.349,0.0,0.0,0.0,0.0,0.0,0.0,0.0,0.0,-2.6575,-2.8876,-3.0404,-3.0404,-2.9632,-2.947,-3.0331,-2.952,-2.824,-2.6564,-2.5693,-2.4042,-2.139,-1.904,0.0,0.0,0.0,0.0,0.0,0.0,0.0,0.0,0.0,0.0,0.0,0.0,0.0,0.0,0.0,0.0,0.0,0.0,0.0,0.0,0.0,0.0,0.0,0.0,0.0,0.0,0.0,0.0,0.0,-2.4705,-2.6927,-2.7419,-2.8243,-2.8287,0.0,0.0,0.0,0.0,0.0,0.0,0.0,0.0,0.0,-3.5733,-3.6998,-3.8013,-3.8781,-3.9441,-3.9767,-3.976,-4.0059,-4.0201,-4.017,-4.0281,-4.0041,-3.9485,-3.9608,-3.8674,-3.6907,-3.4792,-3.3223,-3.1858,0.0,0.0,0.0,0.0,0.0,0.0,-3.0285,0.0,0.0,0.0,0.0,0.0,0.0,0.0,0.0,0.0,0.0,0.0,0.0,0.0,0.0,-3.3545,-3.3622,-3.343,-3.2699,-3.0333,-2.7794,0.0,-2.5005,-2.4062,-2.2504,0.0,0.0,0.0,0.0,0.0,-2.7942,-2.9426,-3.0404,-3.0404,-3.0058,-2.9987,-3.0365,-3.0038,-2.8698,-2.6038,-2.5996,-2.4705,-2.1675,-2.0514,-1.9302,0.0,0.0,0.0,0.0,0.0,0.0,0.0,0.0,0.0,0.0,0.0,0.0,0.0,0.0,0.0,0.0,0.0,0.0,0.0,0.0,0.0,0.0,0.0,0.0,0.0,0.0,0.0,0.0,-2.6387,-2.8801,-2.9888,-3.1213,-3.1483,0.0,0.0,0.0,0.0,0.0,0.0,-3.4543,-3.5969,-3.7339,-3.8631,-4.0067,-4.1058,-4.1549,-4.1565,-4.1596,-4.1628,-4.144,-4.1329,-4.1332,-4.1403,-4.107,-4.0421,-4.0289,-3.9845,-3.905,-3.6832,-3.5676,-3.5032,-3.2288,-3.166,0.0,-3.1436,-3.172,-3.2697,-3.3926,-3.4184,-3.3859,-3.3008,0.0,-3.0509,-2.8439,0.0,0.0,0.0,0.0,-3.0416,-3.1948,0.0,-3.4263,-3.4468,-3.4526,-3.4468,-3.4244,-3.3218,-3.1468,0.0,-2.8063,-2.7395,-2.4856,0.0,0.0,0.0,0.0,-2.8415,-2.9011,-2.9871,-3.0404,-3.0404,-3.0404,-3.0404,-3.0404,-3.0192,-2.8692,-2.55,-2.5717,-2.4716,-2.1947,-2.1679,-2.0962,-1.9663,0.0,0.0,0.0,0.0,0.0,0.0,0.0,0.0,0.0,0.0,0.0,0.0,0.0,0.0,0.0,0.0,0.0,0.0,0.0,0.0,0.0,0.0,0.0,0.0,0.0,0.0,0.0,0.0,0.0,-3.2317,-3.3204,0.0,0.0,0.0,0.0,-3.3508,-3.5174,-3.6812,-3.8334,-3.9349,-4.0225,-4.0999,-4.1978,-4.249,-4.2527,-4.2591,-4.2591,-4.2527,-4.1813,-4.1462,-4.1397,-4.1665,-4.1618,-4.1305,-4.0803,-4.0398,-3.9997,-3.8293,-3.7353,-3.6892,-3.5943,-3.5372,-3.5071,-3.4824,-3.522,-3.5846,-3.5819,-3.5254,-3.4695,-3.5514,-3.4158,-3.206,-3.1297,-3.107,0.0,0.0,-3.2083,-3.291,-3.384,-3.4148,-3.4417,-3.5231,-3.5423,-3.5212,-3.4379,-3.4129,-3.3551,0.0,-3.014,-2.8992,-2.8819,0.0,0.0,-2.7703,-2.8472,-2.905,-2.9088,-2.9871,-3.0404,-3.0404,-3.0404,-3.0404,-3.0404,-2.964,-2.8063,-2.5462,-2.4625,-2.3778,-2.2778,-2.1951,-2.147,-2.137,-1.8988,0.0,0.0,0.0,0.0,0.0,0.0,0.0,0.0,0.0,0.0,0.0,0.0,0.0,0.0,0.0,0.0,0.0,0.0,0.0,0.0,0.0,0.0,0.0,0.0,0.0,0.0,0.0,0.0,-3.4107,-3.539,0.0,0.0,-3.6311,-3.6908,-3.7735,-3.885,-3.9703,-4.023,-4.105,-4.1652,-4.1914,-4.2719,-4.3194,-4.3194,-4.3192,-4.3192,-4.3194,-4.2916,-4.2769,-4.2735,-4.2846,-4.2553,-4.1963,-4.1775,-4.1335,-4.0728,-4.0126,-3.9297,-3.8301,-3.7409,-3.7181,-3.727,-3.6503,-3.6462,-3.6814,-3.6812,-3.6475,-3.6069,-3.6023,-3.5056,-3.3762,-3.2956,-3.2374,-3.2104,-3.2741,-3.3215,-3.3745,-3.4626,-3.493,-3.5115,-3.5423,-3.55,-3.5404,-3.5096,-3.5045,-3.4699,-3.3526,-3.1929,-3.0602,-3.0025,-2.9698,-2.9313,-2.8761,-2.939,-2.9948,-2.9948,-3.0212,-3.0404,-3.0404,-3.0404,-3.0404,-3.0404,-2.9121,-2.7698,-2.6231,-2.4856,-2.3706,-2.2836,-2.2509,-2.2062,-2.1504,-2.0112,-1.8409,0.0,0.0,0.0,0.0,0.0,0.0,0.0,0.0,0.0,0.0,0.0,0.0,0.0,0.0,0.0,0.0,0.0,0.0,0.0,0.0,0.0,0.0,0.0,0.0,0.0,0.0,-3.4642,-3.58,-3.7338,-3.833,-3.8416,-3.9142,-3.9921,-4.0762,-4.1282,-4.1656,-4.1901,-4.2431,-4.2852,-4.3128,-4.3712,-4.4152,-4.4411,-4.4152,-4.4005,-4.4005,-4.3729,-4.36,-4.36,-4.36,-4.3307,-4.2792,-4.2498,-4.2057,-4.156,-4.1268,-4.0637,-3.9758,-3.8933,-3.8725,-3.8784,-3.8015,-3.7809,-3.7859,-3.7549,-3.7384,-3.7186,-3.6449,-3.5844,-3.5321,-3.4833,-3.4317,-3.4026,-3.4661,-3.48,-3.4877,-3.5441,-3.555,-3.55,-3.55,-3.55,-3.55,-3.55,-3.55,-3.5327,-3.4757,-3.3506,-3.2179,-3.1038,-3.0846,-3.0538,-2.9679,-3.0019,-3.0404,-3.0404,-3.0404,-3.0404,-3.0404,-3.0404,-3.0288,-2.9981,-2.8429,-2.6967,-2.5832,-2.4432,-2.3394,-2.2816,-2.2797,-2.2528,-2.1947,-2.0273,-1.885,-1.7699,0.0,0.0,0.0,0.0,0.0,0.0,0.0,0.0,0.0,0.0,0.0,0.0,0.0,0.0,0.0,0.0,0.0,0.0,0.0,0.0,0.0,0.0,0.0,-3.1673,-3.3645,-3.5748,-3.7485,-3.9026,-3.9997,-4.0169,-4.0767,-4.1493,-4.2382,-4.2373,-4.269,-4.3496,-4.3584,-4.4003,-4.4813,-4.4972,-4.5412,-4.6188,-4.5412,-4.5041,-4.5006,-4.4212,-4.3824,-4.3824,-4.3822,-4.3804,-4.3751,-4.2901,-4.2516,-4.2461,-4.1686,-4.1354,-4.1258,-4.0628,-4.0085,-3.9613,-3.9458,-3.935,-3.9147,-3.81,-3.7904,-3.7965,-3.7,-3.6673,-3.6703,-3.6962,-3.7019,-3.7047,-3.7238,-3.6882,-3.64,-3.6381,-3.5948,-3.5505,-3.5493,-3.5493,-3.5493,-3.55,-3.55,-3.55,-3.55,-3.4814,-3.3725,-3.2064,-3.1737,-3.141,-3.0577,-3.0423,0.0,-3.0404,-3.0404,-3.0404,-3.0404,-3.0404,-3.0058,-2.9204,-2.7582,-2.5909,-2.4283,-2.3336,-2.2816,-2.2759,-2.2797,-2.2797,-2.2759,-1.9508,-1.7815,-1.7776,0.0,0.0,0.0,0.0,0.0,0.0,0.0,0.0,0.0,0.0,0.0,0.0,0.0,0.0,0.0,0.0,0.0,0.0,0.0,0.0,0.0,0.0,-3.569,-3.5195,-3.6595,-3.8095,-3.9197,-4.0231,-4.1096,-4.1714,-4.2023,-4.247,-4.3145,-4.3235,-4.3584,-4.4323,-4.4396,-4.4781,-4.5571,-4.5733,-4.5862,-4.5974,-4.5862,-4.5751,-4.5625,-4.4886,-4.4533,-4.4515,-4.4029,-4.3754,-4.3632,-4.3393,-4.3267,-4.3198,-4.2978,-4.2555,-4.191,-4.0619,-4.0164,-4.0173,-3.9496,-3.9298,-3.9305,-3.8818,-3.873,-3.8784,-3.8493,-3.8162,-3.7847,-3.7932,-3.7505,-3.7009,-3.7077,-3.6952,-3.6702,-3.6128,-3.594,-3.5823,-3.5395,-3.5273,-3.5324,-3.5479,-3.55,-3.55,-3.55,-3.5308,-3.4795,-3.3699,-3.2506,-3.1621,-3.1385,0.0,0.0,-3.0404,-3.0404,-3.0404,-3.0404,-3.0404,-3.0308,-3.0058,-2.7928,-2.6409,0.0,-2.4548,-2.3182,-2.1908,-2.2466,-2.2509,-2.187,-2.0927,-2.0177,0.0,0.0,0.0,0.0,0.0,0.0,0.0,0.0,0.0,0.0,0.0,0.0,0.0,0.0,0.0,0.0,0.0,0.0,0.0,0.0,0.0,0.0,-3.6132,-3.8181,-3.8471,-3.9215,-4.0055,-4.0861,-4.1409,-4.2014,-4.2824,-4.2951,-4.3266,-4.3989,-4.4062,-4.4377,-4.5168,-4.5204,-4.5571,-4.6379,-4.6489,-4.6636,-4.6893,-4.6654,-4.6489,-4.6397,-4.5295,-4.4761,-4.4724,-4.4021,-4.3617,0.0,-4.3548,-4.3549,-4.3515,-4.3515,-4.3222,0.0,0.0,0.0,0.0,0.0,-3.9237,-3.935,-3.9087,-3.9073,-3.9183,-3.9087,-3.8853,-3.8607,-3.8627,-3.8271,-3.7885,-3.8025,-3.7863,-3.7555,-3.7095,-3.6652,-3.623,-3.57,-3.545,-3.5339,-3.5361,-3.5439,-3.55,-3.55,0.0,0.0,-3.4834,-3.3622,-3.2506,-3.1814,-3.1269,-3.0808,0.0,-3.0404,-3.0404,-3.0404,-3.0404,-3.025,-2.989,-2.8198,0.0,0.0,0.0,-2.3832,-2.212,0.0,0.0,0.0,0.0,0.0,0.0,0.0,0.0,0.0,-2.0408,-2.0447,0.0,0.0,0.0,0.0,0.0,0.0,0.0,0.0,0.0,0.0,0.0,0.0,0.0,0.0,0.0,0.0,-3.8165,-3.9815,-4.1237,-4.147,-4.1703,-4.2264,-4.2459,-4.2877,-4.3654,-4.3768,-4.4155,-4.4998,-4.5001,-4.5333,-4.6122,0.0,0.0,0.0,0.0,-4.759,-4.8306,-4.7609,-4.726,-4.7223,-4.5718,-4.4984,-4.4966,-4.4175,-4.3752,-4.3643,-4.3643,-4.3588,-4.3515,-4.3515,-4.3496,-4.344,-4.2682,-4.1427,-3.9915,-3.9327,-3.9217,0.0,0.0,0.0,0.0,-3.9078,-3.9036,-3.9078,-3.9129,-3.9156,-3.9192,-3.9421,-3.9089,-3.8631,-3.8464,-3.7584,-3.6599,-3.6093,-3.5683,-3.5376,-3.519,-3.5316,-3.5439,-3.5453,-3.5472,-3.546,-3.55,-3.4776,-3.3667,-3.2064,-3.1756,0.0,-3.0519,-3.0404,-3.0404,-3.0404,0.0,0.0,-2.9319,-2.8511,-2.7332,-2.5692,-2.5404,-2.4673,-2.3297,-2.2389,-2.1596,-2.0885,-2.0865,-2.1212,-2.1927,-2.1927,-2.2331,-2.3047,-2.1459,-2.1612,0.0,0.0,0.0,0.0,0.0,0.0,0.0,0.0,0.0,0.0,0.0,0.0,0.0,0.0,0.0,-3.8106,-4.0369,-4.196,-4.2173,-4.2816,-4.3107,-4.259,-4.3125,-4.3793,-4.4499,-4.5181,-4.5882,-4.6599,-4.6654,-4.6984,-4.7792,-4.7204,0.0,-4.8049,-4.818,-4.8254,-4.8306,-4.8254,-4.818,-4.8067,0.0,0.0,-4.6783,-4.6026,-4.527,-4.4557,-4.4557,-4.4154,-4.3515,-4.3515,-4.3531,-4.3508,-4.2699,-4.1427,-3.9989,-3.9929,-3.9534,-3.9064,-3.9007,-3.9045,-3.9142,-3.9087,-3.9237,-3.9414,-3.9427,-3.9408,0.0,-3.9489,-3.9245,-3.8743,-3.7606,-3.7118,-3.665,-3.5428,-3.5078,-3.501,-3.4973,-3.4992,-3.5063,-3.5226,-3.5258,-3.5316,-3.546,-3.4776,-3.3859,-3.2814,-3.2122,-3.1391,-3.0519,-3.0404,-3.0404,-3.0404,-3.0404,-3.0327,-3.0154,-2.9352,-2.8453,-2.7467,-2.6077,-2.5462,-2.5851,-2.5038,-2.45,-2.4346,-2.4327,-2.4404,-2.4577,-2.4577,-2.4654,-2.4788,-2.3811,-2.3893,0.0,0.0,0.0,0.0,0.0,0.0,0.0,0.0,0.0,0.0,0.0,-3.3386,-3.5422,0.0,-3.8851,-4.0495,-4.1819,-4.2762,-4.3053,-4.3543,-4.3654,-4.3115,-4.3428,-4.3982,-4.4687,-4.5147,-4.5883,-4.7003,-4.7094,-4.7443,-4.8269,-4.7921,-4.7865,-4.8306,-4.8363,-4.8363,-4.8306,-4.8363,-4.8363,-4.8306,-4.7554,-4.7206,-4.7169,-4.6396,-4.5569,-4.4743,-4.4743,-4.4267,-4.3515,-4.3515,-4.3513,-4.3511,-4.3125,-4.2239,-4.1141,-4.0363,-3.9837,-3.949,-3.9083,-3.8993,-3.9064,-3.9064,-3.917,-3.9298,-3.9298,-3.9298,-3.9337,-3.9458,-3.9395,-3.9137,-3.8433,-3.7804,-3.7112,-3.6176,-3.5486,-3.5028,-3.4908,-3.4908,-3.4936,-3.5037,-3.5054,-3.5081,-3.5174,-3.4917,-3.4283,-3.3071,-3.2564,-3.1833,-3.0558,-3.0404,-3.0404,-3.0404,-3.0404,-3.0404,-3.0404,-2.9602,-2.8934,-2.853,-2.6486,-2.5692,-2.6563,-2.539,-2.4697,-2.4697,-2.4697,-2.4697,-2.4697,-2.4697,-2.5139,-2.5942,-2.5543,-2.5793,0.0,0.0,0.0,0.0,0.0,0.0,0.0,0.0,-3.147,-3.3902,-3.5504,-3.6874,-3.8172,-3.9653,-4.1122,-4.2411,-4.2791,-4.314,-4.3728,-4.3818,-4.3767,-4.3532,-4.3548,-4.3951,-4.4856,-4.5058,-4.5902,-4.7681,-4.781,-4.8158,-4.8985,-4.8875,-4.8802,-4.8802,-4.8802,-4.871,-4.8545,-4.8545,-4.8471,-4.8306,-4.7626,-4.7333,-4.7314,-4.6673,-4.5847,-4.4929,-4.4599,-4.4103,-4.3515,-4.3515,-4.3515,-4.3532,-4.3515,-4.3177,-4.2537,-4.102,-4.028,-3.9988,-3.9342,-3.9054,-3.8979,-3.9011,-3.9036,-3.9073,-3.9101,-3.9101,-3.9156,-3.9363,-3.9408,-3.9402,-3.9283,-3.8404,-3.7423,-3.6885,-3.59,-3.5009,-3.4812,-3.4772,-3.4782,-3.4821,-3.485,-3.4841,-3.4879,-3.5037,-3.4674,-3.3306,-3.2987,-3.2352,-3.0846,-3.05,-3.0404,-3.0404,-3.0404,-3.0404,-3.0404,-2.9756,-2.9357,-2.9357,-2.7423,-2.6615,-2.7308,-2.5875,-2.4995,-2.4841,-2.4841,-2.474,-2.4586,-2.4764,-2.5606,-2.7082,-2.7082,-2.7467,-2.6175,-2.6741,-2.764,-2.9381,-3.0316,-3.2003,0.0,0.0,-3.7437,-3.9926,-4.0587,-4.0772,-4.0957,-4.1773,-4.2468,-4.2671,-4.3286,-4.3772,-4.3786,-4.3701,-4.3599,-4.3515,-4.3548,-4.4172,-4.5608,-4.6416,-4.781,-5.0215,-5.0398,-5.0747,-5.1536,-5.0912,-5.0527,-5.0527,-5.0527,-5.0178,-4.9463,-4.9463,-4.9058,-4.8306,-4.8214,-4.8177,-4.8159,-4.8086,-4.7205,-4.5681,-4.425,-4.3588,-4.3515,-4.3515,-4.3549,-4.3582,-4.3513,-4.3493,-4.3359,-4.241,-4.1176,-3.9989,-3.9915,-3.946,-3.8925,-3.8979,-3.9011,-3.9021,-3.9073,-3.9101,-3.9115,-3.9142,-3.9137,-3.9024,-3.8477,-3.7711,-3.6881,-3.6122,-3.5292,-3.4604,-3.4321,-3.4281,-3.4351,-3.4583,-3.4626,-3.4689,-3.4879,-3.4927,-3.4668,-3.3891,-3.3292,-3.2564,-3.1679,-3.0885,-3.0404,-3.0404,-3.0404,-3.0404,-3.0404,-3.0308,-3.025,-3.025,-2.9981,-2.9865,-2.9962,-2.9044,-2.8203,-2.7491,-2.7472,-2.7082,-2.6313,-2.7101,-2.7934,-2.8819,-2.8819,-2.8876,-2.9277,-3.0134,-3.0897,0.0,-3.3568,-3.57,-3.7785,-3.8728,-3.9564,-4.1102,-4.1798,-4.2162,-4.2162,-4.2872,-4.3457,0.0,-4.4096,-4.4402,-4.3894,-4.4159,-4.4185,-4.357,-4.3548,-4.4208,-4.5755,-4.6214,-4.7425,-4.9903,-5.0086,-5.0435,-5.1261,-5.0986,-5.0802,-5.0802,-5.0802,-5.0398,-4.961,-4.961,-4.915,-4.8306,-4.8306,-4.8306,-4.8306,-4.8306,-4.7425,-4.5847,-4.469,-4.392,-4.3515,-4.3515,-4.3532,-4.3531,-4.3515,-4.3532,-4.3439,-4.2615,-4.1881,-4.127,-4.0811,-4.016,-3.9552,-3.9627,-3.9353,-3.9007,-3.9073,-3.9101,-3.9101,-3.9101,-3.9101,-3.8924,-3.8212,-3.753,-3.6794,-3.5998,-3.5184,-3.4561,-3.4461,-3.4305,-3.4233,-3.434,-3.4381,-3.4397,-3.448,-3.4618,-3.4629,-3.4349,-3.3391,-3.2431,-3.162,-3.0874,-3.0404,-3.0404,-3.0404,-3.0404,-3.0404,-3.0404,-3.0404,-3.0404,-2.9929,-2.964,-2.964,-2.93,-2.8723,-2.7915,-2.8357,-2.8415,-2.8063,-2.8415,-2.9025,-2.9871,-2.9871,-2.9871,-3.1376,-3.2439,0.0,-3.413,-3.6276,-3.8345,-3.8989,-4.0044,-4.1122,-4.1958,-4.2449,-4.2721,-4.2721,-4.325,-4.367,-4.367,-4.4464,-4.4807,-4.3948,-4.4489,-4.4606,-4.3641,-4.3548,-4.4099,-4.5443,-4.5773,-4.6819,-4.9058,-4.9684,-5.027,-5.1096,-5.1353,-5.1463,-5.1463,-5.1463,-5.0967,-4.9941,-4.9941,-4.937,-4.8306,-4.8306,-4.8306,-4.8306,-4.8086,-4.7223,-4.5865,-4.5057,-4.425,-4.3515,-4.3515,-4.3515,-4.3515,-4.3515,-4.3515,-4.3441,-4.2837,-4.2488,-4.2176,-4.137,-4.0611,-3.9939,-3.9792,-3.9372,-3.895,-3.9017,-3.9059,-3.9073,-3.9073,-3.9087,-3.8971,-3.8377,-3.774,-3.7055,-3.6232,-3.5439,-3.4776,-3.4551,-3.4328,-3.4197,-3.4197,-3.4197,-3.4197,-3.4197,-3.4351,-3.4495,-3.4495,-3.3525,-3.2542,-3.181,-3.0944,-3.0404,-3.0404,-3.0404,-3.0404,-3.0404,-3.0404,-3.0404,-3.0404,-2.9813,-2.9467,-2.9467,-2.9467,-2.9063,-2.8261,-2.9044,-2.9338,-2.9107,-2.9338,-2.9775,-3.0404,-3.0404,-3.0404,-3.1679,0.0,-3.4559,-3.7035,-3.8284,-3.9512,-4.1989,-4.2594,-4.2869,-4.3748,-4.3318,-4.2797,-4.2797,-4.2816,-4.2835,-4.2835,-4.4112,-4.4823,-4.4008,-4.4489,-4.4573,-4.3709,-4.3531,-4.3828,0.0,-4.5443,-4.6581,-4.8233,-4.9848,-5.1114,-5.1903,-5.2711,-5.3133,-5.3133,-5.3133,-5.238,-5.0784,-5.0765,-4.9939,-4.8306,-4.8306,-4.8306,-4.8269,-4.748,-4.6672,-4.5865,-4.5057,-4.425,-4.3515,-4.3515,-4.3515,-4.3515,-4.3515,-4.3515,-4.3515,-4.3478,-4.2965,-4.2176,-4.137,-4.0579,-3.9803,-3.9071,-3.8825,-3.8822,-3.8896,-3.895,-3.8993,-3.8993,-3.9064,-3.9082,-3.9064,-3.8483,-3.7665,-3.6848,-3.6061,-3.5244,-3.4395,-3.4209,-3.4197,-3.4197,-3.4197,-3.4197,-3.4197,-3.4209,-3.4209,-3.4209,-3.3669,-3.3118,-3.2626,-3.1296,-3.0404,-3.0404,-3.0404,-3.0404,-3.0404,-3.0404,-3.0404,-3.0404,-3.0385,-3.0365,-3.0365,-3.0365,-2.9948,-2.9088,-2.9929,-2.9948,-2.9107,-2.9948,-3.0365,-3.0404,-3.0404,-3.0404,-3.3827,0.0,-3.7729,-3.9156,-4.0511,-4.1701,-4.2581,-4.2767,-4.2841,-4.315,-4.2556,-4.1999,-4.1999,-4.1999,-4.2184,-4.2705,-4.4093,-4.5008,-4.473,-4.5777,-4.6043,-4.4628,-4.4924,0.0,0.0,0.0,0.0,-4.8141,-4.9352,-5.0343,-5.1151,-5.2472,-5.2968,-5.2417,-5.2931,-5.2435,-5.082,-5.0802,-4.9958,-4.8306,-4.8306,-4.8306,-4.8269,-4.7461,-4.6654,-4.5865,-4.5057,-4.425,-4.3515,-4.3515,-4.3515,-4.3515,-4.3515,-4.3515,-4.3515,-4.3515,-4.3331,-4.2983,-4.2176,-4.1368,-4.0577,-3.9847,-3.9234,-3.8822,-3.8881,-3.8925,-3.8935,-3.8997,-3.9007,-3.892,-3.8437,-3.7708,-3.6891,-3.6105,-3.5268,-3.455,-3.4253,-3.4197,-3.4197,-3.4197,-3.4197,-3.4197,-3.4197,-3.4197,-3.4245,-3.4374,-3.3323,-3.2335,-3.1855,-3.087,-3.0254,-3.0392,-3.0404,-3.0404,-3.0404,-3.0404,-3.0404,-3.0404,-3.0404,-3.0135,-2.9563,-3.0096,-2.9981,-2.9127,-2.9967,-3.025,-2.9967,-3.025,-3.0404,-3.0404,-3.0404,-3.0404,-3.5803,-3.7659,-3.9449,-4.0903,-4.2036,-4.2797,-4.2797,-4.2797,-4.263,-4.2054,-4.1274,-4.0698,-4.0698,-4.0476,-4.0736,-4.2129,-4.3679,-4.48,-4.5064,-4.6423,-4.6871,-4.5493,-4.5752,-4.579,0.0,0.0,0.0,-4.7718,-4.9205,-5.0251,-5.0765,-5.2344,-5.2968,-5.2454,-5.2931,-5.2435,-5.082,-5.0802,-4.9958,-4.8306,-4.8306,-4.8306,-4.8269,-4.7461,-4.6654,-4.5865,-4.5057,-4.425,-4.3515,-4.3515,-4.3515,-4.3515,-4.3515,-4.3515,-4.3515,-4.3515,-4.3515,-4.3386,-4.258,-4.1772,-4.0965,-4.022,-3.9427,-3.8762,-3.8825,-3.8851,-3.8862,-3.8925,-3.8954,-3.8853,-3.8373,-3.7868,-3.7233,-3.6146,-3.5478,-3.4903,-3.4327,-3.4197,-3.4197,-3.4197,-3.4197,-3.4197,-3.4197,-3.4197,-3.4233,-3.434,-3.3224,-3.2216,-3.1746,-3.0689,-3.0044,-3.0174,-3.0241,-3.0299,-3.0299,-3.0361,-3.0404,-3.0404,-3.0404,-3.0154,-2.9583,-3.0096,-3.0135,-2.9583,-3.0115,-3.0404,-3.0404,-3.0404,-3.0404,-3.0404,-3.0404,-3.0404,-3.7502,-3.8632,-3.9918,-4.2277,-4.2853,-4.2853,-4.2853,-4.276,-4.2222,-4.0661,-3.9565,-3.8897,-3.8859,0.0,-3.8637,-4.107,-4.289,-4.4289,-4.5101,-4.6552,-4.7203,0.0,0.0,0.0,0.0,0.0,0.0,-4.7168,0.0,-5.0765,-5.0802,-5.2344,-5.3167,-5.3151,-5.3167,-5.2435,-5.082,-5.071,-4.9884,-4.8306,-4.8306,-4.8288,-4.8214,-4.7406,-4.6599,-4.5792,-4.5002,-4.4213,-4.3515,-4.3515,-4.3515,-4.3515,-4.3515,-4.3515,-4.3515,-4.3515,-4.3515,-4.3404,-4.2635,-4.1809,-4.0967,-4.0157,-3.935,-3.8707,-3.8707,-3.875,-3.8792,-3.8807,-3.8851,-3.891,-3.891,-3.8873,-3.8463,-3.6948,-3.6554,-3.6099,-3.4525,-3.4197,-3.4197,-3.4197,-3.4197,-3.4197,-3.4197,-3.4197,-3.4173,-3.4099,-3.3401,-3.272,-3.2241,-3.0816,-2.9822,-2.9801,-2.9958,-3.0075,-3.0082,-3.0267,-3.0373,-3.0373,-3.0373,-3.0373,-3.0367,-3.0373,-3.0373,-3.0373,-3.0379,-3.0404,-3.0404,-3.0404,-3.0404,-3.0404,-3.0404,-3.0404,-3.9444,-4.1204,-4.2909,-4.354,-4.3689,-4.3689,-4.3689,-4.2296,-4.0698,-3.964,-3.7819,-3.6216,-3.5572,0.0,0.0,-3.9435,-4.2147,0.0,-4.6621,-4.8217,0.0,-4.8808,0.0,-4.8398,-4.7755,-4.77,0.0,0.0,-4.9555,-5.016,-5.0765,-5.2344,-5.2931,-5.2325,-5.2894,-5.2435,-5.082,-4.9572,-4.8728,-4.8306,-4.8306,-4.7975,-4.7369,-4.6581,-4.5773,-4.4966,-4.4158,-4.3681,-4.3515,-4.3515,-4.3515,-4.3515,-4.3515,-4.3515,-4.3515,-4.3515,-4.3515,-4.3478,-4.3276,-4.2268,-4.0967,-4.0157,-3.935,-3.8707,-3.8707,-3.8704,-3.8735,-3.8792,-3.8822,-3.8837,-3.8896,-3.8467,-3.7765,-3.6763,-3.6061,-3.5349,-3.4334,-3.4124,-3.4136,-3.4185,-3.4197,-3.4197,-3.4197,-3.4161,-3.4099,-3.4036,-3.3302,-3.2556,-3.2027,-3.1049,-3.0218,-2.9761,-2.9773,-2.9853,-3.0006,-3.0075,-3.0129,-3.0182,-3.0182,-3.0135,-3.0026,-3.0128,-3.0182,-3.0182,-3.0317,-3.0404,-3.0404,-3.0404,-3.0404,-3.0404,-3.0404,-3.0404,-4.1219,-4.2705,-4.4005,-4.4005,-4.4005,-4.3615,-4.2184,-4.0791,-3.9175,-3.6891,-3.5361,0.0,-3.3751,-3.4717,0.0,0.0,0.0,0.0,-4.6089,-4.8051,-4.9343,0.0,-4.9924,0.0,-4.9444,-4.9407,-4.9756,0.0,-5.0325,-5.0472,-5.1279,-5.2527,-5.2839,-5.2013,-5.2435,-5.1903,-5.0288,-4.8967,-4.8306,-4.8306,-4.7938,-4.7535,-4.7058,-4.5902,-4.5131,-4.4672,0.0,-4.3515,-4.3515,-4.3515,-4.3515,-4.3515,-4.3515,-4.3515,-4.3515,-4.3515,-4.3277,-4.2965,-4.2965,-4.1919,-4.0561,-4.0469,-3.9643,-3.8707,-3.8707,-3.8707,-3.8707,-3.875,-3.8765,-3.8747,-3.8792,-3.8494,-3.7941,-3.7173,-3.6362,-3.5564,-3.4794,-3.4326,-3.4074,-3.4099,-3.4136,-3.4148,-3.4124,-3.4111,-3.4074,-3.3972,-3.3534,-3.2988,-3.2302,-3.118,-3.0336,-2.9995,-2.9739,-2.9615,-2.9727,-2.9901,-2.9981,-2.9935,-3.0003,-3.0,-2.9851,-2.9981,-3.0068,-3.0109,-3.0299,-3.0404,-3.0404,-3.0404,-3.0379,-3.0367,-3.0367,-3.0361,-4.2742,-4.3466,-4.4005,-4.4005,-4.3838,-4.2909,-3.9955,-3.8934,-3.7541,-3.3782,0.0,-3.2648,-3.2537,-3.3343,-3.481,-3.7188,0.0,-4.244,-4.482,-4.724,-4.903,-4.9739,-5.0508,-5.0967,-5.0967,-5.0857,-5.1132,-5.194,-5.1242,-5.1151,-5.1958,-5.2656,-5.2674,-5.1867,-5.1738,-5.1024,-4.961,-4.8728,-4.8306,-4.8306,-4.748,-4.7039,-4.6892,-4.5388,-4.4636,-4.4507,0.0,0.0,-4.3515,-4.3515,-4.3515,-4.3515,-4.3515,-4.3515,-4.3515,-4.3515,-4.3057,-4.2433,-4.2341,-4.1313,-4.0157,-4.0763,-3.9921,-3.8707,-3.8707,-3.8707,-3.8707,-3.8707,-3.8707,-3.8707,-3.8707,-3.8707,-3.8502,-3.775,-3.7047,-3.6306,-3.5472,-3.4594,-3.3998,-3.3998,-3.4049,-3.4074,-3.4011,-3.4036,-3.4036,-3.3908,-3.3895,-3.3616,-3.2852,-3.1415,-3.0415,-3.0304,-2.9723,-2.9368,-2.9398,-2.9722,-2.9859,-2.9678,-2.9832,-2.9864,-2.9732,-2.9861,-2.9969,-3.0025,-3.0248,-3.0361,-3.0361,-3.0398,-3.0373,-3.0304,-3.0304,-3.0305,-4.3578,-4.3893,-4.4005,-4.4005,-4.3002,-4.1683,-4.0471,-3.8074,0.0,0.0,-3.1942,-3.0809,-3.014,-3.1775,-3.38,-3.5621,-3.9101,0.0,0.0,0.0,-5.008,0.0,0.0,0.0,0.0,0.0,0.0,0.0,0.0,0.0,-5.1958,-5.2123,-5.183,-5.1041,-5.0343,-4.9886,-4.961,-4.8728,-4.8306,-4.8306,-4.748,-4.6746,-4.6085,-4.5131,-4.4342,-4.3699,0.0,0.0,-4.3515,-4.3515,-4.3515,-4.3515,-4.3515,-4.3515,-4.3515,-4.3515,-4.3423,-4.3185,-4.2525,-4.168,-4.0802,-4.0286,-3.9478,-3.8707,-3.8707,-3.8707,-3.8707,-3.8707,-3.8707,-3.8707,-3.8707,-3.8707,-3.8505,-3.7709,-3.7397,-3.6916,-3.5446,-3.4537,-3.3998,-3.3998,-3.4011,-3.4011,-3.3998,-3.3959,-3.3921,-3.3895,-3.3842,-3.3765,-3.3605,-3.2205,-3.095,-3.0277,-2.9534,-2.916,-2.9384,-2.9474,-2.9494,-2.9447,-2.9551,-2.9523,-2.939,-2.957,-2.968,-2.9688,-2.9981,-3.0143,-3.0143,-3.0317,-3.0373,-3.0304,-3.0304,-3.0305,-4.367,-4.4005,-4.4005,-4.4005,-4.2797,-4.1051,-3.8948,0.0,0.0,0.0,-2.9508,-2.8672,-2.8709,-3.0381,0.0,-3.393,-3.6901,0.0,0.0,0.0,0.0,0.0,0.0,0.0,0.0,0.0,0.0,0.0,0.0,0.0,0.0,-5.1226,-5.0583,-5.0178,-4.9352,-4.8912,-4.8912,-4.8508,-4.8306,-4.8288,-4.7058,-4.6269,-4.5865,-4.4635,-4.3864,-4.3515,0.0,0.0,-4.3515,-4.3515,-4.3515,-4.3515,-4.3515,-4.3515,-4.3515,-4.3515,-4.3239,-4.2763,-4.1956,-4.1148,-4.0341,-3.9533,-3.9019,-3.8707,-3.8707,-3.8707,-3.8707,-3.8707,-3.8707,-3.8707,-3.8707,-3.8707,-3.8597,-3.8212,-3.7477,-3.6427,-3.4784,-3.4163,-3.3895,-3.3895,-3.3921,-3.3934,-3.3895,-3.3895,-3.3881,-3.3842,-3.3815,-3.3807,-3.3807,-3.2406,-3.125,-3.087,-2.9721,-2.9044,-2.9171,-2.9299,-2.9293,-2.9198,-2.9316,-2.9334,-2.9207,-2.9392,-2.9494,-2.9504,-2.9799,-2.9973,-3.0054,-3.0182,-3.026,-3.0299,-3.0299,-3.0292,-4.3355,-4.3875,-4.4005,-4.4005,-4.2389,-4.0085,-3.7318,-3.4376,0.0,0.0,-2.7464,-2.7148,-2.7947,-2.9312,-3.0898,0.0,-3.5007,-3.7701,0.0,0.0,0.0,0.0,0.0,0.0,0.0,0.0,0.0,0.0,0.0,0.0,0.0,-5.0124,-4.9335,-4.9335,-4.8655,-4.8306,-4.8306,-4.8306,-4.8214,-4.8031,-4.6599,-4.581,-4.559,-4.4158,-4.3515,-4.3515,0.0,0.0,0.0,-4.3515,-4.3515,-4.3515,-4.3515,-4.3515,-4.3515,-4.3515,-4.3094,-4.2433,-4.1644,-4.0836,-4.001,-3.9221,-3.8836,-3.8707,-3.8707,-3.8707,-3.8707,-3.8707,-3.8707,-3.8707,-3.8707,-3.8707,-3.8707,-3.8707,-3.7477,-3.5936,-3.4614,-3.4045,-3.3807,-3.3807,-3.3842,-3.3855,-3.382,-3.3842,-3.3855,-3.382,-3.3807,-3.3807,-3.3807,-3.2406,-3.1397,-3.1397,-2.9971,-2.9005,-2.9005,-2.9149,-2.9181,-2.9017,-2.9171,-2.9206,-2.91,-2.9275,-2.9363,-2.9367,-2.9588,-2.9773,-2.9866,-2.9962,-3.0059,-3.0147,-3.0173,-3.0152,-4.2667,-4.3448,-4.4005,-4.4005,-4.1107,-3.7968,-3.6941,0.0,0.0,-2.8337,-2.7464,-2.7148,-2.7947,-2.8825,-3.0183,-3.2536,0.0,-3.7688,0.0,0.0,0.0,0.0,0.0,0.0,0.0,0.0,0.0,0.0,0.0,0.0,0.0,-4.893,-4.8416,-4.8416,-4.8343,-4.8306,-4.8306,-4.8306,-4.792,-4.7204,-4.6324,-4.5516,-4.4782,-4.3901,-4.3515,-4.3515,0.0,0.0,0.0,-4.3515,-4.3515,-4.3515,-4.3515,-4.3515,-4.3515,-4.3515,-4.346,-4.3276,-4.247,-4.1662,-4.0857,-4.0047,-3.9294,-3.8707,-3.8707,-3.8707,-3.8707,-3.8707,-3.8707,-3.8707,-3.8707,-3.8707,-3.8707,-3.8707,-3.7477,-3.6248,-3.6101,-3.4871,-3.3807,-3.3807,-3.3788,-3.382,-3.3807,-3.382,-3.382,-3.3807,-3.3807,-3.3807,-3.3807,-3.2406,-3.1397,-3.1397,-2.9971,-2.9005,-2.9005,-2.9028,-2.9028,-2.9005,-2.9067,-2.9112,-2.9089,-2.9167,-2.9222,-2.9222,-2.9367,-2.9438,-2.9457,-2.9642,-2.9712,-2.9667,-2.9724,-2.9822,-4.159,-4.302,-4.3875,-4.3392,-4.0568,-3.7559,-3.6272,0.0,-2.8374,-2.7557,-2.6739,-2.6414,-2.7174,-2.7978,-2.9161,-3.1083,-3.2607,-3.4476,-3.7208,0.0,0.0,0.0,0.0,0.0,0.0,0.0,0.0,0.0,0.0,0.0,0.0,0.0,-4.8306,-4.8306,-4.8306,-4.8306,-4.8306,-4.8306,-4.8141,-4.781,-4.6526,-4.5736,-4.5388,-4.4085,-4.3515,0.0,0.0,0.0,0.0,-4.3515,-4.3515,-4.3515,-4.3515,-4.3515,-4.3515,-4.3515,-4.3515,-4.3386,-4.258,-4.1772,-4.0967,-4.0157,-3.935,-3.8707,-3.8707,-3.8707,-3.8707,-3.8707,-3.8707,-3.8707,-3.8707,-3.8707,-3.8579,-3.8083,-3.711,-3.6303,-3.6303,-3.4981,-3.3935,-3.4417,-3.4137,-3.3807,-3.3807,-3.3807,-3.3807,-3.3807,-3.3807,-3.3807,-3.3807,-3.2816,-3.2118,-3.2118,-3.0253,-2.9005,-2.9005,-2.9005,-2.9005,-2.9005,-2.9028,-2.9051,-2.9051,-2.9074,-2.9085,-2.9085,-2.9163,-2.9272,-2.9405,-2.9476,-2.9551,-2.9605,-2.9624,-2.968,-3.9602,-4.133,-4.2407,-4.185,-3.9231,-3.65,0.0,-3.1292,-2.765,-2.7315,-2.6423,-2.5996,-2.6968,-2.7633,-2.8527,-3.012,-3.1206,-3.2704,-3.5179,-3.807,0.0,0.0,0.0,0.0,0.0,0.0,0.0,0.0,0.0,0.0,0.0,0.0,-4.8306,-4.8306,-4.8306,-4.8306,-4.8306,-4.8306,-4.8067,-4.759,-4.6434,-4.5645,-4.5149,-4.4029,-4.3515,0.0,0.0,0.0,0.0,-4.3515,-4.3515,-4.3515,-4.3515,-4.3515,-4.3515,-4.3515,-4.3515,-4.3423,-4.2837,-4.1974,-4.1003,-4.0432,-3.9551,-3.8707,-3.8707,-3.8707,-3.8707,-3.8707,-3.8707,-3.8707,-3.8707,-3.8707,-3.856,-3.7988,-3.7254,-3.6578,-3.634,-3.5165,-3.4252,-3.4582,-3.4192,-3.3807,-3.3807,-3.3807,-3.3807,-3.3807,-3.3807,-3.3807,-3.3807,-3.3096,-3.2509,-3.2284,-3.0509,-2.9354,-2.9354,-2.9133,-2.9005,-2.9005,-2.9005,-2.9005,-2.9005,-2.9005,-2.9005,-2.9005,-2.9051,-2.9134,-2.9278,-2.9283,-2.9328,-2.9418,-2.9418,-2.9456,-3.6532,-3.7931,-3.9157,-3.9138,-3.6668,-3.4234,-3.4216,-3.0437,-2.713,-2.7929,-2.6814,-2.6163,-2.769,-2.798,-2.8499,-3.004,-3.1642,-3.3526,-3.595,-3.8419,0.0,0.0,0.0,0.0,0.0,0.0,0.0,0.0,0.0,0.0,0.0,0.0,-4.8306,-4.8306,-4.8306,-4.8306,-4.8306,-4.8306,-4.7498,-4.592,-4.5902,-4.5057,-4.3533,-4.3515,0.0,0.0,0.0,0.0,0.0,-4.3515,-4.3515,-4.3515,-4.3515,-4.3515,-4.3515,-4.3515,-4.3515,-4.3515,-4.3496,-4.2433,-4.1095,-4.1095,-3.9994,-3.8707,-3.8707,-3.8707,-3.8707,-3.8707,-3.8707,-3.8707,-3.8707,-3.8707,-3.8707,-3.8689,-3.8065,-3.7272,-3.6468,-3.561,-3.4747,-3.3972,-3.3807,-3.3807,-3.3807,-3.3807,-3.3807,-3.3807,-3.3807,-3.3807,-3.3807,-3.3096,-3.2302,-3.1507,-3.0687,-3.0191,-3.0191,-2.9464,-2.9005,-2.9005,-2.9005,-2.9005,-2.9005,-2.9005,-2.9005,-2.9005,-2.9005,-2.9005,-2.9005,-2.9005,-2.9005,-2.9005,-2.9005,-2.9104,-3.3949,-3.5776,-3.7169,-3.6036,-3.455,-3.3094,-3.1998,-2.9229,-2.6962,-2.7222,-2.6869,-2.6822,-2.7824,-2.845,-2.9322,-3.0821,-3.1936,0.0,0.0,0.0,0.0,0.0,0.0,0.0,0.0,0.0,0.0,0.0,0.0,0.0,0.0,0.0,0.0,-4.8306,-4.8306,-4.8306,-4.8306,-4.7736,-4.7223,-4.6709,-4.5608,-4.4819,-4.4305,0.0,0.0,0.0,0.0,0.0,0.0,-4.3515,-4.3515,-4.3515,-4.3515,-4.3515,-4.3515,-4.3515,-4.3515,-4.3515,-4.3515,-4.2451,-4.1095,-4.1095,-3.9994,-3.8707,-3.8707,-3.8707,-3.8707,-3.8707,-3.8707,-3.8707,-3.8707,-3.8707,-3.8707,-3.8707,-3.8098,-3.7584,-3.7881,-3.6853,-3.5807,-3.555,-3.5037,-3.4454,-3.3899,-3.3807,-3.3807,-3.3807,-3.3807,-3.3807,-3.3807,-3.3587,-3.3109,-3.232,-3.1494,-3.0577,-2.9464,-2.9152,-2.9005,-2.9005,-2.9005,-2.9005,-2.9005,-2.9005,-2.9005,-2.9005,-2.9005,-2.9005,-2.9005,-2.9005,-2.9005,-2.9005,-2.9005,-2.9104,-3.0846,-3.2518,-3.3707,-3.2648,-3.1775,-3.0902,-2.9898,-2.7984,-2.6535,-2.6832,-2.6665,-2.6775,-2.7822,-2.8402,-2.9127,-3.0307,-3.1421,0.0,0.0,0.0,0.0,0.0,0.0,0.0,0.0,0.0,0.0,0.0,0.0,0.0,0.0,0.0,0.0,-4.7846,-4.7846,-4.7846,-4.7846,-4.7039,-4.6489,-4.6177,-4.5168,-4.4544,-4.4232,0.0,0.0,0.0,0.0,0.0,0.0,-4.3515,-4.3515,-4.3515,-4.3515,-4.3515,-4.3515,-4.3515,-4.3515,-4.3515,-4.3515,-4.2451,-4.1095,-4.1095,-3.9994,-3.8707,-3.8707,-3.8707,-3.8707,-3.8707,-3.8707,-3.8707,-3.8707,-3.8707,-3.8615,-3.8322,-3.8102,-3.7826,-3.7389,-3.678,-3.6101,-3.5477,-3.4926,-3.438,-3.3899,-3.3807,-3.3807,-3.3807,-3.3807,-3.3807,-3.3807,-3.3807,-3.3385,-3.2265,-3.1696,-3.0742,-2.9133,-2.9005,-2.9005,-2.9005,-2.9005,-2.9005,-2.9005,-2.9005,-2.9005,-2.9005,-2.9005,-2.9005,-2.9005,-2.9005,-2.9005,-2.9005,-2.9005,-2.9067,0.0,-2.8467,-2.9211,-2.9136,-2.856,-2.8003,-2.7947,-2.6776,0.0,-2.6665,-2.6219,-2.6182,-2.7793,-2.8033,-2.8296,-2.9193,0.0,0.0,0.0,0.0,0.0,0.0,0.0,0.0,0.0,0.0,0.0,0.0,0.0,0.0,0.0,0.0,0.0,0.0,-4.6966,-4.6966,-4.7003,-4.6232,-4.5443,-4.4691,-4.4636,-4.4213,-4.3515,0.0,0.0,0.0,0.0,0.0,0.0,-4.3515,-4.3515,-4.3515,-4.3515,-4.3515,-4.3515,-4.3515,-4.346,-4.3423,-4.3423,-4.2359,-4.1003,-4.0948,-3.9921,-3.8707,-3.8707,-3.8707,-3.8707,-3.8707,-3.8707,-3.8707,-3.8707,-3.8707,-3.8505,-3.7694,-3.8065,-3.7973,-3.561,-3.5734,-3.5826,-3.4192,-3.3899,-3.3862,-3.3807,-3.3807,-3.3807,-3.3807,-3.3807,-3.3807,-3.3807,-3.3752,-3.3109,-3.158,-3.136,-3.0687,-2.9133,-2.9005,-2.9005,-2.9005,-2.9005,-2.9005,-2.9005,-2.9005,-2.9005,-2.9005,-2.9005,-2.9005,-2.9005,-2.9005,-2.9005,-2.9005,-2.9005,-2.9005,-2.4436,0.0,-2.7334,-2.673,-2.6869,-2.7018,0.0,-2.5968,-2.5745,-2.5949,-2.5838,-2.6349,-2.8524,-2.841,-2.9031,-3.2149,0.0,0.0,0.0,0.0,0.0,0.0,0.0,0.0,0.0,0.0,0.0,0.0,0.0,0.0,0.0,0.0,0.0,0.0,-4.5572,-4.5571,-4.6177,-4.5388,-4.4892,-4.4691,-4.4085,-4.3681,0.0,0.0,0.0,0.0,0.0,0.0,0.0,-4.3515,-4.3515,-4.3515,-4.3515,-4.3515,-4.3515,-4.3515,-4.3112,-4.258,-4.258,-4.1534,-4.0084,-3.946,-3.9019,-3.8707,-3.8707,-3.8707,-3.8707,-3.8707,-3.8707,-3.8707,-3.8707,-3.8707,-3.8505,-3.7694,-3.7639,-3.7441,-3.6248,-3.6156,-3.5991,-3.4912,-3.4729,-3.4509,-3.3917,-3.3807,-3.3807,-3.3807,-3.3807,-3.3807,-3.3807,-3.3256,-3.2504,-3.1507,-3.0852,-3.0081,-2.9078,-2.9005,-2.9005,-2.9005,-2.9005,-2.9005,-2.9005,-2.9005,-2.9005,-2.9005,-2.9005,-2.9005,-2.9005,-2.9005,-2.9005,-2.9005,-2.9005,-2.9005,-2.3221,-2.5021,-2.6795,-2.6349,-2.6572,-2.6795,-2.6349,-2.5689,-2.515,-2.515,-2.5448,-2.6182,-2.7756,-2.8326,-2.9455,0.0,0.0,0.0,0.0,0.0,0.0,0.0,0.0,0.0,0.0,0.0,0.0,0.0,0.0,0.0,0.0,0.0,0.0,0.0,0.0,-4.4544,-4.5351,-4.4544,-4.4158,-4.414,-4.3699,-4.3515,0.0,0.0,0.0,0.0,0.0,0.0,-4.3515,-4.3515,-4.3515,-4.3515,-4.3515,-4.3515,-4.346,-4.3075,-4.2671,-4.2249,-4.1882,-4.0946,-3.9772,-3.8964,-3.8707,-3.8707,-3.8707,-3.8707,-3.8707,-3.8707,-3.8707,-3.8707,-3.8707,-3.8707,-3.8505,-3.7694,-3.7492,-3.718,-3.5973,-3.5701,-3.5445,-3.4601,-3.4454,-3.4307,-3.388,-3.3807,-3.3807,-3.3807,-3.3495,-3.3385,-3.3752,-3.3096,-3.2302,-3.1488,-3.1347,-3.0834,-2.9647,-2.9537,-2.939,-2.9023,-2.9005,-2.9005,-2.9005,-2.9005,-2.9005,-2.9005,-2.9005,-2.9005,-2.9005,-2.9005,-2.9005,-2.9005,-2.9005,-2.9005,-2.298,-2.5095,-2.7018,-2.6776,-2.6907,-2.7055,-2.6925,-2.5856,-2.4871,-2.4871,-2.541,-2.6163,-2.7081,-2.8436,0.0,0.0,0.0,0.0,0.0,0.0,0.0,0.0,0.0,0.0,0.0,0.0,0.0,0.0,0.0,0.0,0.0,0.0,0.0,0.0,0.0,0.0,-4.4525,-4.3828,-4.3515,-4.3515,-4.3515,-4.3515,-4.3515,0.0,0.0,0.0,0.0,0.0,-4.3515,-4.3515,-4.3515,-4.3515,-4.3515,-4.3423,-4.3222,-4.2543,-4.2139,-4.1827,-4.1003,-4.0304,-3.9588,-3.8927,-3.8707,-3.8707,-3.8707,-3.8707,-3.8707,-3.8707,-3.8707,-3.8707,-3.8707,-3.8707,-3.8505,-3.7694,-3.7419,-3.6905,-3.5334,-3.4912,-3.4619,-3.3935,-3.3807,-3.3807,-3.3807,-3.3807,-3.3807,-3.3807,-3.322,-3.3036,-3.3715,-3.3096,-3.2339,-3.1659,-3.2082,-3.1849,-3.0503,-3.0375,-3.0099,-2.9409,-2.9244,-2.9189,-2.9189,-2.9189,-2.9133,-2.9005,-2.9005,-2.9005,-2.9005,-2.9005,-2.9005,-2.9005,-2.9005,-2.9005,-2.298,-2.5522,-2.7594,-2.6219,-2.6907,-2.7743,-2.7055,-2.6702,-2.6535,-2.6535,-2.6628,-2.7351,-2.9448,-3.0035,-3.1132,0.0,0.0,0.0,0.0,0.0,0.0,0.0,0.0,0.0,0.0,0.0,0.0,0.0,0.0,0.0,0.0,0.0,0.0,0.0,0.0,0.0,0.0,-4.3552,-4.3515,-4.3515,-4.3515,-4.3515,-4.3515,-4.3515,0.0,0.0,0.0,0.0,-4.3515,-4.3515,-4.3515,-4.3515,-4.3515,-4.3075,-4.247,-4.2359,-4.1442,-4.0139,-3.935,-3.9001,-3.8854,-3.8744,-3.8707,-3.8707,-3.8707,-3.8707,-3.8707,-3.8707,-3.8707,-3.8707,-3.8707,-3.8707,-3.8505,-3.7694,-3.6978,-3.6211,-3.5206,-3.4454,-3.3954,-3.3825,-3.3807,-3.3807,-3.3807,-3.3807,-3.3807,-3.3807,-3.3697,-3.366,-3.377,-3.3096,-3.2546,-3.2417,-3.1916,-3.1476,-3.125,-3.1231,-3.1158,-3.1035,-3.0393,-3.0026,-3.0026,-3.0026,-2.9702,-2.9005,-2.9005,-2.9005,-2.9005,-2.9005,-2.9005,-2.9005,-2.9005,-2.9005,-2.2219,-2.4631,-2.6832,-2.6962,-2.856,-3.001,-2.9638,-2.8876,-2.8244,-2.8244,-2.8597,-2.9206,0.0,0.0,-3.3267,-3.6164,0.0,0.0,0.0,0.0,0.0,0.0,0.0,0.0,0.0,0.0,0.0,0.0,0.0,0.0,0.0,0.0,0.0,0.0,0.0,0.0,0.0,-4.3515,-4.3515,-4.3515,-4.3515,-4.3515,-4.3515,-4.3515,-4.3515,0.0,0.0,-4.3515,-4.3515,-4.3515,-4.3515,-4.346,-4.302,-4.2635,-4.2194,-4.1313,-4.0267,-3.9203,-3.8836,-3.8707,-3.8707,-3.8707,-3.8707,-3.8707,-3.8707,-3.8707,-3.8707,-3.8707,-3.8707,-3.8707,-3.8707,-3.8707,-3.8615,-3.823,-3.7202,-3.6193,-3.5789,-3.4706,-3.3807,-3.3807,-3.3807,-3.3807,-3.3807,-3.3807,-3.3807,-3.3807,-3.344,-3.3311,-3.3733,-3.3096,-3.2601,-3.2601,-3.2669,-3.2522,-3.2082,-3.2045,-3.1678,-3.0797,-3.0393,-3.0008,-2.9574,-2.9537,-2.9372,-2.9005,-2.9005,-2.9005,-2.9005,-2.9005,-2.9005,-2.9005,-2.9005,-2.9005,-2.1551,-2.3665,-2.5856,-2.765,-2.9824,-3.1626,-3.1998,-3.0976,-3.0065,-3.0456,-3.1002,-3.1373,0.0,-3.3056,0.0,0.0,0.0,0.0,0.0,0.0,0.0,0.0,0.0,0.0,0.0,0.0,0.0,0.0,0.0,0.0,0.0,0.0,0.0,0.0,0.0,0.0,0.0,-4.3515,-4.3515,-4.3515,-4.3515,-4.3515,-4.3515,-4.3515,-4.3515,-4.3515,-4.3515,-4.3404,-4.3222,-4.3222,-4.3112,-4.2873,-4.2268,-4.1901,-4.157,-4.0139,-3.9239,-3.8707,-3.8707,-3.8707,-3.8707,-3.8707,-3.8707,-3.8707,-3.8707,-3.8707,-3.8707,-3.8707,-3.8707,-3.8707,-3.8707,-3.8707,-3.8707,-3.8707,-3.7477,-3.6303,-3.6303,-3.4981,-3.3807,-3.3807,-3.3807,-3.3807,-3.3807,-3.3807,-3.3807,-3.3807,-3.3293,-3.3096,-3.3715,-3.3256,-3.2876,-3.2876,-3.344,-3.3476,-3.2674,-3.2601,-3.1904,-3.0301,-3.0375,-3.0118,-2.9317,-2.928,-2.9189,-2.9005,-2.9005,-2.9005,-2.9005,-2.9005,-2.9005,-2.9005,-2.9005,-2.9005,-2.1551,-2.3275,-2.515,-2.7501,-2.9396,-3.1087,-3.2574,-3.2258,-3.2054,-3.3559,-3.3858,-3.3821,0.0,-3.5054,0.0,0.0,0.0,0.0,0.0,0.0,0.0,0.0,0.0,0.0,0.0,0.0,0.0,0.0,0.0,0.0,0.0,0.0,0.0,0.0,0.0,0.0,0.0,0.0,-4.3515,-4.3515,-4.3515,-4.3515,-4.3515,-4.3515,-4.3515,-4.3515,-4.3515,-4.3075,-4.2396,-4.2396,-4.1956,-4.126,-4.1205,-4.0726,-3.9955,-3.9111,-3.8762,-3.8707,-3.8707,-3.8707,-3.8707,-3.8707,-3.8707,-3.8707,-3.8707,-3.8707,-3.8707,-3.8707,-3.8707,-3.8707,-3.8707,-3.8707,-3.8707,-3.8707,-3.7477,-3.6303,-3.6303,-3.4981,-3.3807,-3.3807,-3.3807,-3.3807,-3.3807,-3.3807,-3.3807,-3.3807,-3.3752,-3.3733,-3.3788,-3.3752,-3.3715,-3.3715,-3.377,-3.3476,-3.2674,-3.2601,-3.1904,-3.0301,-3.0889,-3.0944,-3.0155,-3.0118,-2.9769,-2.9005,-2.9005,-2.9005,-2.9005,-2.9005,-2.9005,-2.9005,-2.9005,-2.9005,-2.0957,-2.3201,-2.5596,-2.6999,-2.9378,-3.1775,-3.338,-3.351,-3.3751,-3.5404,-3.5732,-3.5681,0.0,0.0,0.0,0.0,0.0,0.0,0.0,0.0,0.0,0.0,0.0,0.0,0.0,0.0,0.0,0.0,0.0,0.0,0.0,0.0,0.0,0.0,0.0,0.0,0.0,0.0,-4.3515,-4.3515,-4.3515,-4.3515,-4.3515,-4.3515,-4.3515,-4.3478,-4.2965,-4.258,-4.2268,-4.1772,-4.137,-4.104,-4.0561,-3.9863,-3.9129,-3.8817,-3.8707,-3.8707,-3.8707,-3.8707,-3.8707,-3.8707,-3.8707,-3.8707,-3.8707,-3.8707,-3.8597,-3.8083,-3.8303,-3.8707,-3.8707,-3.8322,-3.7936,-3.7936,-3.6688,-3.5481,-3.5481,-3.4614,-3.3807,-3.3807,-3.3807,-3.3807,-3.3807,-3.3807,-3.3807,-3.3807,-3.3807,-3.3807,-3.3807,-3.3807,-3.3807,-3.3807,-3.3807,-3.3678,-3.3366,-3.2894,-3.2137,-3.1017,-3.076,-3.0283,-2.9482,-2.9445,-2.9317,-2.9005,-2.9005,-2.9005,-2.9005,-2.9005,-2.9005,-2.9005,-2.9005,-2.9005,-2.1031,-2.3386,-2.594,-2.6999,-2.9378,-3.1979,-3.4123,-3.4606,-3.5144,-3.7058,-3.7045,-3.6774,-3.7132,0.0,0.0,0.0,0.0,0.0,0.0,0.0,0.0,0.0,0.0,0.0,0.0,0.0,0.0,0.0,0.0,0.0,0.0,0.0,0.0,0.0,0.0,0.0,0.0,0.0,-4.2667,-4.2554,-4.243,-4.2704,-4.3322,-4.317,-4.3042,-4.2847,-4.2217,-4.1772,-4.1497,-4.0946,-4.0496,-4.0105,-3.9522,-3.8909,-3.8318,-3.8318,-3.8401,-3.8515,-3.8515,-3.8596,-3.8707,-3.8707,-3.8707,-3.8707,-3.8707,-3.8707,-3.8524,-3.7731,-3.7915,-3.8322,-3.8322,-3.8102,-3.7749,-3.7235,-3.6248,-3.5334,-3.5059,-3.4362,-3.3807,-3.3807,-3.3807,-3.3807,-3.3807,-3.3807,-3.3775,-3.378,-3.378,-3.3688,-3.3418,-3.3601,-3.3688,-3.3458,-3.3183,-3.3036,-3.3036,-3.254,-3.188,-3.1072,-3.0491,-2.9819,-2.9023,-2.9005,-2.9005,-2.9005,-2.9005,-2.8994,-2.8964,-2.8964,-2.897,-2.8947,-2.8947,-2.8947,-2.1996,-2.3814,-2.607,-2.7687,-2.9378,-3.1478,-3.4748,-3.551,-3.6197,-3.8599,-3.7765,-3.7031,-3.8441,0.0,0.0,0.0,0.0,0.0,0.0,0.0,0.0,0.0,0.0,0.0,0.0,0.0,0.0,0.0,0.0,0.0,0.0,0.0,0.0,0.0,0.0,0.0,0.0,0.0,-4.0879,-4.0491,-4.009,-4.0935,-4.2847,-4.2463,-4.2027,-4.1578,-4.1221,-4.0653,-3.99,-3.9882,-3.9177,-3.8085,-3.8018,-3.7792,-3.7505,-3.7505,-3.7738,-3.8101,-3.8101,-3.8368,-3.8707,-3.8707,-3.8707,-3.8707,-3.8692,-3.8692,-3.8524,-3.7698,-3.7477,-3.7492,-3.7456,-3.8065,-3.8285,-3.667,-3.6285,-3.6046,-3.5169,-3.4362,-3.3807,-3.3807,-3.3807,-3.3807,-3.3807,-3.3807,-3.378,-3.3712,-3.3698,-3.3405,-3.2605,-3.3191,-3.3414,-3.268,-3.1898,-3.1415,-3.1415,-3.1415,-3.1054,-3.0265,-3.0143,-2.9765,-2.903,-2.9005,-2.9005,-2.9005,-2.9005,-2.897,-2.8905,-2.8905,-2.887,-2.8798,-2.8798,-2.8798,-2.1458,-2.3386,-2.5949,-2.6999,-2.9787,-3.2853,-3.5008,-3.5937,-3.684,-3.8646,-3.8379,-3.7814,-3.7904,0.0,0.0,0.0,0.0,0.0,0.0,0.0,0.0,0.0,0.0,0.0,0.0,0.0,0.0,0.0,0.0,0.0,0.0,0.0,0.0,0.0,0.0,0.0,0.0,0.0,0.0,-3.9941,-3.9826,-4.0267,-4.1198,-4.1105,-4.0961,-4.0799,-4.0432,-4.012,-3.9829,-3.8882,-3.8249,-3.7861,-3.756,-3.7414,-3.736,-3.736,-3.7667,-3.8101,-3.8101,-3.8368,-3.8707,-3.8707,-3.8643,-3.8512,-3.8216,-3.7767,-3.7136,-3.6044,-3.5973,-3.597,-3.483,-3.5776,-3.689,-3.6413,-3.5404,-3.4468,-3.4211,-3.3972,-3.3807,-3.3807,-3.3807,-3.3807,-3.3807,-3.3766,-3.3726,-3.3698,-3.3182,-3.2698,-3.2461,-3.2643,-3.2917,-3.3259,-3.309,-3.2962,-3.2962,-3.1908,-3.1159,-3.0921,-2.9813,-2.9137,-2.9023,-2.8952,-2.894,-2.9005,-2.8952,-2.8917,-2.8905,-2.8858,-2.8822,-2.8798,-2.8798,-2.8798,-2.3312,-2.5401,-2.7836,-2.8653,-3.144,-3.4506,-3.6495,-3.7312,0.0,0.0,-3.8494,-3.8034,-3.7848,0.0,0.0,0.0,0.0,0.0,0.0,0.0,0.0,0.0,0.0,0.0,0.0,0.0,0.0,0.0,0.0,0.0,0.0,0.0,0.0,0.0,0.0,0.0,0.0,0.0,0.0,0.0,-3.8312,-3.8492,-3.8971,-3.948,-3.9623,-3.9457,-3.9238,-3.9128,-3.9041,-3.818,-3.7614,-3.7285,-3.6999,-3.6825,-3.6786,-3.6786,-3.7116,-3.7542,-3.7542,-3.793,-3.8385,-3.8201,-3.8183,-3.8094,-3.7359,-3.6843,-3.6199,-3.4852,-3.4735,-3.4781,-3.3924,-3.4374,-3.5108,-3.5284,-3.478,-3.4192,-3.3862,-3.3807,-3.3807,-3.3807,-3.378,-3.3766,-3.3766,-3.3698,-3.3643,-3.3615,-3.2898,-3.2488,-3.2798,-3.2297,-3.2238,-3.3026,-3.2839,-3.2657,-3.2657,-3.1764,-3.1071,-3.0742,-2.9793,-2.9138,-2.8923,-2.8881,-2.8881,-2.8923,-2.8881,-2.8846,-2.8815,-2.8785,-2.8749,-2.8712,-2.8712,-2.8712,-2.62,-2.843,-3.0586,-3.1478,-3.3615,-3.6086,-3.8358,-3.8934,-3.8985,-3.8917,0.0,0.0,0.0,0.0,0.0,0.0,0.0,0.0,0.0,0.0,0.0,0.0,0.0,0.0,0.0,0.0,0.0,0.0,0.0,0.0,0.0,0.0,0.0,0.0,0.0,0.0,0.0,0.0,0.0,0.0,0.0,-3.6174,-3.6536,-3.7762,-3.8137,-3.7837,-3.79,-3.7896,-3.7807,-3.765,-3.7188,-3.6577,-3.6374,-3.6147,-3.589,-3.5958,-3.6253,-3.6599,-3.6669,-3.7228,-3.7844,-3.7344,-3.7363,-3.7398,-3.6202,-3.5791,-3.5437,-3.3988,-3.365,-3.3783,-3.4031,-3.3622,-3.3232,-3.3638,-3.4316,-3.4679,-3.3927,-3.3793,-3.3807,-3.3775,-3.3739,-3.3698,-3.3698,-3.3629,-3.3545,-3.34,-3.2754,-3.2555,-3.3295,-3.2151,-3.1609,-3.2415,-3.1846,-3.1372,-3.13,-3.1227,-3.0826,-3.0037,-2.9864,-2.9488,-2.881,-2.8785,-2.8785,-2.8798,-2.8785,-2.8761,-2.8694,-2.8682,-2.8662,-2.86,-2.86,-2.86,-2.4251,-2.6265,-2.9006,-3.0493,-3.3206,-3.5807,-3.6959,-3.7689,-3.8312,-3.8863,0.0,0.0,0.0,0.0,0.0,0.0,0.0,0.0,0.0,0.0,0.0,0.0,0.0,0.0,0.0,0.0,0.0,0.0,0.0,0.0,0.0,0.0,0.0,0.0,0.0,0.0,0.0,0.0,0.0,0.0,-3.5866,-3.5822,-3.5849,-3.6634,-3.7128,-3.7344,-3.7412,-3.736,-3.7173,-3.6823,-3.6557,-3.6326,-3.5937,-3.5448,-3.5044,-3.564,-3.5817,-3.5839,-3.6432,-3.696,-3.7252,-3.6521,-3.629,-3.6092,-3.4944,-3.4165,-3.3587,-3.2932,-3.2587,-3.2407,-3.2476,-3.2575,-3.2747,-3.3139,-3.3625,-3.3918,-3.3679,-3.3726,-3.3793,-3.3739,-3.3712,-3.3698,-3.3698,-3.3605,-3.3273,-3.2585,-3.2335,-3.2281,-3.2462,-3.2186,-3.2276,-3.3092,-3.3038,-3.2675,-3.2041,-3.142,-3.0694,-2.9878,-2.9236,-2.8806,-2.8656,-2.87,-2.8749,-2.8798,-2.8749,-2.8706,-2.8694,-2.865,-2.8612,-2.86,-2.86,-2.86,-2.4908,-2.6804,-2.9293,-3.1674,0.0,-3.5664,-3.6461,-3.7007,-3.7434,-3.778,0.0,0.0,0.0,0.0,0.0,0.0,0.0,0.0,0.0,0.0,0.0,0.0,0.0,0.0,0.0,0.0,0.0,0.0,0.0,0.0,0.0,0.0,0.0,0.0,0.0,0.0,-3.6595,-3.645,-3.6152,-3.5689,-3.5689,-3.5667,-3.5622,-3.6028,-3.6457,-3.6921,-3.6884,-3.6805,-3.6684,-3.6454,-3.6199,-3.5902,-3.5304,-3.4888,-3.4614,-3.4643,-3.4844,-3.5173,-3.557,-3.6165,-3.6661,-3.5697,-3.5473,-3.5264,-3.3761,-3.3022,-3.2586,-3.2043,-3.1773,-3.1695,-3.1823,-3.2021,-3.23,-3.2651,-3.3063,-3.3441,-3.3559,-3.3526,-3.3451,-3.3426,-3.3383,-3.3368,-3.3368,-3.3401,-3.3292,-3.2832,-3.2777,-3.2777,-3.2777,-3.2777,-3.2864,-3.3093,-3.3114,-3.279,-3.1966,-3.1058,-3.0256,-2.9606,-2.868,-2.8169,-2.8169,-2.8192,-2.8299,-2.8456,-2.8299,-2.8219,-2.8219,-2.8183,-2.8169,-2.8169,-2.8169,-2.8169,-2.5557,-2.7585,-2.9922,-3.308,-3.442,0.0,-3.5983,-3.6305,-3.6443,0.0,0.0,0.0,0.0,0.0,0.0,0.0,0.0,0.0,0.0,0.0,0.0,0.0,0.0,0.0,0.0,0.0,0.0,0.0,0.0,0.0,0.0,0.0,0.0,0.0,0.0,0.0,-3.5999,-3.6401,-3.6265,-3.56,-3.56,-3.56,-3.56,-3.5711,-3.6002,-3.6416,-3.6312,-3.6287,-3.6249,-3.6061,-3.5839,-3.5515,-3.4658,-3.4303,-3.4235,-3.3626,-3.3859,-3.447,-3.447,-3.5164,-3.588,-3.4682,-3.4459,-3.4386,-3.2635,-3.2107,-3.1989,-3.136,-3.1232,-3.1334,-3.1562,-3.1693,-3.1858,-3.2127,-3.2553,-3.2954,-3.3309,-3.3172,-3.2986,-3.297,-3.3006,-3.3006,-3.307,-3.3256,-3.3393,-3.3393,-3.3393,-3.3393,-3.3393,-3.3349,-3.3178,-3.2844,-3.2747,-3.2378,-3.158,-3.0582,-2.9775,-2.9247,-2.8253,-2.7701,-2.7701,-2.7639,-2.7728,-2.795,-2.7786,-2.7701,-2.7701,-2.7701,-2.7701,-2.7701,-2.7701,-2.7701,-2.2727,-2.5446,-2.8958,0.0,-3.305,-3.3358,0.0,0.0,0.0,0.0,0.0,0.0,0.0,0.0,0.0,0.0,0.0,0.0,0.0,0.0,0.0,0.0,0.0,0.0,0.0,0.0,0.0,0.0,0.0,0.0,0.0,0.0,0.0,0.0,0.0,0.0,-3.6837,-3.6107,-3.5701,-3.56,-3.56,-3.56,-3.56,-3.5622,-3.5667,-3.5739,-3.5844,-3.5822,-3.5644,-3.5021,-3.5074,-3.5464,-3.4083,-3.3558,-3.3541,-3.344,-3.3474,-3.358,-3.358,-3.4096,-3.4512,-3.3096,-3.2659,-3.251,-3.1616,-3.1343,-3.1326,-3.1224,-3.121,-3.123,-3.1269,-3.1271,-3.1387,-3.1712,-3.1824,-3.1986,-3.2384,-3.2535,-3.255,-3.2503,-3.2766,-3.307,-3.3319,-3.3364,-3.3393,-3.3393,-3.3393,-3.3393,-3.3393,-3.3099,-3.286,-3.2795,-3.2535,-3.2035,-3.1245,-3.0456,-2.9681,-2.8906,-2.812,-2.7701,-2.7701,-2.743,-2.7274,-2.7321,-2.7565,-2.7701,-2.7701,-2.7701,-2.7701,-2.7701,-2.7701,-2.7701,-2.3693,-2.6005,-2.851,0.0,-3.2084,-3.284,-3.3234,0.0,0.0,0.0,0.0,0.0,0.0,0.0,0.0,0.0,0.0,0.0,0.0,0.0,0.0,0.0,0.0,0.0,0.0,0.0,0.0,0.0,0.0,0.0,0.0,-3.6322,-3.6399,-3.6466,-3.6271,0.0,-3.6214,-3.5814,-3.56,-3.56,-3.56,-3.56,-3.56,-3.56,-3.56,-3.56,-3.5667,-3.543,-3.4962,-3.4624,-3.4455,-3.4247,-3.3203,-3.278,-3.273,-3.2324,-3.2425,-3.278,-3.278,-3.3271,-3.3711,-3.2649,-3.2293,-3.2158,-3.141,-3.119,-3.119,-3.119,-3.119,-3.119,-3.119,-3.119,-3.1249,-3.1389,-3.1428,-3.1485,-3.1656,-3.1878,-3.2039,-3.2003,-3.2162,-3.2436,-3.2972,-3.3068,-3.3147,-3.3364,-3.3393,-3.3334,-3.3099,-3.2908,-3.265,-3.2231,-3.2039,-3.1828,-3.1463,-3.0594,-2.9989,-2.9813,-2.8936,-2.8217,-2.777,-2.8049,-2.7811,-2.694,-2.7068,-2.7148,-2.7148,-2.7148,-2.7148,-2.7148,-2.7148,-2.7148,-2.399,0.0,-2.7179,-2.9181,-3.0722,-3.1863,0.0,0.0,0.0,0.0,0.0,0.0,0.0,0.0,0.0,0.0,0.0,0.0,0.0,0.0,0.0,0.0,0.0,0.0,0.0,0.0,0.0,0.0,0.0,0.0,0.0,-3.5386,-3.5234,-3.5234,-3.513,-3.5086,-3.5042,-3.5042,-3.5042,-3.5042,-3.5042,-3.5042,-3.5042,-3.5042,-3.5042,-3.5042,-3.5228,-3.4912,-3.4201,-3.4015,-3.3728,-3.3322,-3.2395,-3.2141,-3.2209,-3.1461,-3.1667,-3.2276,-3.209,-3.2513,-3.3,-3.2259,-3.2022,-3.1921,-3.136,-3.119,-3.119,-3.119,-3.119,-3.119,-3.119,-3.119,-3.119,-3.119,-3.119,-3.119,-3.119,-3.1389,-3.1601,-3.1677,-3.1695,-3.1932,-3.2666,-3.2795,-3.2941,-3.3349,-3.3393,-3.3256,-3.286,-3.2731,-3.2418,-3.1769,-3.162,-3.1564,-3.1564,-3.0668,-3.0206,-3.0467,-2.9547,-2.8721,-2.8146,-2.867,-2.8367,-2.7012,-2.6979,-2.6894,-2.6691,-2.6691,-2.6691,-2.6691,-2.6691,-2.6691,-2.1596,-2.2819,0.0,-2.718,-2.8576,0.0,0.0,0.0,0.0,0.0,0.0,0.0,0.0,0.0,0.0,0.0,0.0,0.0,0.0,0.0,0.0,0.0,0.0,0.0,0.0,0.0,0.0,0.0,0.0,0.0,-3.402,-3.3833,-3.3709,-3.3709,-3.3709,-3.363,-3.3525,-3.3525,-3.3525,-3.3525,-3.3525,-3.3525,-3.3525,-3.3525,-3.3525,-3.3558,-3.4252,-3.4134,-3.3406,-3.2699,-3.2797,-3.3271,-3.1816,-3.1684,-3.2209,-3.1461,-3.1667,-3.2209,-3.1515,-3.1752,-3.2242,-3.1515,-3.1258,-3.1241,-3.1207,-3.119,-3.119,-3.119,-3.119,-3.119,-3.119,-3.119,-3.119,-3.119,-3.119,-3.119,-3.119,-3.121,-3.1329,-3.1638,-3.1695,-3.1932,-3.2666,-3.2795,-3.2941,-3.3349,-3.3393,-3.3256,-3.286,-3.2518,-3.2179,-3.1732,-3.1408,-3.123,-3.123,-3.0531,-3.0108,-3.011,-2.9416,-2.8976,-2.8942,-2.8976,-2.8602,-2.7756,-2.7739,-2.7384,-2.6691,-2.6691,-2.6691,-2.6691,-2.6691,-2.6691,-2.0252,0.0,0.0,-2.4395,-2.6591,-2.8489,0.0,0.0,0.0,0.0,0.0,0.0,0.0,0.0,0.0,0.0,0.0,0.0,0.0,0.0,0.0,0.0,0.0,0.0,0.0,0.0,0.0,0.0,0.0,0.0,-3.3714,-3.3569,-3.3469,-3.3469,-3.3469,-3.3448,-3.3406,-3.3406,-3.3406,-3.3406,-3.3406,-3.3406,-3.3406,-3.3406,-3.3136,-3.2716,-3.297,-3.2936,-3.2662,-3.2412,-3.2192,-3.1935,-3.141,-3.136,-3.1546,-3.1292,-3.136,-3.1565,-3.1275,-3.136,-3.1565,-3.1275,-3.119,-3.119,-3.119,-3.119,-3.119,-3.119,-3.119,-3.119,-3.119,-3.119,-3.119,-3.119,-3.119,-3.119,-3.119,-3.119,-3.1249,-3.1368,-3.137,-3.1524,-3.2003,-3.2092,-3.2231,-3.2619,-3.2702,-3.2553,-3.2144,-3.1986,-3.1786,-3.1428,-3.1271,-3.119,-3.119,-3.0954,-3.0818,-3.0818,-3.0548,-3.0192,-2.9736,-3.0159,-2.9583,-2.7841,-2.8315,-2.7943,-2.6691,-2.6691,-2.6691,-2.6691,-2.6691,-2.6691,-1.9231,0.0,0.0,0.0,0.0,-2.6726,0.0,0.0,0.0,0.0,0.0,0.0,0.0,0.0,0.0,0.0,0.0,0.0,0.0,0.0,0.0,0.0,0.0,0.0,0.0,0.0,0.0,0.0,0.0,0.0,-3.2825,-3.2723,-3.2662,-3.2662,-3.2662,-3.2662,-3.2662,-3.2662,-3.2662,-3.2662,-3.2662,-3.2662,-3.2662,-3.2662,-3.2391,-3.1938,-3.1938,-3.1938,-3.1938,-3.1938,-3.165,-3.119,-3.119,-3.119,-3.119,-3.119,-3.119,-3.119,-3.119,-3.119,-3.119,-3.119,-3.119,-3.119,-3.119,-3.119,-3.119,-3.119,-3.119,-3.119,-3.119,-3.119,-3.119,-3.119,-3.119,-3.119,-3.119,-3.119,-3.119,-3.119,-3.119,-3.131,-3.1638,-3.1695,-3.1841,-3.2248,-3.23,-3.2144,-3.175,-3.1695,-3.1564,-3.1249,-3.119,-3.119,-3.119,-3.119,-3.119,-3.119,-3.119,-3.097,-3.0497,-3.0937,-3.0243,-2.8247,-2.8739,-2.8248,-2.6691,-2.6691,-2.6691,-2.6691,-2.6691,-2.6691,0.0,0.0,0.0,0.0,0.0,0.0,0.0,0.0,0.0,0.0,0.0,0.0,0.0,0.0,0.0,0.0,0.0,0.0,0.0,0.0,0.0,0.0,0.0,0.0,0.0,0.0,0.0,0.0,0.0,-3.1295,-3.1295,-3.1232,-3.119,-3.119,-3.119,-3.119,-3.119,-3.119,-3.119,-3.119,-3.119,-3.119,-3.119,-3.119,-3.119,-3.119,-3.119,-3.119,-3.119,-3.119,-3.119,-3.119,-3.119,-3.119,-3.119,-3.119,-3.119,-3.119,-3.119,-3.119,-3.119,-3.119,-3.119,-3.119,-3.119,-3.119,-3.119,-3.119,-3.119,-3.119,-3.119,-3.119,-3.119,-3.119,-3.119,-3.119,-3.119,-3.119,-3.119,-3.119,-3.119,-3.131,-3.1638,-3.1694,-3.1823,-3.2214,-3.2266,-3.2127,-3.1732,-3.1694,-3.1562,-3.123,-3.119,-3.119,-3.119,-3.119,-3.119,-3.119,-3.119,-3.119,-3.119,-3.1173,-3.048,-2.9027,-2.8976,-2.8231,-2.6691,-2.6691,-2.6691,-2.6691,-2.6691,-2.6657,-1.8176,0.0,0.0,0.0,0.0,0.0,0.0,0.0,0.0,0.0,0.0,0.0,0.0,0.0,0.0,0.0,0.0,0.0,0.0,0.0,0.0,0.0,0.0,0.0,0.0,0.0,0.0,0.0,0.0,-3.123,-3.123,-3.121,-3.119,-3.119,-3.119,-3.119,-3.119,-3.119,-3.119,-3.119,-3.119,-3.119,-3.119,-3.119,-3.119,-3.119,-3.119,-3.119,-3.119,-3.119,-3.119,-3.119,-3.119,-3.119,-3.119,-3.119,-3.119,-3.119,-3.119,-3.119,-3.119,-3.119,-3.119,-3.119,-3.119,-3.119,-3.119,-3.119,-3.119,-3.119,-3.119,-3.119,-3.119,-3.119,-3.119,-3.119,-3.119,-3.119,-3.119,-3.119,-3.119,-3.123,-3.1329,-3.1349,-3.1387,-3.1485,-3.1504,-3.1466,-3.1349,-3.1349,-3.131,-3.121,-3.119,-3.119,-3.119,-3.119,-3.119,-3.119,-3.119,-3.119,-3.119,-3.0683,-2.9956,-2.9027,-2.8433,-2.7672,-2.6691,-2.6691,-2.6691,-2.6691,-2.6657,-2.6623,-1.9529,-2.0508,0.0,0.0,0.0,0.0,0.0,0.0,0.0,0.0,0.0,0.0,0.0,0.0,0.0,0.0,0.0,0.0,0.0,0.0,0.0,0.0,0.0,0.0,0.0,0.0,0.0,0.0,-3.0484,-3.0296,-3.0296,-3.0296,-3.0412,-3.0734,-3.0734,-3.0886,-3.119,-3.119,-3.119,-3.119,-3.0886,-3.0903,-3.119,-3.0886,-3.0903,-3.119,-3.119,-3.119,-3.119,-3.119,-3.119,-3.119,-3.119,-3.119,-3.119,-3.119,-3.119,-3.119,-3.119,-3.119,-3.119,-3.119,-3.119,-3.119,-3.119,-3.119,-3.119,-3.119,-3.119,-3.119,-3.119,-3.119,-3.119,-3.119,-3.119,-3.119,-3.119,-3.119,-3.119,-3.119,-3.119,-3.119,-3.119,-3.119,-3.119,-3.119,-3.119,-3.119,-3.119,-3.119,-3.119,-3.119,-3.119,-3.119,-3.119,-3.119,-3.119,-3.119,-3.119,-3.119,-3.119,-3.0441,-2.9679,-2.8937,-2.8141,-2.7365,-2.6623,-2.6674,-2.6691,-2.6657,-2.6623,-2.6555,-2.1789,-2.2204,-2.3021,0.0,0.0,0.0,-2.481,-2.4188,0.0,0.0,0.0,0.0,0.0,0.0,0.0,0.0,0.0,0.0,0.0,0.0,0.0,0.0,0.0,0.0,0.0,0.0,0.0,-2.9989,-2.9364,-2.8993,-2.8993,-2.8993,-2.9314,-2.9973,-2.9989,-3.0328,-3.1072,-3.0987,-3.0987,-3.1072,-3.0328,-3.0328,-3.092,-3.0277,-3.0378,-3.1072,-3.1072,-3.1123,-3.119,-3.119,-3.119,-3.119,-3.119,-3.119,-3.119,-3.119,-3.119,-3.119,-3.119,-3.119,-3.119,-3.119,-3.119,-3.119,-3.119,-3.119,-3.119,-3.119,-3.119,-3.119,-3.119,-3.119,-3.119,-3.119,-3.119,-3.119,-3.119,-3.119,-3.119,-3.119,-3.119,-3.119,-3.119,-3.119,-3.119,-3.119,-3.119,-3.119,-3.119,-3.119,-3.119,-3.119,-3.119,-3.119,-3.119,-3.119,-3.119,-3.119,-3.119,-3.1157,-3.1052,-3.0232,-2.9433,-2.8691,-2.7879,-2.7156,-2.6502,-2.6623,-2.6657,-2.6606,-2.6572,-2.6469,-2.2797,-2.3504,-2.4402,-2.3155,0.0,0.0,0.0,-2.2266,0.0,0.0,0.0,0.0,0.0,0.0,0.0,0.0,0.0,0.0,0.0,0.0,0.0,0.0,0.0,0.0,0.0,0.0,-2.9325,-2.9213,-2.9077,-2.8993,-2.8993,-2.8993,-2.9077,-2.9213,-2.9213,-2.9567,-3.0311,-2.9738,-2.9738,-3.0311,-2.9585,-2.9297,-2.9416,-2.9281,-2.9617,-3.0311,-3.0311,-3.0649,-3.119,-3.119,-3.119,-3.119,-3.119,-3.119,-3.119,-3.119,-3.119,-3.119,-3.119,-3.119,-3.119,-3.119,-3.119,-3.119,-3.119,-3.119,-3.119,-3.119,-3.119,-3.119,-3.119,-3.119,-3.119,-3.119,-3.119,-3.119,-3.119,-3.119,-3.119,-3.119,-3.119,-3.119,-3.119,-3.119,-3.119,-3.119,-3.119,-3.119,-3.119,-3.119,-3.119,-3.119,-3.119,-3.119,-3.119,-3.119,-3.119,-3.119,-3.119,-3.09,-3.0179,-2.9416,-2.8639,-2.7845,-2.7106,-2.6653,-2.6502,-2.6537,-2.6537,-2.652,-2.6399,-2.633,-2.4364,-2.4541,-2.5,-2.4115,0.0,0.0,0.0,0.0,0.0,0.0,0.0,0.0,0.0,0.0,0.0,0.0,0.0,0.0,0.0,0.0,0.0,0.0,0.0,0.0,0.0,0.0,-2.7386,-2.7317,-2.7656,-2.7859,-2.7859,-2.7859,-2.801,-2.8383,-2.8399,-2.8772,-2.9533,-2.9179,-2.9196,-2.9533,-2.8772,-2.8602,-2.8993,-2.8569,-2.8822,-2.9567,-2.9939,-3.0108,-3.0144,-3.0497,-3.0649,-3.0683,-3.1055,-3.119,-3.1157,-3.0784,-3.0649,-3.0598,-3.0245,-3.0328,-3.0649,-3.0649,-3.0903,-3.1123,-3.0768,-3.0649,-3.0649,-3.0649,-3.092,-3.119,-3.119,-3.119,-3.119,-3.119,-3.119,-3.119,-3.119,-3.119,-3.119,-3.119,-3.119,-3.119,-3.119,-3.119,-3.119,-3.119,-3.119,-3.119,-3.119,-3.119,-3.119,-3.119,-3.119,-3.119,-3.119,-3.119,-3.1038,-3.0666,-3.0594,-3.0198,-2.9383,-2.855,-2.7719,-2.6929,-2.6528,-2.6345,-2.6345,-2.6345,-2.638,-2.6416,-2.633,-2.6278,0.0,0.0,0.0,0.0,0.0,-2.4845,0.0,0.0,0.0,-2.5024,0.0,0.0,0.0,0.0,0.0,0.0,0.0,0.0,0.0,0.0,0.0,0.0,0.0,0.0,0.0,0.0,-2.5355,-2.5795,-2.6099,-2.6403,-2.6674,-2.6691,-2.6962,-2.757,-2.7587,-2.7977,-2.8773,-2.8637,-2.8637,-2.8773,-2.7977,-2.7943,-2.8536,-2.7892,-2.8027,-2.8789,-2.9414,-2.9414,-2.9044,-2.9634,-2.9888,-2.9956,-3.0531,-3.0852,-3.0903,-3.0159,-2.9888,-2.9803,-2.9213,-2.9381,-2.9888,-2.9888,-3.0294,-3.0683,-3.0243,-3.0108,-3.0108,-3.0108,-3.0632,-3.1157,-3.1021,-3.1089,-3.1157,-3.1021,-3.1089,-3.119,-3.119,-3.119,-3.119,-3.119,-3.119,-3.119,-3.119,-3.119,-3.119,-3.119,-3.119,-3.119,-3.119,-3.119,-3.119,-3.119,-3.119,-3.119,-3.119,-3.1072,-3.0714,-3.0104,-2.9825,-2.9347,-2.8552,-2.7649,-2.6856,-2.6202,-2.6202,-2.6202,-2.6202,-2.6202,-2.6239,-2.6294,-2.6294,-2.6241,0.0,0.0,0.0,0.0,-2.7313,0.0,0.0,0.0,-2.4428,-2.2922,0.0,0.0,0.0,0.0,0.0,0.0,0.0,0.0,0.0,0.0,0.0,0.0,0.0,0.0,0.0,0.0,0.0,-2.642,-2.5439,-2.532,-2.6623,-2.6691,-2.6725,-2.6826,-2.6826,-2.7182,-2.7925,-2.73,-2.73,-2.7925,-2.7182,-2.686,-2.6962,-2.686,-2.7232,-2.7942,-2.8027,-2.8433,-2.901,-2.9094,-2.9128,-2.9128,-2.9213,-2.9634,-3.0142,-2.9416,-2.9128,-2.9111,-2.9027,-2.9044,-2.9128,-2.9128,-2.9179,-2.9365,-2.9939,-3.0108,-3.0108,-3.0108,-3.0632,-3.1055,-3.0395,-3.0717,-3.1038,-3.0378,-3.0717,-3.119,-3.119,-3.119,-3.119,-3.119,-3.119,-3.119,-3.119,-3.119,-3.119,-3.119,-3.119,-3.119,-3.119,-3.119,-3.119,-3.119,-3.119,-3.119,-3.119,-3.0598,-3.0137,-2.9943,-2.9299,-2.85,-2.7598,-2.6773,-2.6286,-2.6202,-2.6202,-2.6202,-2.6202,-2.6202,-2.6203,-2.6203,-2.6203,-2.6203,0.0,0.0,0.0,0.0,0.0,0.0,0.0,0.0,-2.4792,0.0,0.0,0.0,0.0,0.0,0.0,0.0,0.0,0.0,0.0,0.0,0.0,0.0,0.0,0.0,0.0,0.0,0.0,0.0,0.0,-2.4762,-2.5388,-2.6218,-2.6691,-2.6691,-2.6691,-2.6843,-2.7165,-2.6843,-2.686,-2.7165,-2.6843,-2.6691,-2.6691,-2.6691,-2.686,-2.7199,-2.7604,-2.7757,-2.7706,-2.8129,-2.8298,-2.8264,-2.7824,-2.8399,-2.9364,-2.8586,-2.8298,-2.8247,-2.7807,-2.7943,-2.845,-2.9347,-2.9025,-2.8535,-2.9717,-2.9803,-2.955,-2.9989,-3.0328,-3.0497,-3.0192,-3.0006,-2.9856,-2.9551,-3.0023,-3.0565,-3.0565,-3.0903,-3.119,-3.119,-3.119,-3.119,-3.119,-3.119,-3.119,-3.119,-3.1131,-3.1075,-3.1075,-3.1052,-3.1032,-3.1032,-3.1032,-3.0844,-3.0423,-3.0104,-2.953,-2.8621,-2.7792,-2.7167,-2.6721,-2.6387,-2.6202,-2.6202,-2.6202,-2.6202,-2.6202,-2.6202,-2.6202,-2.6202,-2.6202,-2.6202,-2.7999,0.0,0.0,0.0,0.0,0.0,0.0,0.0,0.0,0.0,0.0,0.0,0.0,0.0,0.0,0.0,0.0,0.0,0.0,0.0,0.0,0.0,0.0,0.0,0.0,0.0,0.0,0.0,0.0,0.0,-2.4457,-2.5523,-2.6285,-2.6691,-2.6691,-2.6691,-2.6691,-2.6691,-2.6691,-2.6691,-2.6691,-2.6691,-2.6691,-2.6691,-2.6691,-2.6725,-2.7283,-2.7199,-2.6742,-2.7266,-2.7503,-2.7435,-2.6911,-2.7368,-2.8299,-2.7705,-2.7503,-2.7418,-2.6894,-2.7046,-2.7705,-2.9041,-2.8568,-2.779,-2.933,-2.9262,-2.8822,-2.9583,-2.9803,-2.9753,-2.9533,-2.9228,-2.8993,-2.8993,-2.9531,-3.0085,-3.0304,-3.076,-3.1112,-3.1112,-3.1112,-3.1112,-3.1112,-3.1131,-3.1151,-3.1151,-3.1052,-3.0975,-3.0975,-3.0932,-3.0892,-3.0892,-3.0707,-3.0389,-2.985,-2.9434,-2.8628,-2.7339,-2.6629,-2.6258,-2.6203,-2.6202,-2.6202,-2.6202,-2.6202,-2.6202,-2.6202,-2.6202,-2.6202,-2.6202,-2.6202,-2.6202,0.0,0.0,0.0,-2.7513,0.0,0.0,0.0,0.0,-2.5497,0.0,0.0,0.0,0.0,0.0,-2.2406,-2.1632,0.0,0.0,0.0,0.0,0.0,0.0,0.0,0.0,0.0,0.0,0.0,0.0,0.0,0.0,-2.4338,-2.4541,-2.5218,-2.664,-2.6691,-2.6691,-2.6691,-2.6691,-2.6691,-2.6691,-2.6691,-2.6691,-2.6691,-2.6691,-2.6691,-2.6691,-2.6725,-2.6708,-2.6691,-2.6725,-2.6725,-2.6725,-2.6708,-2.6725,-2.6759,-2.6742,-2.6725,-2.6725,-2.6708,-2.6708,-2.686,-2.7621,-2.735,-2.7012,-2.857,-2.8467,-2.801,-2.8824,-2.9044,-2.8857,-2.8077,-2.8433,-2.8993,-2.8993,-2.9458,-3.009,-3.083,-3.0955,-3.0912,-3.0912,-3.0912,-3.0912,-3.0912,-3.0955,-3.0995,-3.0995,-3.0952,-3.0912,-3.0912,-3.0892,-3.0892,-3.0892,-3.0272,-2.9817,-2.98,-2.8479,-2.7287,-2.6396,-2.6257,-2.6203,-2.6202,-2.6202,-2.6202,-2.6202,-2.6202,-2.6202,-2.6202,-2.6202,-2.6202,-2.6202,-2.6202,-2.6202,0.0,0.0,-2.8864,-2.7979,0.0,0.0,0.0,0.0,0.0,0.0,0.0,0.0,0.0,0.0,-2.262,-2.2347,-2.1405,0.0,0.0,0.0,0.0,0.0,0.0,0.0,0.0,0.0,0.0,0.0,0.0,0.0,0.0,-2.4425,-2.5676,-2.6657,-2.6691,-2.6691,-2.6691,-2.6691,-2.6691,-2.6691,-2.6691,-2.6691,-2.6691,-2.6691,-2.6691,-2.6691,-2.6691,-2.6691,-2.6691,-2.6691,-2.6691,-2.6691,-2.6691,-2.6691,-2.6691,-2.6691,-2.6691,-2.6691,-2.6691,-2.6691,-2.6826,-2.7553,-2.73,-2.708,-2.911,-2.9194,-2.8839,-3.0091,-2.9754,-2.8942,-2.8653,-2.8381,-2.8141,-2.8141,-2.8958,-2.9839,-3.009,-3.0543,-3.0892,-3.0892,-3.0892,-3.0892,-3.0892,-3.0851,-3.0834,-3.0932,-3.0834,-3.077,-3.077,-3.0259,-3.0102,-3.058,-2.9586,-2.8871,-2.8871,-2.7524,-2.6558,-2.6257,-2.6203,-2.6202,-2.6202,-2.6202,-2.6061,-2.574,-2.574,-2.5626,-2.5343,-2.5343,-2.5343,-2.5343,-2.5343,-2.5478,-2.8905,-2.8934,0.0,0.0,-2.7466,0.0,0.0,0.0,0.0,0.0,0.0,0.0,0.0,0.0,0.0,-2.2735,-2.1576,0.0,0.0,0.0,0.0,0.0,0.0,0.0,0.0,0.0,-2.028,-1.9752,0.0,0.0,0.0,0.0,-2.5287,-2.6285,-2.6556,-2.6691,-2.6691,-2.6691,-2.6691,-2.6691,-2.6691,-2.6691,-2.6691,-2.6691,-2.6691,-2.6691,-2.6691,-2.6691,-2.6691,-2.6691,-2.6691,-2.6691,-2.6691,-2.6691,-2.6657,-2.6674,-2.6691,-2.6691,-2.6691,-2.6691,-2.6776,-2.7249,-2.7097,-2.7012,-2.8753,-2.8772,-2.8502,-3.0008,-2.9348,-2.823,-2.8483,-2.8107,-2.7767,-2.8,-2.8881,-2.9738,-2.9989,-3.0439,-3.0753,-3.0753,-3.0753,-3.0753,-3.0753,-3.0692,-3.0671,-3.081,-3.0712,-3.063,-3.063,-3.0153,-2.9959,-3.0456,-2.9234,-2.8194,-2.7663,-2.675,-2.6202,-2.6202,-2.6202,-2.6132,-2.5954,-2.5937,-2.5738,-2.5294,-2.5294,-2.516,-2.4902,-2.4902,-2.4902,-2.4902,-2.4902,-2.4962]},{"header":{"parameterUnit":"m.s-1","parameterCategory":1,"la1":30.6,"la2":29.2853,"lo1":-89.7004,"lo2":-87.6739,"dy":0.0162,"dx":0.0183,"nx":112,"ny":82,"refTime":"2024-06-29T18:00:00:Z","depth":0,"parameterNumber":3,"parameterNumberName":"V-component_of_WINDS"},"data":[0.0,0.0,0.0,0.0,0.0,0.0,0.0,0.0,0.0,0.0,0.0,0.0,0.0,0.0,0.0,0.0,0.0,0.0,0.0,0.0,0.0,0.0,0.0,0.0,0.0,0.0,0.0,0.0,0.0,0.0,0.0,0.0,0.0,0.0,0.0,0.0,0.0,0.0,0.0,0.0,0.0,0.0,0.0,0.0,0.0,0.0,0.0,0.0,0.0,0.0,0.0,0.0,0.0,0.0,0.0,0.0,0.0,0.0,0.0,0.0,0.0,0.0,0.0,0.0,0.0,0.0,0.0,0.0,0.0,0.0,0.0,0.0,0.0,0.0,0.0,0.0,0.0,0.0,0.0,0.0,0.0,0.0,0.0,0.0,0.0,0.0,0.0,0.0,0.0,0.0,0.0,0.0264,0.0147,0.0158,0.0322,0.0386,0.0356,0.031,0.0,0.0,0.0,0.0,0.0,0.0,0.0,0.0,0.0,0.0,0.0,0.0,0.0,0.0,0.0,0.0,0.0,0.0,0.0,0.0,0.0,0.0,0.0,0.0,0.0,0.0,0.0,0.0,0.0,0.0,0.0,0.0,0.0,0.0,0.0,0.0,0.0,0.0,0.0,0.0,0.0,0.0,0.0,0.0,0.0,0.0,0.0,0.0,0.0,0.0,0.0,0.0,0.0,0.0,0.0,0.0,0.0,0.0,0.0,0.0,0.0,0.0,0.0,0.0,0.0,0.0,0.0,0.0,0.0,0.0,0.0,0.0,0.0,0.0,0.0,0.0,0.0,0.0,0.0,0.0,0.0,0.0,0.0,0.0,0.0,0.0,0.0,0.0,0.0,0.0,0.0,0.0,0.0,0.0,0.0,0.0,0.0,0.0,0.0,0.0,0.0,0.0,0.0,0.0,0.0347,0.0511,0.0537,0.0507,0.0537,0.0708,0.0659,0.033,0.0,0.0,0.0,0.0,0.0,0.0,0.0,0.0,0.0,0.0,0.0,0.0,0.0,0.0,0.0,0.0,0.0,0.0,0.0,0.0,0.0,0.0,0.0,0.0,0.0,0.0,0.0,0.0,0.0,0.0,0.0,0.0,0.0,0.0,0.0,0.0,0.0,0.0,0.0,0.0,0.0,0.0,0.0,0.0,0.0,0.0,0.0,0.0,0.0,0.0,0.0,0.0,0.0,0.0,0.0,0.0,0.0,0.0,0.0,0.0,0.0,0.0,0.0,0.0,0.0,0.0,0.0,0.0,0.0,0.0,0.0,0.0,0.0,0.0,0.0,0.0,0.0,0.0,0.0,0.0,0.0,0.0,0.0,0.0,0.0,0.0,0.0,0.0,0.0,0.0,0.0,0.0,0.0,0.0,0.0,0.0,0.0,0.0,0.0,0.0,0.0,0.0,0.0,0.0548,0.0524,0.0598,0.0619,0.0661,0.0759,0.0851,0.0792,0.0595,0.057,0.0,0.0,0.0,0.0,0.0,0.0,0.0,0.0,0.0,0.0,0.0,0.0,0.0,0.0,0.0,0.0,0.0,0.0,0.0,0.0,0.0,0.0,0.0,0.0,0.0,0.0,0.0,0.0,0.0,0.0,0.0,0.0,0.0,0.0,0.0,0.0,0.0,0.0,0.0,0.0,0.0,0.0,0.0,0.0,0.0,0.0,0.0,0.0,0.0,0.0,0.0,0.0,0.0,0.0,0.0,0.0,0.0,0.0,0.0,0.0,0.0,0.0,0.0,0.0,0.0,0.0,0.0,0.0,0.0,0.0,0.0,0.0,0.0,0.0,0.0,0.0,0.0,0.0,0.0,0.0,0.0,0.0,0.0,0.0,0.0,0.0,0.0,0.0,0.0,0.0,0.0,0.0,0.0,0.0,0.0,0.0,0.0,0.0,0.0,0.0,0.0,0.0,0.0782,0.0792,0.0751,0.0732,0.081,0.0941,0.0943,0.0875,0.0794,0.0706,0.0,0.0,0.0,0.0,0.0,0.0,0.0,0.0,0.0,0.0,0.0,0.0,0.0,0.0,0.0,0.0,0.0,0.0,0.0,0.0,0.0,0.0,0.0,0.0,0.0,0.0,0.0,0.0,0.0,0.0,0.0,0.0,0.0,0.0,0.0,0.0,0.0,0.0,0.0,0.0,0.0,0.0,0.0,0.0,0.0,0.0,0.0,0.0,0.0,0.0,0.0,0.0,0.0,0.0,0.0,0.0,0.0,0.0,0.0,0.0,0.0,0.0,0.0,0.0,0.0,0.0,0.0,0.0,0.0,0.0,0.0,0.0,0.0,0.0,0.0,0.0,0.0,0.0,0.0,0.0,0.0,0.0,0.0,0.0,0.0,0.0,0.0,0.0,0.0,0.0,0.0,0.0,0.0,0.0,0.0,0.0,0.0,0.0,0.0,0.0,0.0,0.0,0.1004,0.1171,0.117,0.1175,0.1165,0.1172,0.1057,0.0908,0.0708,0.064,0.0,0.0,0.0,0.0,0.0,0.0,0.0,0.0,0.0,0.0,0.0,0.0,0.0,0.0,0.0,0.0,0.0,0.0,0.0,0.0,0.0,0.0,0.0,0.0,0.0,0.0,0.0,0.0,0.0,0.0,0.0,0.0,0.0,0.0,0.0,0.0,0.0,0.0,0.0,0.0,0.0,0.0,0.0,0.0,0.0,0.0,0.0,0.0,0.0,0.0,0.0,0.0,0.0,0.0,0.0,0.0,0.0,0.0,0.0,0.0,0.0,0.0,0.0,0.0,0.0,0.0,0.0,0.0,0.0,0.0,0.0,0.0,0.0,0.0,0.0,0.0,0.0,0.0,0.0,0.0,0.0,0.0,0.0,0.0,0.0,0.0,0.0,0.0,0.0,0.0,0.0,0.0,0.0,0.0,0.0,0.0,0.0,0.0,0.0,0.0,0.0,0.0,0.0982,0.1102,0.0,0.1172,0.1171,0.114,0.109,0.0982,0.0848,0.0,0.0,0.0,0.0,0.0,0.0,0.0,0.0,0.0,0.0,0.0,0.0,0.0,0.0,0.0,0.0,0.0,0.0,0.0,0.0,0.0,0.0,0.0,0.0,0.0,0.0,0.0,0.0,0.0,0.0,0.0,0.0,0.0,0.0,0.0,0.0,0.0,0.0,0.0,0.0,0.0,0.0,0.0,0.0,0.0,0.0,0.0,0.0,0.0,0.0,0.0,0.0,0.0,0.0,0.0,0.0,0.0,0.0,0.0,0.0,0.0,0.0,0.0,0.0,0.0,0.0,0.0,0.0,0.0,0.0,0.0,0.0,0.0,0.0,0.0,0.0,0.0,0.0,0.0,0.0,0.0,0.0,0.0,0.0,0.0,0.0,0.0,0.0,0.0,0.0,0.0,0.0,0.0,0.0,0.0,0.0,0.0,0.0,0.0,0.0,0.0,0.0,0.0944,0.1179,0.1312,0.0,0.114,0.1144,0.1088,0.1067,0.099,0.0917,0.0,0.0,0.0,0.0,0.0,0.0,0.0,0.0,0.0,0.0,0.0,0.0,0.0,0.0,0.0,0.0,0.0,0.0,0.0,0.0,0.0,0.0,0.0,0.0,0.0,0.0,0.0,0.0,0.0,0.0,0.0,0.0,0.0,0.0,0.0,0.0,0.0,0.0,0.0,0.0,0.0,0.0,0.0,0.0,0.0,0.0,0.0,0.0,0.0,0.0,0.0,0.0,0.0,0.0,0.0,0.0,0.0,0.0,0.0,0.0,0.0,0.0,0.0,0.0,0.0,0.0,0.0,0.0,0.0,0.0,0.0,0.0,0.0,0.0,0.0,0.0,0.0,0.0,0.0,0.0,0.0,0.0,0.0,0.0,0.0,0.0,0.0,0.0,0.0,0.0,0.0,0.0,0.0,0.0,0.0,0.0,0.0,0.0,0.0,0.0,0.0,0.0,0.1005,0.1669,0.1923,0.1191,0.112,0.112,0.1085,0.098,0.0888,0.0,0.0,0.0,0.0,0.0,0.0,0.0,0.0,0.0,0.0,0.0,0.0,0.0,0.0,0.0,0.0,0.0,0.0,0.0,0.0,0.0,0.0,0.0,0.0,0.0,0.0,0.0,0.0,0.0,0.0,0.0,0.0,0.0,0.0,0.0,0.0,0.0,0.0,0.0,0.0,0.0,0.0,0.0,0.0,0.0,0.0,0.0,0.0,0.0,0.0,0.0,0.0,0.0,0.0,0.0,0.0,0.0,0.0,0.0,0.0,0.0,0.0,0.0,0.0,0.0,0.0,0.0,0.0,0.0,0.0,0.0,0.0,0.0,0.0,0.0,0.0,0.0,0.0,0.0,0.0,0.0,0.0,0.0,0.0,0.0,0.0,0.0,0.0,0.0,0.0,0.0,0.0,0.0,0.0,0.0,0.0,0.0,0.0,0.0,0.0,0.0,0.0,0.0,0.1724,0.2392,0.2614,0.1869,0.1805,0.16,0.1155,0.0968,0.0888,0.091,0.0,0.0,0.0,0.0,0.0,0.0,0.0,0.0,0.0,0.0,0.0,0.0,0.0,0.0,0.0,0.0,0.0,0.0,0.0,0.0,0.0,0.0,0.0,0.0,0.0,0.0,0.0,0.0,0.0,0.0,0.0,0.0,0.0,0.0,0.0,0.0,0.0,0.0,0.0,0.0,0.0,0.0,0.0,0.0,0.0,0.0,0.0,0.0,0.0,0.0,0.0,0.0,0.0,0.0,0.0,0.0,0.0,0.0,0.0,0.0,0.0,0.0,0.0,0.0,0.0,0.0,0.0,0.0,0.0,0.0,0.0,0.0,0.0,0.0,0.0,0.0,0.0,0.0,0.0,0.0,0.0,0.0,0.0,0.0,0.0,0.0,0.0,0.0,0.0,0.0,0.0,0.0,0.0,0.0,0.0,0.0,0.0,0.0,0.0,0.0,0.0,0.0,0.2052,0.2964,0.3351,0.2614,0.229,0.1921,0.1541,0.1118,0.0888,0.091,0.0,0.0,0.0,0.0,0.0,0.0,0.0,0.0,0.0,0.0,0.0,0.0,0.0,0.0,0.0,0.0,0.0,0.0,0.0,0.0,0.0,0.0,0.0,0.0,0.0,0.0,0.0,0.0,0.0,0.0,0.0,0.0,0.0,0.0,0.0,0.0,0.0,0.0,0.0,0.0,0.0,0.0,0.0,0.0,0.0,0.0,0.0,0.0,0.0,0.0,0.0,0.0,0.0,0.0,0.0,0.0,0.0,0.0,0.0,0.0,0.0,0.0,0.0,0.0,0.0,0.0,0.0,0.0,0.0,0.0,0.0,0.0,0.0,0.0,0.0,0.0,0.0,0.0,0.0,0.0,0.0,0.0,0.0,0.0,0.0,0.0,0.0,0.0,0.0,0.0,0.0,0.0,0.0,0.0,0.0,0.0,0.0,0.0,0.0,0.0,0.0,0.0,0.2163,0.3432,0.412,0.3382,0.2673,0.2269,0.2207,0.152,0.1089,0.1074,0.0,0.0,0.0,0.0,0.0,0.0,0.0,0.0,0.0,0.0,0.0,0.0,0.0,0.0,0.0,0.0,0.0,0.0,0.0,0.0,0.0,0.0,0.0,0.0,0.0,0.0,0.0,0.0,0.0,0.0,0.0,0.0,0.0,0.0,0.0,0.0,0.0,0.0,0.0,0.0,0.0,0.0,0.0,0.0,0.0,0.0,0.0,0.0,0.0,0.0,0.0,0.0,0.0,0.0,0.0,0.0,0.0,0.0,0.0,0.0,0.6168,0.0,0.0,0.0,0.0,0.0,0.0,0.0,0.0,0.0,0.0,0.0,0.0,0.0,0.0,0.0,0.0,0.0,0.0,0.0,0.0,0.0,0.0,0.0,0.0,0.0,0.0,0.0,0.0,0.0,0.0,0.0,0.0,0.0,0.0,0.0,0.0,0.0,0.0,0.0,0.0,0.0,0.2798,0.4179,0.4891,0.4151,0.3778,0.3425,0.3004,0.2662,0.2483,0.2467,0.0,0.0,0.0,0.0,0.0,0.0,0.0,0.0,0.0,0.0,0.0,0.0,0.0,0.0,0.0,0.0,0.0,0.0,0.0,0.0,0.0,0.0,0.0,0.0,0.0,0.0,0.0,0.0,0.0,0.0,0.0,0.0,0.0,0.0,0.0,0.0,0.0,0.0,0.0,0.0,0.0,0.0,0.0,0.0,0.0,0.0,0.0,0.0,0.0,0.0,0.0,0.0,0.0,0.0,0.0,0.0,0.0,0.0,0.0,0.0,0.0,0.6881,0.0,0.0,0.0,0.0,0.0,0.0,0.0,0.0,0.0,0.0,0.0,0.0,0.0,0.0,0.0,0.0,0.0,0.0,0.0,0.0,0.0,0.0,0.0,0.0,0.0,0.0,0.0,0.0,0.0,0.0,0.0,0.0,0.0,0.0,0.0,0.0,0.0,0.0,0.0,0.0,0.346,0.4597,0.5259,0.4858,0.4382,0.3993,0.3737,0.3292,0.2943,0.2802,0.2481,0.0,0.0,0.0,0.0,0.0,0.0,0.0,0.0,0.0,0.0,0.0,0.0,0.0,0.0,0.0,0.0,0.0,0.0,0.0,0.0,0.0,0.0,0.0,0.0,0.0,0.0,0.0,0.0,0.0,0.0,0.0,0.0,0.0,0.0,0.0,0.0,0.0,0.0,0.0,0.0,0.0,0.0,0.0,0.0,0.0,0.0,0.0,0.0,0.0,0.0,0.0,0.0,0.0,0.0,0.0,1.0363,1.0164,1.0266,1.0514,0.9854,0.9205,0.8468,0.0,0.0,0.0,0.0,0.0,0.0,0.0,0.0,0.0,0.0,0.0,0.0,0.0,0.0,0.0,0.0,0.0,0.0,0.0,0.0,0.0,0.0,0.0,0.0,0.0,0.526,0.5252,0.0,0.0,0.0,0.0,0.0,0.0,0.0,0.0,0.0,0.0,0.0,0.0,0.399,0.4832,0.5395,0.5395,0.4767,0.4382,0.4478,0.3834,0.332,0.3053,0.3,0.2766,0.0,0.0,0.0,0.0,0.0,0.0,0.0,0.0,0.0,0.0,0.0,0.0,0.0,0.0,0.0,0.0,0.0,0.0,0.0,0.0,0.0,0.0,0.0,0.0,0.0,0.0,0.0,0.0,0.0,0.0,0.0,0.0,0.9011,0.9091,0.0,0.0,0.0,0.0,0.0,0.0,0.0,0.0,0.0,0.0,0.0,0.0,0.0,0.0,1.0264,1.1369,1.1897,1.1915,1.2744,1.3262,1.3474,1.2433,1.2541,1.3477,1.2331,0.0,0.9135,0.8639,0.0,0.0,0.0,0.0,0.0,0.0,0.0,0.0,0.0,0.0,0.0,0.0,0.0,0.0,0.0,0.0,0.0,0.0,0.0,0.0,0.0,0.0,0.5555,0.5661,0.5715,0.564,0.0,0.4677,0.415,0.4115,0.0,0.0,0.0,0.0,0.0,0.0,0.0,0.0,0.4001,0.4832,0.5395,0.5395,0.5158,0.5064,0.5246,0.5006,0.4726,0.4445,0.3955,0.3513,0.3149,0.2464,0.0,0.0,0.0,0.0,0.0,0.0,0.0,0.0,0.0,0.0,0.0,0.0,0.0,0.0,0.0,0.0,0.0,0.0,0.0,0.0,0.0,0.0,0.0,0.0,0.0,0.0,0.0,0.0,0.0,0.8931,0.9734,0.9811,1.0175,1.0226,0.0,0.0,0.0,0.0,0.0,0.0,0.0,0.0,0.0,1.1438,1.1843,1.226,1.2741,1.3293,1.3548,1.3448,1.3842,1.4088,1.4176,1.3674,1.3592,1.3885,1.3349,1.2566,1.1548,1.072,0.9487,0.8017,0.0,0.0,0.0,0.0,0.0,0.0,0.6506,0.0,0.0,0.0,0.0,0.0,0.0,0.0,0.0,0.0,0.0,0.0,0.0,0.0,0.0,0.5915,0.5928,0.5895,0.5766,0.5348,0.4901,0.0,0.4409,0.4243,0.3968,0.0,0.0,0.0,0.0,0.0,0.4613,0.5089,0.5395,0.5395,0.5334,0.5287,0.5388,0.533,0.506,0.4621,0.4409,0.4079,0.3603,0.3066,0.2713,0.0,0.0,0.0,0.0,0.0,0.0,0.0,0.0,0.0,0.0,0.0,0.0,0.0,0.0,0.0,0.0,0.0,0.0,0.0,0.0,0.0,0.0,0.0,0.0,0.0,0.0,0.0,0.0,0.9506,1.0412,1.0621,1.1207,1.1381,0.0,0.0,0.0,0.0,0.0,0.0,1.1057,1.1341,1.1997,1.3067,1.3455,1.3937,1.4611,1.4566,1.4475,1.4384,1.4269,1.4231,1.4282,1.3954,1.3842,1.3869,1.3529,1.338,1.3351,1.2413,1.1035,0.9469,0.8916,0.8004,0.0,0.7692,0.7762,0.7624,0.8028,0.8128,0.7973,0.7129,0.0,0.6103,0.5496,0.0,0.0,0.0,0.0,0.5329,0.5633,0.0,0.6003,0.6078,0.6088,0.6078,0.6,0.5857,0.5549,0.0,0.4948,0.48,0.4355,0.0,0.0,0.0,0.0,0.4978,0.5083,0.5267,0.5395,0.5395,0.5395,0.5395,0.5395,0.5358,0.5092,0.4525,0.4535,0.4358,0.387,0.3579,0.3367,0.3202,0.0,0.0,0.0,0.0,0.0,0.0,0.0,0.0,0.0,0.0,0.0,0.0,0.0,0.0,0.0,0.0,0.0,0.0,0.0,0.0,0.0,0.0,0.0,0.0,0.0,0.0,0.0,0.0,0.0,1.1484,1.1962,0.0,0.0,0.0,0.0,1.2155,1.2542,1.3126,1.3858,1.3741,1.39,1.4468,1.4506,1.4579,1.4591,1.4406,1.4406,1.4591,1.4143,1.4024,1.4153,1.3087,1.3172,1.4122,1.2767,1.2689,1.348,1.3092,1.1822,1.0145,0.9841,0.8615,0.7095,0.796,0.8496,0.8896,0.9472,0.9694,0.9663,0.9557,0.9033,0.8254,0.7262,0.6852,0.0,0.0,0.5657,0.5803,0.5929,0.5983,0.603,0.6252,0.6286,0.6248,0.6023,0.5979,0.5878,0.0,0.5315,0.5079,0.5049,0.0,0.0,0.4854,0.4988,0.509,0.5096,0.5267,0.5395,0.5395,0.5395,0.5395,0.5395,0.5226,0.4948,0.4518,0.4314,0.4166,0.3991,0.3846,0.3762,0.3768,0.3092,0.0,0.0,0.0,0.0,0.0,0.0,0.0,0.0,0.0,0.0,0.0,0.0,0.0,0.0,0.0,0.0,0.0,0.0,0.0,0.0,0.0,0.0,0.0,0.0,0.0,0.0,0.0,0.0,1.2162,1.275,0.0,0.0,1.2903,1.3206,1.3502,1.3805,1.4206,1.4643,1.4789,1.4903,1.51,1.5285,1.5349,1.5349,1.5295,1.5295,1.5349,1.5197,1.5145,1.5238,1.4805,1.4756,1.4963,1.4435,1.4334,1.4472,1.4357,1.3292,1.1801,1.184,1.0705,0.9077,0.9866,0.9941,0.9606,0.9692,1.0115,1.0471,0.9694,0.9148,0.8692,0.8217,0.7884,0.767,0.7521,0.7098,0.6751,0.6927,0.6592,0.6231,0.6286,0.63,0.6282,0.6228,0.6179,0.6118,0.5911,0.563,0.5396,0.5294,0.5237,0.5169,0.5039,0.5182,0.5281,0.5281,0.5361,0.5395,0.5395,0.5395,0.5395,0.5395,0.5135,0.4884,0.4655,0.4355,0.4127,0.4001,0.3944,0.389,0.3792,0.3478,0.3122,0.0,0.0,0.0,0.0,0.0,0.0,0.0,0.0,0.0,0.0,0.0,0.0,0.0,0.0,0.0,0.0,0.0,0.0,0.0,0.0,0.0,0.0,0.0,0.0,0.0,0.0,1.2523,1.2765,1.3452,1.3809,1.351,1.3861,1.4235,1.4435,1.472,1.5007,1.5251,1.5391,1.5491,1.5591,1.564,1.5744,1.589,1.5744,1.5691,1.5691,1.5593,1.5547,1.5547,1.5547,1.5496,1.5311,1.5206,1.5048,1.487,1.4817,1.4141,1.3207,1.3027,1.1886,1.0483,1.1125,1.1065,1.0677,1.0767,1.0985,1.1103,1.0495,1.0194,0.9962,0.9456,0.9195,0.8998,0.8883,0.8154,0.7453,0.7614,0.6991,0.63,0.63,0.63,0.63,0.63,0.63,0.6269,0.6129,0.5908,0.5674,0.5508,0.5474,0.5419,0.5233,0.5327,0.5395,0.5395,0.5395,0.5395,0.5395,0.5395,0.5375,0.532,0.5013,0.4755,0.4555,0.4281,0.4099,0.3998,0.3994,0.3947,0.387,0.3575,0.3324,0.3101,0.0,0.0,0.0,0.0,0.0,0.0,0.0,0.0,0.0,0.0,0.0,0.0,0.0,0.0,0.0,0.0,0.0,0.0,0.0,0.0,0.0,0.0,0.0,1.1138,1.2121,1.2967,1.3274,1.4012,1.4311,1.388,1.4537,1.5,1.5008,1.5266,1.5538,1.5778,1.5648,1.5636,1.5924,1.565,1.5692,1.6017,1.5692,1.5509,1.5552,1.5277,1.5143,1.5143,1.5089,1.5083,1.5118,1.4825,1.4743,1.4724,1.4455,1.434,1.4257,1.325,1.2112,1.1079,1.1548,1.1843,1.2109,1.2748,1.2407,1.1698,1.2156,1.2271,1.2058,1.1036,1.0702,1.0536,0.9761,0.8769,0.7986,0.7982,0.7191,0.638,0.6338,0.6338,0.6338,0.63,0.63,0.63,0.63,0.6139,0.5909,0.5654,0.5596,0.5538,0.5426,0.5399,0.0,0.5395,0.5395,0.5395,0.5395,0.5395,0.5334,0.5117,0.4863,0.4568,0.4227,0.4089,0.3998,0.3987,0.3994,0.3994,0.3987,0.3418,0.3121,0.3114,0.0,0.0,0.0,0.0,0.0,0.0,0.0,0.0,0.0,0.0,0.0,0.0,0.0,0.0,0.0,0.0,0.0,0.0,0.0,0.0,0.0,0.0,1.2726,1.2248,1.3094,1.3771,1.388,1.4296,1.4603,1.467,1.4675,1.4935,1.5544,1.5523,1.5648,1.6132,1.6104,1.6188,1.6474,1.6195,1.624,1.6506,1.624,1.6201,1.6381,1.5895,1.5661,1.5654,1.5268,1.5226,1.5397,1.5313,1.5375,1.551,1.5431,1.5279,1.4996,1.4135,1.3099,1.2091,1.2169,1.2015,1.1923,1.2753,1.2771,1.2415,1.2554,1.1987,1.1211,1.0921,1.071,1.0525,1.0282,1.0074,0.9877,0.968,0.9003,0.8147,0.7362,0.7176,0.7026,0.6416,0.63,0.63,0.63,0.6265,0.6135,0.5942,0.5732,0.5576,0.5569,0.0,0.0,0.5395,0.5395,0.5395,0.5395,0.5395,0.5378,0.5334,0.4925,0.4657,0.0,0.4301,0.4062,0.3863,0.3961,0.3944,0.3856,0.369,0.3558,0.0,0.0,0.0,0.0,0.0,0.0,0.0,0.0,0.0,0.0,0.0,0.0,0.0,0.0,0.0,0.0,0.0,0.0,0.0,0.0,0.0,0.0,1.2706,1.3474,1.3294,1.3887,1.4381,1.462,1.4714,1.4878,1.5165,1.5157,1.5321,1.5794,1.582,1.6042,1.644,1.6453,1.6587,1.6881,1.6749,1.6801,1.7068,1.6808,1.6749,1.6887,1.6318,1.6071,1.6058,1.5588,1.5499,0.0,1.5635,1.5689,1.5784,1.5784,1.5732,0.0,0.0,0.0,0.0,0.0,1.2277,1.1843,1.2747,1.279,1.2448,1.2747,1.239,1.1803,1.1671,1.1564,1.1357,1.0949,1.0589,1.0239,1.007,0.9054,0.8032,0.816,0.7575,0.6949,0.6834,0.6528,0.63,0.63,0.0,0.0,0.6142,0.5928,0.5732,0.561,0.5549,0.5467,0.0,0.5395,0.5395,0.5395,0.5395,0.5368,0.527,0.4972,0.0,0.0,0.0,0.4202,0.39,0.0,0.0,0.0,0.0,0.0,0.0,0.0,0.0,0.0,0.3118,0.2987,0.0,0.0,0.0,0.0,0.0,0.0,0.0,0.0,0.0,0.0,0.0,0.0,0.0,0.0,0.0,0.0,1.3281,1.3709,1.4199,1.4482,1.4819,1.5279,1.514,1.5131,1.5512,1.5714,1.5908,1.6045,1.6268,1.65,1.6787,0.0,0.0,0.0,0.0,1.7321,1.7582,1.7328,1.7201,1.7246,1.664,1.6373,1.6366,1.5969,1.5817,1.5831,1.5831,1.5811,1.5784,1.5784,1.5778,1.5704,1.5272,1.4721,1.4135,1.3446,1.2601,0.0,0.0,0.0,0.0,1.2839,1.2966,1.2839,1.2619,1.2534,1.2357,1.1537,1.0703,0.9991,0.9858,0.8418,0.7322,0.8707,0.7788,0.6756,0.748,0.7065,0.6528,0.6451,0.6454,0.6412,0.63,0.6132,0.5899,0.5654,0.5599,0.0,0.5416,0.5395,0.5395,0.5395,0.0,0.0,0.5137,0.4995,0.4819,0.4559,0.4508,0.4378,0.4082,0.3948,0.3832,0.3706,0.3703,0.3764,0.3866,0.3866,0.3938,0.4038,0.3351,0.3254,0.0,0.0,0.0,0.0,0.0,0.0,0.0,0.0,0.0,0.0,0.0,0.0,0.0,0.0,0.0,1.3214,1.39,1.4499,1.4779,1.4952,1.4948,1.4769,1.4954,1.5293,1.5758,1.6055,1.6417,1.6903,1.6981,1.7159,1.7395,1.7239,0.0,1.7488,1.7298,1.7325,1.7582,1.7325,1.7298,1.7495,0.0,0.0,1.6682,1.6186,1.592,1.5888,1.5888,1.5853,1.5784,1.5784,1.5683,1.5514,1.5225,1.4721,1.4161,1.3798,1.3324,1.2881,1.3052,1.2875,1.2577,1.2747,1.2277,1.1628,1.1585,1.158,0.0,1.137,1.1718,1.1891,1.0783,1.0207,0.9692,0.8957,0.8502,0.8284,0.8437,0.836,0.8055,0.7407,0.7253,0.7065,0.6412,0.6132,0.5932,0.5786,0.5664,0.5535,0.5416,0.5395,0.5395,0.5395,0.5395,0.5382,0.5351,0.5176,0.4985,0.4843,0.4627,0.4518,0.4558,0.4443,0.4348,0.432,0.4317,0.4331,0.4361,0.4361,0.4375,0.4399,0.4092,0.4079,0.0,0.0,0.0,0.0,0.0,0.0,0.0,0.0,0.0,0.0,0.0,1.1741,1.237,0.0,1.333,1.3894,1.4247,1.4568,1.4982,1.494,1.4978,1.5162,1.5272,1.5521,1.6044,1.6209,1.653,1.7166,1.7199,1.7326,1.7569,1.7442,1.7481,1.7582,1.7483,1.7483,1.7582,1.7483,1.7483,1.7582,1.7191,1.7007,1.6993,1.6544,1.6249,1.612,1.612,1.6002,1.5784,1.5784,1.573,1.5622,1.5483,1.5061,1.4417,1.4096,1.3766,1.3453,1.3315,1.3094,1.2881,1.2881,1.2491,1.2015,1.2015,1.2015,1.1886,1.1408,1.1623,1.1872,1.1157,1.0218,0.9468,0.9651,0.8889,0.8208,0.8623,0.8703,0.8589,0.8169,0.8093,0.7978,0.7557,0.7064,0.6548,0.5906,0.5742,0.5613,0.5423,0.5395,0.5395,0.5395,0.5395,0.5395,0.5395,0.522,0.5069,0.4999,0.467,0.4559,0.4684,0.4477,0.4355,0.4355,0.4355,0.4355,0.4355,0.4355,0.4433,0.4604,0.4504,0.4548,0.0,0.0,0.0,0.0,0.0,0.0,0.0,0.0,1.1067,1.1922,1.2312,1.2652,1.3144,1.346,1.3809,1.4448,1.4422,1.4487,1.5003,1.4981,1.507,1.5737,1.5635,1.5726,1.6326,1.6455,1.6764,1.7414,1.746,1.7588,1.7829,1.7789,1.7762,1.7762,1.7762,1.7729,1.7669,1.7669,1.7642,1.7582,1.7393,1.7286,1.728,1.6987,1.6687,1.6353,1.6233,1.6052,1.5784,1.5784,1.5784,1.5737,1.5784,1.5396,1.4803,1.4526,1.4215,1.3867,1.3643,1.34,1.3137,1.31,1.2966,1.279,1.2705,1.2705,1.2534,1.18,1.158,1.1531,1.1311,0.9932,0.8941,1.0316,0.9242,0.8203,0.9003,0.9155,0.9117,0.8965,0.8932,0.8889,0.8737,0.8169,0.737,0.6248,0.5928,0.5705,0.5474,0.5412,0.5395,0.5395,0.5395,0.5395,0.5395,0.5247,0.5143,0.5143,0.4866,0.4723,0.4846,0.4533,0.4351,0.4324,0.4324,0.4335,0.4308,0.4311,0.4486,0.4775,0.4775,0.4843,0.9109,0.9733,1.0231,1.0117,1.0698,1.1608,0.0,0.0,1.2936,1.3748,1.3926,1.3989,1.4053,1.4079,1.4158,1.4226,1.4483,1.4752,1.5077,1.5261,1.5493,1.5784,1.5635,1.5805,1.66,1.6894,1.746,1.8277,1.8343,1.847,1.8758,1.8531,1.839,1.839,1.839,1.8263,1.7942,1.7942,1.7856,1.7582,1.7549,1.7535,1.7528,1.7502,1.7181,1.6627,1.6106,1.5811,1.5784,1.5784,1.5689,1.554,1.573,1.5615,1.5408,1.5279,1.4784,1.4161,1.4135,1.378,1.3355,1.3137,1.31,1.3009,1.279,1.2705,1.2662,1.2577,1.2528,1.2304,1.1352,1.0769,1.0402,1.0358,0.9995,0.9841,1.0657,1.085,1.0625,0.9916,0.9765,0.9539,0.8818,0.8627,0.8203,0.7204,0.6321,0.5742,0.5586,0.5481,0.5395,0.5395,0.5395,0.5395,0.5395,0.5378,0.5368,0.5368,0.532,0.53,0.5317,0.5121,0.4941,0.4817,0.4813,0.4775,0.464,0.4779,0.4894,0.5049,0.5049,0.5059,0.9938,1.045,1.0752,0.0,1.1272,1.2162,1.2826,1.3146,1.3478,1.4052,1.4189,1.421,1.421,1.4241,1.4277,0.0,1.4647,1.4964,1.506,1.5313,1.5592,1.5804,1.5635,1.5818,1.6597,1.682,1.7261,1.8163,1.823,1.8357,1.8657,1.8557,1.849,1.849,1.849,1.8343,1.7995,1.7995,1.7889,1.7582,1.7582,1.7582,1.7582,1.7582,1.7261,1.6687,1.6266,1.5985,1.5784,1.5784,1.5737,1.5683,1.5784,1.5737,1.565,1.5458,1.5192,1.4868,1.4703,1.432,1.3812,1.3596,1.3311,1.3052,1.279,1.2705,1.2705,1.2705,1.2705,1.2553,1.1957,1.125,1.0637,1.0365,1.0089,0.9992,1.0331,1.0775,1.0999,1.0663,1.0594,1.0475,1.0132,0.9722,0.9238,0.8843,0.7479,0.6451,0.6325,0.5757,0.5395,0.5395,0.5395,0.5395,0.5395,0.5395,0.5395,0.5395,0.5277,0.5226,0.5226,0.5133,0.5032,0.4891,0.4968,0.4978,0.4948,0.4978,0.5118,0.5267,0.5267,0.5267,1.0498,1.0893,0.0,1.1254,1.1918,1.2691,1.3045,1.3399,1.3809,1.4141,1.4152,1.4139,1.4139,1.4157,1.4189,1.4189,1.4716,1.5046,1.5025,1.5373,1.5632,1.5722,1.5635,1.5833,1.654,1.666,1.7041,1.7856,1.8022,1.8297,1.8597,1.8691,1.8731,1.8731,1.8731,1.8551,1.8115,1.8115,1.7969,1.7582,1.7582,1.7582,1.7582,1.7502,1.7188,1.6693,1.64,1.6106,1.5784,1.5784,1.5784,1.5784,1.5784,1.5784,1.5758,1.5591,1.5464,1.5351,1.5109,1.4681,1.4241,1.3896,1.3557,1.3222,1.296,1.2833,1.279,1.279,1.2747,1.2662,1.2469,1.1764,1.1064,1.0818,1.0539,1.0301,1.0235,1.07,1.1111,1.1111,1.1111,1.1111,1.1111,1.0625,1.0218,1.0218,0.8827,0.7513,0.6943,0.6015,0.5395,0.5395,0.5395,0.5395,0.5395,0.5395,0.5395,0.5395,0.5257,0.5196,0.5196,0.5196,0.5125,0.4951,0.5121,0.514,0.51,0.514,0.525,0.5395,0.5395,0.5395,1.0638,0.0,1.1815,1.2482,1.2996,1.3509,1.4049,1.4149,1.4188,1.4267,1.4075,1.3906,1.3906,1.3912,1.3918,1.3918,1.4599,1.4998,1.4725,1.5373,1.5784,1.5532,1.5683,1.5952,0.0,1.654,1.6954,1.7555,1.8143,1.8604,1.8891,1.9185,1.9339,1.9339,1.9339,1.9065,1.8484,1.8477,1.8176,1.7582,1.7582,1.7582,1.7569,1.734,1.7045,1.6693,1.64,1.6106,1.5784,1.5784,1.5784,1.5784,1.5784,1.5784,1.5784,1.5771,1.5638,1.5351,1.5109,1.477,1.4389,1.3884,1.3701,1.3652,1.344,1.3222,1.3094,1.3094,1.2881,1.2699,1.2693,1.2457,1.2193,1.1928,1.163,1.1366,1.1134,1.1074,1.1111,1.1111,1.1111,1.1111,1.1111,1.1074,1.1074,1.1074,1.0253,0.899,0.7233,0.6048,0.5395,0.5395,0.5395,0.5395,0.5395,0.5395,0.5395,0.5395,0.5392,0.5388,0.5388,0.5388,0.5281,0.5096,0.5277,0.5281,0.51,0.5281,0.5388,0.5395,0.5395,0.5395,1.1359,0.0,1.2624,1.2912,1.3358,1.3801,1.3938,1.3999,1.4023,1.402,1.3827,1.3646,1.3646,1.3646,1.3707,1.3876,1.4593,1.506,1.4967,1.5651,1.6079,1.5804,1.5963,0.0,0.0,0.0,0.0,1.7522,1.7963,1.8323,1.8617,1.9098,1.9279,1.9078,1.9265,1.9085,1.8497,1.849,1.8183,1.7582,1.7582,1.7582,1.7569,1.7333,1.7038,1.6693,1.64,1.6106,1.5784,1.5784,1.5784,1.5784,1.5784,1.5784,1.5784,1.5784,1.5718,1.5645,1.5351,1.5057,1.4719,1.4209,1.3893,1.3652,1.3483,1.3355,1.3264,1.3143,1.3052,1.2881,1.2535,1.2252,1.1986,1.1688,1.1417,1.1226,1.1129,1.1111,1.1111,1.1111,1.1111,1.1111,1.1111,1.1111,1.0962,1.055,0.991,0.8816,0.7099,0.6386,0.5881,0.5462,0.5395,0.5395,0.5395,0.5395,0.5395,0.5395,0.5395,0.5347,0.5213,0.5341,0.532,0.5103,0.5284,0.5368,0.5284,0.5368,0.5395,0.5395,0.5395,0.5395,1.1979,1.2464,1.2961,1.329,1.3658,1.3906,1.3906,1.3906,1.3851,1.3664,1.3411,1.3224,1.3224,1.3151,1.3236,1.3688,1.4351,1.4881,1.5078,1.5815,1.6253,1.6054,1.6258,1.644,0.0,0.0,0.0,1.7427,1.7909,1.829,1.8477,1.9052,1.9279,1.9092,1.9265,1.9085,1.8497,1.849,1.8183,1.7582,1.7582,1.7582,1.7569,1.7333,1.7038,1.6693,1.64,1.6106,1.5784,1.5784,1.5784,1.5784,1.5784,1.5784,1.5784,1.5784,1.5784,1.5738,1.5498,1.5204,1.491,1.4441,1.4107,1.3822,1.3701,1.3568,1.3476,1.3355,1.327,1.3142,1.2793,1.2579,1.2322,1.1875,1.1656,1.1467,1.1154,1.1111,1.1111,1.1111,1.1111,1.1111,1.1111,1.1111,1.0999,1.0663,1.0237,0.9314,0.7658,0.712,0.6695,0.6276,0.5947,0.5752,0.5752,0.5524,0.5395,0.5395,0.5395,0.5351,0.5216,0.5341,0.5347,0.5216,0.5344,0.5395,0.5395,0.5395,0.5395,0.5395,0.5395,0.5395,1.2503,1.2692,1.297,1.3737,1.3924,1.3924,1.3924,1.3894,1.3719,1.3212,1.2856,1.2638,1.2626,0.0,1.2554,1.3344,1.3936,1.4497,1.5091,1.5859,1.6369,0.0,0.0,0.0,0.0,0.0,0.0,1.7226,0.0,1.8477,1.849,1.9052,1.9417,1.9345,1.9417,1.9085,1.8497,1.8457,1.8156,1.7582,1.7582,1.7575,1.7549,1.7313,1.7018,1.6667,1.638,1.6092,1.5784,1.5784,1.5784,1.5784,1.5784,1.5784,1.5784,1.5784,1.5784,1.5744,1.5518,1.5217,1.4961,1.4616,1.4322,1.4088,1.4088,1.3913,1.3737,1.3695,1.3568,1.3398,1.3398,1.3385,1.3197,1.2497,1.232,1.2079,1.1301,1.1111,1.1111,1.1111,1.1111,1.1111,1.1111,1.1111,1.1186,1.1409,1.1216,1.0474,0.8865,0.8149,0.7782,0.7707,0.6985,0.6461,0.6429,0.5815,0.5458,0.5458,0.5458,0.5458,0.5491,0.5458,0.5458,0.5458,0.5425,0.5395,0.5395,0.5395,0.5395,0.5395,0.5395,0.5395,1.2911,1.3438,1.3942,1.4147,1.4195,1.4195,1.4195,1.3743,1.3224,1.288,1.2288,1.1724,1.1558,0.0,0.0,1.2813,1.3694,0.0,1.5656,1.6485,0.0,1.7224,0.0,1.7615,1.7382,1.7361,0.0,0.0,1.7975,1.8257,1.8477,1.9052,1.9265,1.9045,1.9252,1.9085,1.8497,1.8043,1.7736,1.7582,1.7582,1.7521,1.73,1.6954,1.666,1.6366,1.6072,1.5899,1.5784,1.5784,1.5784,1.5784,1.5784,1.5784,1.5784,1.5784,1.5784,1.5771,1.5698,1.5384,1.4961,1.4616,1.4322,1.4088,1.4088,1.4039,1.3955,1.3737,1.3652,1.361,1.344,1.3245,1.3004,1.2614,1.2373,1.2042,1.1446,1.1335,1.1298,1.1149,1.1111,1.1111,1.1111,1.1223,1.1409,1.1595,1.1507,1.0972,0.9677,0.9197,0.87,0.8009,0.7735,0.734,0.6687,0.6461,0.6301,0.6141,0.6141,0.6371,0.6863,0.6404,0.6141,0.6141,0.5653,0.5395,0.5395,0.5395,0.5395,0.5395,0.5395,0.5395,1.3393,1.3876,1.4298,1.4298,1.4298,1.4171,1.3707,1.3254,1.2729,1.1986,1.1447,0.0,1.0966,1.128,0.0,0.0,0.0,0.0,1.5645,1.6545,1.7231,0.0,1.8048,0.0,1.7996,1.7983,1.811,0.0,1.8317,1.837,1.8664,1.9118,1.9232,1.8931,1.9085,1.8891,1.8303,1.7822,1.7582,1.7582,1.7507,1.736,1.7186,1.6707,1.6426,1.6259,0.0,1.5784,1.5784,1.5784,1.5784,1.5784,1.5784,1.5784,1.5784,1.5784,1.5752,1.5638,1.5638,1.5257,1.4763,1.473,1.4429,1.4088,1.4088,1.4088,1.4088,1.3913,1.387,1.3864,1.3737,1.3584,1.3389,1.2982,1.2698,1.2376,1.1853,1.1652,1.1484,1.1409,1.1298,1.126,1.1335,1.1372,1.1484,1.1781,1.1793,1.152,1.0808,1.0282,0.9784,0.9242,0.8738,0.8248,0.7757,0.7144,0.6887,0.7083,0.6789,0.6892,0.7512,0.6887,0.6494,0.64,0.5752,0.5395,0.5395,0.5395,0.5425,0.5491,0.5491,0.5524,1.3888,1.4123,1.4298,1.4298,1.4244,1.3942,1.2982,1.265,1.2198,1.0936,0.0,1.0569,1.0533,1.0834,1.131,1.2083,0.0,1.3994,1.5433,1.6324,1.7182,1.8042,1.8384,1.8551,1.8551,1.851,1.8611,1.8905,1.8651,1.8617,1.8911,1.9165,1.9172,1.8878,1.8831,1.8508,1.7995,1.7736,1.7582,1.7582,1.734,1.7179,1.7125,1.6576,1.6301,1.6199,0.0,0.0,1.5784,1.5784,1.5784,1.5784,1.5784,1.5784,1.5784,1.5784,1.5671,1.5444,1.5411,1.5037,1.4616,1.4836,1.4579,1.4088,1.4088,1.4088,1.4088,1.4088,1.4088,1.4088,1.4088,1.4088,1.3966,1.3461,1.3164,1.2857,1.2344,1.1954,1.1706,1.1706,1.1558,1.1484,1.1669,1.1595,1.1595,1.1966,1.2003,1.2028,1.1957,1.1279,1.077,1.0731,0.9837,0.9154,0.9058,0.7929,0.7479,0.8091,0.7507,0.7377,0.7967,0.7307,0.685,0.6691,0.5914,0.5524,0.5524,0.5428,0.5458,0.5617,0.5617,0.5719,1.4159,1.4262,1.4298,1.4298,1.3972,1.3544,1.3101,1.2325,0.0,0.0,1.034,0.9973,0.9757,1.0286,1.0942,1.1531,1.2705,0.0,0.0,0.0,1.755,0.0,0.0,0.0,0.0,0.0,0.0,0.0,0.0,0.0,1.8911,1.8971,1.8865,1.8577,1.8323,1.8095,1.7995,1.7736,1.7582,1.7582,1.734,1.7072,1.6774,1.6426,1.6139,1.5905,0.0,0.0,1.5784,1.5784,1.5784,1.5784,1.5784,1.5784,1.5784,1.5784,1.5751,1.5718,1.5478,1.517,1.4901,1.4663,1.4369,1.4088,1.4088,1.4088,1.4088,1.4088,1.4088,1.4088,1.4088,1.4088,1.4015,1.3632,1.3519,1.33,1.2596,1.2061,1.1706,1.1706,1.1669,1.1669,1.1706,1.1818,1.1929,1.2003,1.215,1.2248,1.2231,1.1682,1.1188,1.0982,1.0567,1.004,0.93,0.9011,0.8877,0.8828,0.8544,0.871,0.9408,0.8619,0.8161,0.8129,0.6887,0.6235,0.6235,0.5653,0.5458,0.5617,0.5617,0.5719,1.4189,1.4298,1.4298,1.4298,1.3906,1.3338,1.2608,0.0,0.0,0.0,0.9552,0.9281,0.9293,0.9835,0.0,1.0984,1.2079,0.0,0.0,0.0,0.0,0.0,0.0,0.0,0.0,0.0,0.0,0.0,0.0,0.0,0.0,1.8582,1.8348,1.8263,1.7963,1.7802,1.7802,1.7655,1.7582,1.7575,1.7128,1.684,1.6693,1.6246,1.5965,1.5784,0.0,0.0,1.5784,1.5784,1.5784,1.5784,1.5784,1.5784,1.5784,1.5784,1.5684,1.5565,1.5271,1.4977,1.4683,1.4389,1.4202,1.4088,1.4088,1.4088,1.4088,1.4088,1.4088,1.4088,1.4088,1.4088,1.4048,1.3908,1.3641,1.3214,1.2532,1.2182,1.2003,1.2003,1.1929,1.1892,1.2003,1.2003,1.204,1.215,1.2224,1.2305,1.2305,1.1755,1.1335,1.1236,1.0854,1.0428,1.0009,0.9626,0.9518,0.9805,0.9384,0.939,1.0021,0.9338,0.8877,0.8775,0.7637,0.692,0.656,0.6141,0.5848,0.5752,0.5752,0.5888,1.4087,1.4256,1.4298,1.4298,1.3773,1.3025,1.2125,1.1128,0.0,0.0,0.889,0.8788,0.9047,0.9524,1.0077,0.0,1.1586,1.2706,0.0,0.0,0.0,0.0,0.0,0.0,0.0,0.0,0.0,0.0,0.0,0.0,0.0,1.8182,1.7896,1.7896,1.7709,1.7582,1.7582,1.7582,1.7549,1.7482,1.6961,1.6673,1.6593,1.6072,1.5784,1.5784,0.0,0.0,0.0,1.5784,1.5784,1.5784,1.5784,1.5784,1.5784,1.5784,1.5685,1.5444,1.5157,1.4863,1.4563,1.4275,1.4135,1.4088,1.4088,1.4088,1.4088,1.4088,1.4088,1.4088,1.4088,1.4088,1.4088,1.4088,1.3641,1.308,1.2599,1.2392,1.2305,1.2305,1.215,1.2114,1.2268,1.215,1.2114,1.2268,1.2305,1.2305,1.2305,1.1755,1.1389,1.1389,1.0909,1.0593,1.0593,1.0072,0.9977,1.0561,1.0009,0.9843,1.0269,0.976,0.9364,0.9224,0.8415,0.7735,0.7205,0.6883,0.6629,0.6408,0.6379,0.6478,1.3863,1.4117,1.4298,1.4298,1.3357,1.2337,1.1958,0.0,0.0,0.9173,0.889,0.8788,0.9047,0.9505,1.0063,1.0847,0.0,1.2747,0.0,0.0,0.0,0.0,0.0,0.0,0.0,0.0,0.0,0.0,0.0,0.0,0.0,1.7809,1.7622,1.7622,1.7595,1.7582,1.7582,1.7582,1.7501,1.7239,1.686,1.6567,1.6299,1.5979,1.5784,1.5784,0.0,0.0,0.0,1.5784,1.5784,1.5784,1.5784,1.5784,1.5784,1.5784,1.5764,1.5698,1.5458,1.5164,1.4921,1.4576,1.4302,1.4088,1.4088,1.4088,1.4088,1.4088,1.4088,1.4088,1.4088,1.4088,1.4088,1.4088,1.3641,1.3193,1.314,1.2692,1.2305,1.2305,1.2298,1.2268,1.2305,1.2268,1.2268,1.2305,1.2305,1.2305,1.2305,1.1755,1.1389,1.1389,1.0909,1.0593,1.0593,1.053,1.053,1.0593,1.0364,1.0238,1.0301,1.0079,0.9919,0.9919,0.9224,0.886,0.8796,0.8151,0.7892,0.7984,0.7999,0.7782,1.3513,1.3978,1.4256,1.4099,1.3181,1.2204,1.1742,0.0,0.9185,0.8921,0.8656,0.8582,0.8961,0.9327,0.9793,1.0513,1.1188,1.1997,1.3176,0.0,0.0,0.0,0.0,0.0,0.0,0.0,0.0,0.0,0.0,0.0,0.0,0.0,1.7582,1.7582,1.7582,1.7582,1.7582,1.7582,1.7522,1.7402,1.6934,1.6647,1.652,1.6046,1.5784,0.0,0.0,0.0,0.0,1.5784,1.5784,1.5784,1.5784,1.5784,1.5784,1.5784,1.5784,1.5738,1.5498,1.5204,1.4961,1.4616,1.4322,1.4088,1.4088,1.4088,1.4088,1.4088,1.4088,1.4088,1.4088,1.4088,1.4041,1.3861,1.3507,1.3213,1.3213,1.2732,1.2351,1.2569,1.2425,1.2305,1.2305,1.2305,1.2305,1.2305,1.2305,1.2305,1.2305,1.1944,1.169,1.169,1.1048,1.0593,1.0593,1.0593,1.0593,1.0593,1.053,1.0466,1.0466,1.0403,1.0371,1.0371,0.997,0.9582,0.9166,0.8801,0.8474,0.821,0.8215,0.8161,1.2868,1.3429,1.3779,1.3598,1.2747,1.186,0.0,1.013,0.8951,0.8842,0.8554,0.8478,0.9023,0.9313,0.9718,1.0371,1.0936,1.1621,1.2587,1.3668,0.0,0.0,0.0,0.0,0.0,0.0,0.0,0.0,0.0,0.0,0.0,0.0,1.7582,1.7582,1.7582,1.7582,1.7582,1.7582,1.7495,1.7321,1.6901,1.6613,1.6433,1.5971,1.5784,0.0,0.0,0.0,0.0,1.5784,1.5784,1.5784,1.5784,1.5784,1.5784,1.5784,1.5784,1.5751,1.5591,1.5277,1.4975,1.4716,1.4396,1.4088,1.4088,1.4088,1.4088,1.4088,1.4088,1.4088,1.4088,1.4088,1.4035,1.378,1.3513,1.3313,1.3227,1.2799,1.2509,1.263,1.2445,1.2305,1.2305,1.2305,1.2305,1.2305,1.2305,1.2305,1.2305,1.2087,1.1873,1.175,1.1142,1.072,1.072,1.064,1.0593,1.0593,1.0593,1.0593,1.0593,1.0593,1.0593,1.0593,1.0466,1.0174,0.969,0.955,0.9282,0.8924,0.8924,0.8865,1.1826,1.2324,1.2723,1.2717,1.1914,1.1123,1.1117,0.9853,0.8782,0.9041,0.868,0.8533,0.9265,0.9566,0.9918,1.0601,1.1166,1.1872,1.304,1.3794,0.0,0.0,0.0,0.0,0.0,0.0,0.0,0.0,0.0,0.0,0.0,0.0,1.7582,1.7582,1.7582,1.7582,1.7582,1.7582,1.7288,1.6714,1.6707,1.64,1.5791,1.5784,0.0,0.0,0.0,0.0,0.0,1.5784,1.5784,1.5784,1.5784,1.5784,1.5784,1.5784,1.5784,1.5784,1.5778,1.5444,1.5008,1.5008,1.4606,1.4088,1.4088,1.4088,1.4088,1.4088,1.4088,1.4088,1.4088,1.4088,1.4088,1.4082,1.3854,1.352,1.3273,1.3005,1.269,1.2365,1.2305,1.2305,1.2305,1.2305,1.2305,1.2305,1.2305,1.2305,1.2305,1.2087,1.1757,1.1429,1.1169,1.0989,1.0989,1.076,1.0593,1.0593,1.0593,1.0593,1.0593,1.0593,1.0593,1.0593,1.0593,1.0593,1.0593,1.0593,1.0593,1.0593,1.0593,1.0199,1.099,1.1624,1.2077,1.1709,1.1226,1.0713,1.0358,0.9462,0.8728,0.8812,0.8698,0.878,0.9479,0.9761,1.0168,1.1028,1.1506,0.0,0.0,0.0,0.0,0.0,0.0,0.0,0.0,0.0,0.0,0.0,0.0,0.0,0.0,0.0,0.0,1.7582,1.7582,1.7582,1.7582,1.7434,1.7246,1.7058,1.66,1.6313,1.6126,0.0,0.0,0.0,0.0,0.0,0.0,1.5784,1.5784,1.5784,1.5784,1.5784,1.5784,1.5784,1.5784,1.5784,1.5784,1.5451,1.5008,1.5008,1.4606,1.4088,1.4088,1.4088,1.4088,1.4088,1.4088,1.4088,1.4088,1.4088,1.4088,1.4088,1.382,1.3633,1.3788,1.3414,1.3033,1.2939,1.2752,1.2583,1.2338,1.2305,1.2305,1.2305,1.2305,1.2305,1.2305,1.2225,1.2051,1.1764,1.1463,1.1129,1.076,1.0646,1.0593,1.0593,1.0593,1.0593,1.0593,1.0593,1.0593,1.0593,1.0593,1.0593,1.0593,1.0593,1.0593,1.0593,1.0593,1.0199,0.9985,1.0527,1.0912,1.0569,1.0286,1.0003,0.9678,0.9059,0.859,0.8686,0.8632,0.8797,0.9546,0.978,1.0136,1.0956,1.1436,0.0,0.0,0.0,0.0,0.0,0.0,0.0,0.0,0.0,0.0,0.0,0.0,0.0,0.0,0.0,0.0,1.7474,1.7474,1.7474,1.7474,1.7179,1.6978,1.6864,1.6496,1.6213,1.6099,0.0,0.0,0.0,0.0,0.0,0.0,1.5784,1.5784,1.5784,1.5784,1.5784,1.5784,1.5784,1.5784,1.5784,1.5784,1.5451,1.5008,1.5008,1.4606,1.4088,1.4088,1.4088,1.4088,1.4088,1.4088,1.4088,1.4088,1.4088,1.4055,1.3948,1.3868,1.3768,1.3655,1.3387,1.314,1.2913,1.2712,1.2556,1.2338,1.2305,1.2305,1.2305,1.2305,1.2305,1.2305,1.2305,1.2151,1.1744,1.1536,1.1189,1.064,1.0593,1.0593,1.0593,1.0593,1.0593,1.0593,1.0593,1.0593,1.0593,1.0593,1.0593,1.0593,1.0593,1.0593,1.0593,1.0593,1.0364,0.0,0.9215,0.9456,0.9432,0.9245,0.9065,0.9047,0.8668,0.0,0.8632,0.8487,0.8602,0.957,0.9653,0.9847,1.0589,0.0,0.0,0.0,0.0,0.0,0.0,0.0,0.0,0.0,0.0,0.0,0.0,0.0,0.0,0.0,0.0,0.0,0.0,1.7152,1.7152,1.7166,1.6827,1.654,1.6321,1.6301,1.6092,1.5784,0.0,0.0,0.0,0.0,0.0,0.0,1.5784,1.5784,1.5784,1.5784,1.5784,1.5784,1.5784,1.5764,1.5751,1.5751,1.5418,1.4975,1.4955,1.4579,1.4088,1.4088,1.4088,1.4088,1.4088,1.4088,1.4088,1.4088,1.4088,1.4015,1.3673,1.3854,1.3821,1.3005,1.3006,1.3039,1.2445,1.2338,1.2325,1.2305,1.2305,1.2305,1.2305,1.2305,1.2305,1.2305,1.2285,1.2051,1.1455,1.1375,1.1169,1.064,1.0593,1.0593,1.0593,1.0593,1.0593,1.0593,1.0593,1.0593,1.0593,1.0593,1.0593,1.0593,1.0593,1.0593,1.0593,1.0593,1.0593,0.7969,0.0,0.8848,0.8621,0.8698,0.8746,0.0,0.8375,0.8303,0.8369,0.8333,0.8657,0.9787,0.9817,1.0174,1.1662,0.0,0.0,0.0,0.0,0.0,0.0,0.0,0.0,0.0,0.0,0.0,0.0,0.0,0.0,0.0,0.0,0.0,0.0,1.6643,1.6587,1.6807,1.652,1.6339,1.6321,1.6046,1.5899,0.0,0.0,0.0,0.0,0.0,0.0,0.0,1.5784,1.5784,1.5784,1.5784,1.5784,1.5784,1.5784,1.5691,1.5498,1.5498,1.5117,1.4589,1.4362,1.4202,1.4088,1.4088,1.4088,1.4088,1.4088,1.4088,1.4088,1.4088,1.4088,1.4015,1.3673,1.3653,1.3627,1.3193,1.316,1.31,1.275,1.2683,1.2603,1.2345,1.2305,1.2305,1.2305,1.2305,1.2305,1.2305,1.2104,1.183,1.1429,1.1229,1.0949,1.062,1.0593,1.0593,1.0593,1.0593,1.0593,1.0593,1.0593,1.0593,1.0593,1.0593,1.0593,1.0593,1.0593,1.0593,1.0593,1.0593,1.0593,0.7601,0.813,0.8674,0.853,0.8602,0.8674,0.853,0.8285,0.8111,0.8111,0.8207,0.8602,0.9557,0.9822,1.0322,0.0,0.0,0.0,0.0,0.0,0.0,0.0,0.0,0.0,0.0,0.0,0.0,0.0,0.0,0.0,0.0,0.0,0.0,0.0,0.0,1.6213,1.6506,1.6213,1.6072,1.6066,1.5905,1.5784,0.0,0.0,0.0,0.0,0.0,0.0,1.5784,1.5784,1.5784,1.5784,1.5784,1.5784,1.5764,1.5678,1.5531,1.5378,1.5244,1.4903,1.4476,1.4182,1.4088,1.4088,1.4088,1.4088,1.4088,1.4088,1.4088,1.4088,1.4088,1.4088,1.4015,1.3673,1.36,1.3487,1.3093,1.3038,1.2945,1.2636,1.2583,1.2529,1.2331,1.2305,1.2305,1.2305,1.2191,1.2151,1.2285,1.2087,1.1757,1.1422,1.141,1.1223,1.0827,1.0787,1.0734,1.06,1.0593,1.0593,1.0593,1.0593,1.0593,1.0593,1.0593,1.0593,1.0593,1.0593,1.0593,1.0593,1.0593,1.0593,0.7522,0.8154,0.8746,0.8668,0.871,0.8758,0.8716,0.8339,0.8021,0.8021,0.8195,0.8596,0.9358,0.9861,0.0,0.0,0.0,0.0,0.0,0.0,0.0,0.0,0.0,0.0,0.0,0.0,0.0,0.0,0.0,0.0,0.0,0.0,0.0,0.0,0.0,0.0,1.6206,1.5952,1.5784,1.5784,1.5784,1.5784,1.5784,0.0,0.0,0.0,0.0,0.0,1.5784,1.5784,1.5784,1.5784,1.5784,1.5751,1.5732,1.5484,1.5337,1.5224,1.4975,1.4669,1.4409,1.4168,1.4088,1.4088,1.4088,1.4088,1.4088,1.4088,1.4088,1.4088,1.4088,1.4088,1.4015,1.3673,1.3573,1.3387,1.2904,1.275,1.2643,1.2351,1.2305,1.2305,1.2305,1.2305,1.2305,1.2305,1.2091,1.2024,1.2271,1.2087,1.177,1.1523,1.1677,1.1631,1.1102,1.1056,1.0955,1.074,1.068,1.066,1.066,1.066,1.064,1.0593,1.0593,1.0593,1.0593,1.0593,1.0593,1.0593,1.0593,1.0593,0.7522,0.8293,0.8933,0.8487,0.871,0.8981,0.8758,0.8644,0.859,0.859,0.862,0.8986,1.0104,1.0378,1.091,0.0,0.0,0.0,0.0,0.0,0.0,0.0,0.0,0.0,0.0,0.0,0.0,0.0,0.0,0.0,0.0,0.0,0.0,0.0,0.0,0.0,0.0,1.5852,1.5784,1.5784,1.5784,1.5784,1.5784,1.5784,0.0,0.0,0.0,0.0,1.5784,1.5784,1.5784,1.5784,1.5784,1.5678,1.5458,1.5418,1.5084,1.4609,1.4322,1.4195,1.4142,1.4102,1.4088,1.4088,1.4088,1.4088,1.4088,1.4088,1.4088,1.4088,1.4088,1.4088,1.4015,1.3673,1.3413,1.318,1.2857,1.2583,1.2358,1.2311,1.2305,1.2305,1.2305,1.2305,1.2305,1.2305,1.2265,1.2251,1.2291,1.2087,1.1886,1.1839,1.1617,1.1456,1.1335,1.1329,1.1302,1.1296,1.1062,1.0929,1.0929,1.0929,1.0847,1.0593,1.0593,1.0593,1.0593,1.0593,1.0593,1.0593,1.0593,1.0593,0.7273,0.8003,0.8686,0.8728,0.9245,0.9715,0.9594,0.9348,0.9143,0.9143,0.9257,0.9595,0.0,0.0,1.1903,1.3973,0.0,0.0,0.0,0.0,0.0,0.0,0.0,0.0,0.0,0.0,0.0,0.0,0.0,0.0,0.0,0.0,0.0,0.0,0.0,0.0,0.0,1.5784,1.5784,1.5784,1.5784,1.5784,1.5784,1.5784,1.5784,0.0,0.0,1.5784,1.5784,1.5784,1.5784,1.5764,1.5658,1.5518,1.5357,1.5037,1.4656,1.4269,1.4135,1.4088,1.4088,1.4088,1.4088,1.4088,1.4088,1.4088,1.4088,1.4088,1.4088,1.4088,1.4088,1.4088,1.4055,1.3915,1.354,1.3173,1.3026,1.2632,1.2305,1.2305,1.2305,1.2305,1.2305,1.2305,1.2305,1.2305,1.2171,1.2124,1.2278,1.2087,1.1906,1.1906,1.1891,1.1837,1.1677,1.1663,1.153,1.1209,1.1062,1.0922,1.0801,1.0787,1.0727,1.0593,1.0593,1.0593,1.0593,1.0593,1.0593,1.0593,1.0593,1.0593,0.7054,0.7689,0.8339,0.8951,0.9654,1.0238,1.0358,1.0027,0.9733,0.9859,1.0073,1.0383,0.0,1.1503,0.0,0.0,0.0,0.0,0.0,0.0,0.0,0.0,0.0,0.0,0.0,0.0,0.0,0.0,0.0,0.0,0.0,0.0,0.0,0.0,0.0,0.0,0.0,1.5784,1.5784,1.5784,1.5784,1.5784,1.5784,1.5784,1.5784,1.5784,1.5784,1.5744,1.5732,1.5732,1.5691,1.5605,1.5384,1.5251,1.513,1.4609,1.4282,1.4088,1.4088,1.4088,1.4088,1.4088,1.4088,1.4088,1.4088,1.4088,1.4088,1.4088,1.4088,1.4088,1.4088,1.4088,1.4088,1.4088,1.3641,1.3213,1.3213,1.2732,1.2305,1.2305,1.2305,1.2305,1.2305,1.2305,1.2305,1.2305,1.2118,1.2087,1.2271,1.2104,1.2007,1.2007,1.2171,1.2184,1.1933,1.1906,1.1651,1.1029,1.1056,1.0962,1.0707,1.0693,1.066,1.0593,1.0593,1.0593,1.0593,1.0593,1.0593,1.0593,1.0593,1.0593,0.7054,0.7562,0.8111,0.8903,0.9516,1.0063,1.0545,1.0442,1.0376,1.0863,1.1206,1.1439,0.0,1.2413,0.0,0.0,0.0,0.0,0.0,0.0,0.0,0.0,0.0,0.0,0.0,0.0,0.0,0.0,0.0,0.0,0.0,0.0,0.0,0.0,0.0,0.0,0.0,0.0,1.5784,1.5784,1.5784,1.5784,1.5784,1.5784,1.5784,1.5784,1.5784,1.5678,1.5431,1.5431,1.5271,1.5068,1.5048,1.4823,1.4543,1.4235,1.4108,1.4088,1.4088,1.4088,1.4088,1.4088,1.4088,1.4088,1.4088,1.4088,1.4088,1.4088,1.4088,1.4088,1.4088,1.4088,1.4088,1.4088,1.3641,1.3213,1.3213,1.2732,1.2305,1.2305,1.2305,1.2305,1.2305,1.2305,1.2305,1.2305,1.2285,1.2278,1.2298,1.2285,1.2271,1.2271,1.2291,1.2184,1.1933,1.1906,1.1651,1.1029,1.1243,1.1263,1.0975,1.0962,1.0835,1.0593,1.0593,1.0593,1.0593,1.0593,1.0593,1.0593,1.0593,1.0593,0.686,0.7538,0.8255,0.874,0.951,1.0286,1.0846,1.0888,1.0966,1.1504,1.1696,1.1852,0.0,0.0,0.0,0.0,0.0,0.0,0.0,0.0,0.0,0.0,0.0,0.0,0.0,0.0,0.0,0.0,0.0,0.0,0.0,0.0,0.0,0.0,0.0,0.0,0.0,0.0,1.5784,1.5784,1.5784,1.5784,1.5784,1.5784,1.5784,1.5771,1.5638,1.5498,1.5384,1.5204,1.5109,1.4988,1.4763,1.4509,1.4242,1.4128,1.4088,1.4088,1.4088,1.4088,1.4088,1.4088,1.4088,1.4088,1.4088,1.4088,1.4048,1.3861,1.3941,1.4088,1.4088,1.3948,1.3808,1.3808,1.3353,1.2958,1.2958,1.2599,1.2305,1.2305,1.2305,1.2305,1.2305,1.2305,1.2305,1.2305,1.2305,1.2305,1.2305,1.2305,1.2305,1.2305,1.2305,1.2258,1.2144,1.2013,1.1697,1.1289,1.1196,1.1022,1.0767,1.0754,1.0707,1.0593,1.0593,1.0593,1.0593,1.0593,1.0593,1.0593,1.0593,1.0593,0.6884,0.7599,0.8397,0.874,0.951,1.0352,1.1087,1.1244,1.1419,1.2041,1.2081,1.2215,1.2922,0.0,0.0,0.0,0.0,0.0,0.0,0.0,0.0,0.0,0.0,0.0,0.0,0.0,0.0,0.0,0.0,0.0,0.0,0.0,0.0,0.0,0.0,0.0,0.0,0.0,1.6378,1.5963,1.6234,1.6339,1.6251,1.5873,1.5826,1.6126,1.5522,1.5204,1.5104,1.4903,1.494,1.5094,1.4924,1.4887,1.4901,1.4901,1.4741,1.4496,1.4496,1.4334,1.4088,1.4088,1.4088,1.4088,1.4088,1.4088,1.4021,1.3686,1.3753,1.3948,1.3948,1.3868,1.3693,1.3507,1.3193,1.2904,1.2804,1.2549,1.2305,1.2305,1.2305,1.2305,1.2305,1.2305,1.2335,1.2378,1.2378,1.2345,1.2287,1.2355,1.2345,1.2178,1.2078,1.2024,1.2024,1.1844,1.1603,1.1309,1.1136,1.0927,1.06,1.0593,1.0593,1.0593,1.0593,1.0624,1.0649,1.0649,1.0688,1.0751,1.0751,1.0751,0.72,0.7737,0.8439,0.8963,0.951,1.019,1.1248,1.1495,1.1718,1.2542,1.2453,1.2615,1.3849,0.0,0.0,0.0,0.0,0.0,0.0,0.0,0.0,0.0,0.0,0.0,0.0,0.0,0.0,0.0,0.0,0.0,0.0,0.0,0.0,0.0,0.0,0.0,0.0,0.0,1.7563,1.6308,1.7172,1.7481,1.7257,1.5982,1.5975,1.6799,1.5566,1.4796,1.4522,1.4516,1.4843,1.5436,1.565,1.6139,1.6698,1.6698,1.6165,1.5394,1.5394,1.4824,1.4088,1.4088,1.4088,1.4088,1.413,1.413,1.4021,1.3721,1.3641,1.36,1.3586,1.3854,1.3935,1.3347,1.3206,1.312,1.2844,1.2549,1.2305,1.2305,1.2305,1.2305,1.2305,1.2305,1.2378,1.2562,1.2599,1.249,1.2231,1.2451,1.241,1.1975,1.161,1.1395,1.1395,1.1395,1.1303,1.1015,1.112,1.1018,1.0638,1.0593,1.0593,1.0593,1.0593,1.0688,1.0807,1.0807,1.0902,1.109,1.109,1.109,0.7024,0.7599,0.8369,0.874,0.9642,1.0635,1.1333,1.1633,1.2015,1.2837,1.3497,1.3857,1.3609,0.0,0.0,0.0,0.0,0.0,0.0,0.0,0.0,0.0,0.0,0.0,0.0,0.0,0.0,0.0,0.0,0.0,0.0,0.0,0.0,0.0,0.0,0.0,0.0,0.0,0.0,1.7419,1.768,1.7404,1.6593,1.6192,1.6186,1.6432,1.5167,1.4603,1.4546,1.512,1.5551,1.5876,1.6576,1.6854,1.6927,1.6927,1.6281,1.5394,1.5394,1.4824,1.4088,1.4088,1.4208,1.4447,1.5054,1.502,1.4863,1.5207,1.4717,1.3988,1.3632,1.351,1.3427,1.3253,1.2886,1.2545,1.2452,1.2365,1.2305,1.2305,1.2305,1.2305,1.2305,1.2415,1.2526,1.2599,1.253,1.2429,1.2339,1.2408,1.2512,1.2601,1.2496,1.2447,1.2447,1.2089,1.1805,1.1715,1.1332,1.0967,1.06,1.0681,1.0713,1.0593,1.0681,1.0776,1.0807,1.0933,1.1028,1.109,1.109,1.109,0.7575,0.8223,0.9011,0.9275,1.0178,1.117,1.1814,1.2079,0.0,0.0,1.3584,1.3937,1.4104,0.0,0.0,0.0,0.0,0.0,0.0,0.0,0.0,0.0,0.0,0.0,0.0,0.0,0.0,0.0,0.0,0.0,0.0,0.0,0.0,0.0,0.0,0.0,0.0,0.0,0.0,0.0,1.8531,1.8154,1.7199,1.6911,1.6972,1.7259,1.5655,1.4971,1.5035,1.5717,1.6404,1.709,1.7747,1.806,1.8141,1.8141,1.7455,1.6568,1.6568,1.576,1.4783,1.5144,1.5137,1.515,1.5858,1.5924,1.574,1.5837,1.5284,1.4585,1.4052,1.367,1.3345,1.2929,1.2659,1.2445,1.2325,1.2305,1.2305,1.2305,1.2378,1.2415,1.2415,1.2599,1.2746,1.282,1.267,1.2593,1.2713,1.2438,1.2375,1.2719,1.2606,1.2536,1.2536,1.2193,1.1927,1.1801,1.1549,1.1185,1.0814,1.087,1.087,1.0814,1.087,1.0965,1.0989,1.1122,1.1216,1.131,1.131,1.131,0.8481,0.9203,0.9901,1.019,1.0882,1.1682,1.2463,1.265,1.2808,1.3258,0.0,0.0,0.0,0.0,0.0,0.0,0.0,0.0,0.0,0.0,0.0,0.0,0.0,0.0,0.0,0.0,0.0,0.0,0.0,0.0,0.0,0.0,0.0,0.0,0.0,0.0,0.0,0.0,0.0,0.0,0.0,1.9539,1.8767,1.7961,1.8037,1.8659,1.6676,1.5842,1.5902,1.6419,1.744,1.8687,1.9036,1.9423,1.9894,1.9932,1.9225,1.8297,1.8332,1.7261,1.5966,1.6724,1.6586,1.6164,1.6641,1.6785,1.6619,1.603,1.5646,1.5262,1.4797,1.4315,1.368,1.2703,1.2617,1.2708,1.2432,1.2342,1.2305,1.2335,1.2489,1.2599,1.2599,1.2783,1.3003,1.3157,1.2985,1.2906,1.3157,1.2543,1.2213,1.2565,1.2304,1.2121,1.2093,1.2065,1.191,1.1568,1.1689,1.1578,1.1167,1.1122,1.1122,1.109,1.1122,1.1185,1.1303,1.1334,1.1435,1.1591,1.1591,1.1591,0.7909,0.8534,0.939,0.9871,1.0749,1.1591,1.1964,1.2246,1.2541,1.3051,0.0,0.0,0.0,0.0,0.0,0.0,0.0,0.0,0.0,0.0,0.0,0.0,0.0,0.0,0.0,0.0,0.0,0.0,0.0,0.0,0.0,0.0,0.0,0.0,0.0,0.0,0.0,0.0,0.0,0.0,2.0137,2.0216,2.0128,1.8918,1.8108,1.7613,1.7,1.6927,1.7334,1.8109,1.8727,1.9213,1.9971,2.0004,1.9726,2.0062,1.9295,1.8113,1.8413,1.7827,1.6928,1.6788,1.6778,1.6878,1.7327,1.7268,1.7113,1.7649,1.6964,1.6069,1.5928,1.5407,1.4708,1.3854,1.3118,1.2681,1.276,1.2526,1.2342,1.2489,1.2562,1.2599,1.2599,1.29,1.3107,1.3041,1.2982,1.296,1.3033,1.2882,1.2918,1.3244,1.3223,1.3078,1.2824,1.2535,1.2246,1.192,1.1738,1.1602,1.1505,1.1341,1.1216,1.109,1.1216,1.1272,1.1303,1.1466,1.156,1.1591,1.1591,1.1591,0.8033,0.8709,0.9518,1.0406,0.0,1.1717,1.1979,1.2069,1.2208,1.2595,0.0,0.0,0.0,0.0,0.0,0.0,0.0,0.0,0.0,0.0,0.0,0.0,0.0,0.0,0.0,0.0,0.0,0.0,0.0,0.0,0.0,0.0,0.0,0.0,0.0,0.0,2.0233,2.0413,2.0506,2.045,2.045,2.0489,2.0566,1.9766,1.8877,1.7908,1.794,1.8101,1.839,1.8926,1.945,1.9952,2.0178,2.0041,1.9733,1.98,1.9364,1.8801,1.9012,1.8676,1.8129,1.8091,1.7928,1.7823,1.8046,1.7976,1.7877,1.8129,1.7612,1.6897,1.6655,1.6228,1.571,1.4966,1.4034,1.3215,1.2966,1.2996,1.3135,1.3251,1.3361,1.3397,1.3397,1.3368,1.3324,1.3265,1.3243,1.3243,1.3243,1.3243,1.3445,1.3962,1.4013,1.3876,1.3569,1.3504,1.3195,1.2529,1.2508,1.2505,1.2505,1.2405,1.2158,1.1787,1.2158,1.2343,1.2343,1.2474,1.2505,1.2505,1.2505,1.2505,0.8058,0.8896,0.9794,1.1068,1.1558,0.0,1.1996,1.2016,1.1973,0.0,0.0,0.0,0.0,0.0,0.0,0.0,0.0,0.0,0.0,0.0,0.0,0.0,0.0,0.0,0.0,0.0,0.0,0.0,0.0,0.0,0.0,0.0,0.0,0.0,0.0,0.0,2.0419,2.0858,2.0937,2.0605,2.0605,2.0605,2.0605,2.0411,1.9854,1.8957,1.9155,1.9244,1.9274,1.9376,1.9866,2.0556,2.001,1.9805,1.9766,1.9414,1.9401,1.9552,1.9552,1.9391,1.9178,1.9373,1.9052,1.8573,1.8511,1.849,1.8422,1.8105,1.7896,1.7638,1.7226,1.6985,1.6673,1.6062,1.518,1.4286,1.3542,1.3825,1.4214,1.425,1.4266,1.4266,1.4165,1.3775,1.3492,1.3492,1.3492,1.3492,1.3492,1.3601,1.3912,1.4537,1.4708,1.467,1.435,1.4505,1.4202,1.3252,1.34,1.3511,1.3511,1.3593,1.3411,1.2848,1.329,1.3511,1.3511,1.3511,1.3511,1.3511,1.3511,1.3511,0.6759,0.8084,0.9724,0.0,1.134,1.1405,0.0,0.0,0.0,0.0,0.0,0.0,0.0,0.0,0.0,0.0,0.0,0.0,0.0,0.0,0.0,0.0,0.0,0.0,0.0,0.0,0.0,0.0,0.0,0.0,0.0,0.0,0.0,0.0,0.0,0.0,2.0841,2.0742,2.0664,2.0605,2.0605,2.0605,2.0605,2.0566,2.0489,2.0323,2.0177,2.0216,2.0372,1.9965,2.0148,2.0527,1.9678,1.9375,1.9365,1.9307,1.9326,1.9338,1.9338,1.9537,1.9675,1.8964,1.8666,1.8534,1.8208,1.8096,1.8086,1.8027,1.7974,1.794,1.7872,1.7828,1.7623,1.6906,1.6611,1.6298,1.549,1.5171,1.5092,1.5286,1.476,1.4165,1.3674,1.3564,1.3492,1.3492,1.3492,1.3492,1.3492,1.4049,1.4502,1.4601,1.5171,1.5452,1.5155,1.4813,1.4396,1.3981,1.3677,1.3511,1.3511,1.4052,1.4312,1.4222,1.3743,1.3511,1.3511,1.3511,1.3511,1.3511,1.3511,1.3511,0.7074,0.8512,0.9886,0.0,1.1204,1.1468,1.1525,0.0,0.0,0.0,0.0,0.0,0.0,0.0,0.0,0.0,0.0,0.0,0.0,0.0,0.0,0.0,0.0,0.0,0.0,0.0,0.0,0.0,0.0,0.0,0.0,2.0082,2.0385,2.0265,2.0573,0.0,2.0751,2.0625,2.0605,2.0605,2.0605,2.0605,2.0605,2.0605,2.0605,2.0605,2.0489,2.0352,2.0185,1.999,1.9893,1.9822,1.917,1.8926,1.8896,1.8662,1.8721,1.8926,1.8926,1.9209,1.9463,1.8802,1.8598,1.852,1.8135,1.8008,1.8008,1.8008,1.8008,1.8008,1.8008,1.8008,1.7906,1.7579,1.751,1.7407,1.7054,1.655,1.6193,1.6263,1.5991,1.5428,1.4294,1.4122,1.3985,1.3564,1.3492,1.3637,1.4049,1.4394,1.4922,1.5807,1.6193,1.6305,1.6204,1.6181,1.5904,1.5313,1.5305,1.5201,1.496,1.5468,1.5495,1.501,1.4697,1.4549,1.4549,1.4549,1.4549,1.4549,1.4549,1.4549,0.7306,0.0,0.9491,1.0334,1.0955,1.1362,0.0,0.0,0.0,0.0,0.0,0.0,0.0,0.0,0.0,0.0,0.0,0.0,0.0,0.0,0.0,0.0,0.0,0.0,0.0,0.0,0.0,0.0,0.0,0.0,0.0,1.9716,1.9985,1.9985,2.0129,2.0206,2.0282,2.0282,2.0282,2.0282,2.0282,2.0282,2.0282,2.0282,2.0282,2.0282,2.039,2.0156,1.9746,1.9639,1.9473,1.9238,1.8656,1.851,1.8549,1.8164,1.8237,1.8588,1.8481,1.8724,1.9053,1.8578,1.8442,1.8383,1.8105,1.8008,1.8008,1.8008,1.8008,1.8008,1.8008,1.8008,1.8008,1.8008,1.8008,1.8008,1.8008,1.7579,1.7113,1.6932,1.6897,1.6402,1.4887,1.4601,1.4366,1.3601,1.3492,1.3775,1.4502,1.4744,1.5419,1.6759,1.7079,1.7182,1.7182,1.7307,1.7133,1.6542,1.6632,1.6582,1.625,1.6553,1.6336,1.5596,1.5576,1.5527,1.541,1.541,1.541,1.541,1.541,1.541,0.6654,0.7387,0.0,0.9725,1.0401,0.0,0.0,0.0,0.0,0.0,0.0,0.0,0.0,0.0,0.0,0.0,0.0,0.0,0.0,0.0,0.0,0.0,0.0,0.0,0.0,0.0,0.0,0.0,0.0,0.0,1.8471,1.8851,1.9072,1.9072,1.9072,1.9172,1.9355,1.9355,1.9355,1.9355,1.9355,1.9355,1.9355,1.9355,1.9355,1.9375,1.9775,1.9707,1.9287,1.8831,1.8936,1.9209,1.8369,1.8247,1.8549,1.8164,1.8237,1.8549,1.8149,1.8286,1.8568,1.8149,1.8047,1.8037,1.8018,1.8008,1.8008,1.8008,1.8008,1.8008,1.8008,1.8008,1.8008,1.8008,1.8008,1.8008,1.8008,1.7974,1.7725,1.7044,1.6897,1.6402,1.4887,1.4601,1.4366,1.3601,1.3492,1.3775,1.4502,1.5207,1.5956,1.6828,1.7545,1.794,1.794,1.7627,1.7383,1.734,1.6941,1.6687,1.6668,1.6687,1.6514,1.6065,1.6056,1.585,1.541,1.541,1.541,1.541,1.541,1.541,0.5688,0.0,0.0,0.834,0.9221,0.9949,0.0,0.0,0.0,0.0,0.0,0.0,0.0,0.0,0.0,0.0,0.0,0.0,0.0,0.0,0.0,0.0,0.0,0.0,0.0,0.0,0.0,0.0,0.0,0.0,1.8784,1.9041,1.9178,1.9178,1.9178,1.9214,1.9287,1.9287,1.9287,1.9287,1.9287,1.9287,1.9287,1.9287,1.9131,1.8841,1.8987,1.8968,1.8857,1.8666,1.8539,1.8437,1.8135,1.8105,1.8213,1.8066,1.8105,1.8178,1.8057,1.8105,1.8178,1.8057,1.8008,1.8008,1.8008,1.8008,1.8008,1.8008,1.8008,1.8008,1.8008,1.8008,1.8008,1.8008,1.8008,1.8008,1.8008,1.8008,1.7906,1.7657,1.7613,1.7295,1.6263,1.6088,1.5807,1.5037,1.4903,1.518,1.5983,1.6298,1.6768,1.751,1.7828,1.8008,1.8008,1.7871,1.7793,1.7793,1.7637,1.7432,1.7168,1.7412,1.708,1.6114,1.6348,1.6133,1.541,1.541,1.541,1.541,1.541,1.541,0.4973,0.0,0.0,0.0,0.0,0.9007,0.0,0.0,0.0,0.0,0.0,0.0,0.0,0.0,0.0,0.0,0.0,0.0,0.0,0.0,0.0,0.0,0.0,0.0,0.0,0.0,0.0,0.0,0.0,0.0,1.8572,1.875,1.8857,1.8857,1.8857,1.8857,1.8857,1.8857,1.8857,1.8857,1.8857,1.8857,1.8857,1.8857,1.8701,1.8393,1.8393,1.8393,1.8393,1.8393,1.8227,1.8008,1.8008,1.8008,1.8008,1.8008,1.8008,1.8008,1.8008,1.8008,1.8008,1.8008,1.8008,1.8008,1.8008,1.8008,1.8008,1.8008,1.8008,1.8008,1.8008,1.8008,1.8008,1.8008,1.8008,1.8008,1.8008,1.8008,1.8008,1.8008,1.8008,1.7759,1.7044,1.6897,1.662,1.5816,1.571,1.5983,1.6793,1.6897,1.7182,1.7906,1.8008,1.8008,1.8008,1.8008,1.8008,1.8008,1.8008,1.7881,1.7607,1.7861,1.7461,1.6309,1.6551,1.6268,1.541,1.541,1.541,1.541,1.541,1.5449,0.0,0.0,0.0,0.0,0.0,0.0,0.0,0.0,0.0,0.0,0.0,0.0,0.0,0.0,0.0,0.0,0.0,0.0,0.0,0.0,0.0,0.0,0.0,0.0,0.0,0.0,0.0,0.0,0.0,1.7706,1.7706,1.7896,1.8008,1.8008,1.8008,1.8008,1.8008,1.8008,1.8008,1.8008,1.8008,1.8008,1.8008,1.8008,1.8008,1.8008,1.8008,1.8008,1.8008,1.8008,1.8008,1.8008,1.8008,1.8008,1.8008,1.8008,1.8008,1.8008,1.8008,1.8008,1.8008,1.8008,1.8008,1.8008,1.8008,1.8008,1.8008,1.8008,1.8008,1.8008,1.8008,1.8008,1.8008,1.8008,1.8008,1.8008,1.8008,1.8008,1.8008,1.8008,1.8008,1.7759,1.7044,1.6941,1.6655,1.5886,1.5781,1.6062,1.6828,1.6941,1.7226,1.794,1.8008,1.8008,1.8008,1.8008,1.8008,1.8008,1.8008,1.8008,1.8008,1.7998,1.7598,1.6716,1.6687,1.6258,1.541,1.541,1.541,1.541,1.541,1.5507,0.4009,0.0,0.0,0.0,0.0,0.0,0.0,0.0,0.0,0.0,0.0,0.0,0.0,0.0,0.0,0.0,0.0,0.0,0.0,0.0,0.0,0.0,0.0,0.0,0.0,0.0,0.0,0.0,0.0,1.794,1.794,1.7974,1.8008,1.8008,1.8008,1.8008,1.8008,1.8008,1.8008,1.8008,1.8008,1.8008,1.8008,1.8008,1.8008,1.8008,1.8008,1.8008,1.8008,1.8008,1.8008,1.8008,1.8008,1.8008,1.8008,1.8008,1.8008,1.8008,1.8008,1.8008,1.8008,1.8008,1.8008,1.8008,1.8008,1.8008,1.8008,1.8008,1.8008,1.8008,1.8008,1.8008,1.8008,1.8008,1.8008,1.8008,1.8008,1.8008,1.8008,1.8008,1.8008,1.794,1.7725,1.7691,1.7623,1.7407,1.7373,1.7442,1.7691,1.7691,1.7759,1.7974,1.8008,1.8008,1.8008,1.8008,1.8008,1.8008,1.8008,1.8008,1.8008,1.7715,1.7295,1.6716,1.6416,1.5977,1.541,1.541,1.541,1.541,1.5546,1.5643,0.4129,0.4312,0.0,0.0,0.0,0.0,0.0,0.0,0.0,0.0,0.0,0.0,0.0,0.0,0.0,0.0,0.0,0.0,0.0,0.0,0.0,0.0,0.0,0.0,0.0,0.0,0.0,0.0,1.7512,1.7447,1.7447,1.7447,1.7559,1.7744,1.7744,1.7832,1.8008,1.8008,1.8008,1.8008,1.7832,1.7842,1.8008,1.7832,1.7842,1.8008,1.8008,1.8008,1.8008,1.8008,1.8008,1.8008,1.8008,1.8008,1.8008,1.8008,1.8008,1.8008,1.8008,1.8008,1.8008,1.8008,1.8008,1.8008,1.8008,1.8008,1.8008,1.8008,1.8008,1.8008,1.8008,1.8008,1.8008,1.8008,1.8008,1.8008,1.8008,1.8008,1.8008,1.8008,1.8008,1.8008,1.8008,1.8008,1.8008,1.8008,1.8008,1.8008,1.8008,1.8008,1.8008,1.8008,1.8008,1.8008,1.8008,1.8008,1.8008,1.8008,1.8008,1.8008,1.8008,1.7664,1.7265,1.6833,1.6453,1.6039,1.5604,1.5478,1.5449,1.5546,1.5643,1.5759,0.4582,0.4694,0.4893,0.0,0.0,0.0,0.6939,0.7395,0.0,0.0,0.0,0.0,0.0,0.0,0.0,0.0,0.0,0.0,0.0,0.0,0.0,0.0,0.0,0.0,0.0,0.0,0.0,1.7314,1.6953,1.6697,1.6697,1.6697,1.6882,1.7305,1.7314,1.751,1.7939,1.7891,1.7891,1.7939,1.751,1.751,1.7852,1.748,1.7539,1.7939,1.7939,1.7969,1.8008,1.8008,1.8008,1.8008,1.8008,1.8008,1.8008,1.8008,1.8008,1.8008,1.8008,1.8008,1.8008,1.8008,1.8008,1.8008,1.8008,1.8008,1.8008,1.8008,1.8008,1.8008,1.8008,1.8008,1.8008,1.8008,1.8008,1.8008,1.8008,1.8008,1.8008,1.8008,1.8008,1.8008,1.8008,1.8008,1.8008,1.8008,1.8008,1.8008,1.8008,1.8008,1.8008,1.8008,1.8008,1.8008,1.8008,1.8008,1.8008,1.8008,1.8008,1.7988,1.7973,1.7675,1.7338,1.6943,1.6627,1.6277,1.5885,1.5604,1.5546,1.5711,1.573,1.5865,0.482,0.4969,0.5159,0.4922,0.0,0.0,0.0,0.6097,0.0,0.0,0.0,0.0,0.0,0.0,0.0,0.0,0.0,0.0,0.0,0.0,0.0,0.0,0.0,0.0,0.0,0.0,1.6549,1.6824,1.6746,1.6697,1.6697,1.6697,1.6746,1.6824,1.6824,1.707,1.75,1.7126,1.7126,1.75,1.7038,1.6872,1.6941,1.6863,1.71,1.75,1.75,1.7695,1.8008,1.8008,1.8008,1.8008,1.8008,1.8008,1.8008,1.8008,1.8008,1.8008,1.8008,1.8008,1.8008,1.8008,1.8008,1.8008,1.8008,1.8008,1.8008,1.8008,1.8008,1.8008,1.8008,1.8008,1.8008,1.8008,1.8008,1.8008,1.8008,1.8008,1.8008,1.8008,1.8008,1.8008,1.8008,1.8008,1.8008,1.8008,1.8008,1.8008,1.8008,1.8008,1.8008,1.8008,1.8008,1.8008,1.8008,1.8008,1.8008,1.8008,1.8008,1.7885,1.7688,1.7328,1.6954,1.6607,1.6207,1.5975,1.5885,1.5827,1.5827,1.5856,1.598,1.6056,0.5151,0.516,0.5257,0.5098,0.0,0.0,0.0,0.0,0.0,0.0,0.0,0.0,0.0,0.0,0.0,0.0,0.0,0.0,0.0,0.0,0.0,0.0,0.0,0.0,0.0,0.0,1.5573,1.5732,1.5927,1.6044,1.6044,1.6044,1.6172,1.6387,1.6396,1.6611,1.7051,1.6804,1.6814,1.7051,1.6611,1.6514,1.6697,1.6494,1.6641,1.707,1.7285,1.7383,1.736,1.7607,1.7695,1.7715,1.793,1.8008,1.7988,1.7773,1.7695,1.7666,1.7418,1.751,1.7695,1.7695,1.7842,1.7969,1.7764,1.7695,1.7695,1.7695,1.7852,1.8008,1.8008,1.8008,1.8008,1.8008,1.8008,1.8008,1.8008,1.8008,1.8008,1.8008,1.8008,1.8008,1.8008,1.8008,1.8008,1.8008,1.8008,1.8008,1.8008,1.8008,1.8008,1.8008,1.8008,1.8008,1.8008,1.8008,1.792,1.7705,1.7752,1.7655,1.7308,1.7028,1.6779,1.6462,1.6257,1.6144,1.6144,1.6144,1.6087,1.599,1.6056,1.6142,0.0,0.0,0.0,0.0,0.0,0.5423,0.0,0.0,0.0,0.6969,0.0,0.0,0.0,0.0,0.0,0.0,0.0,0.0,0.0,0.0,0.0,0.0,0.0,0.0,0.0,0.0,1.4639,1.4893,1.5068,1.5206,1.54,1.541,1.5566,1.5958,1.5968,1.6152,1.657,1.6492,1.6492,1.657,1.6152,1.6133,1.6434,1.6103,1.6182,1.6621,1.6982,1.6982,1.6726,1.7109,1.7256,1.7295,1.7627,1.7812,1.7842,1.7412,1.7256,1.7207,1.6824,1.6963,1.7256,1.7256,1.749,1.7715,1.7461,1.7383,1.7383,1.7383,1.7686,1.7988,1.791,1.7949,1.7988,1.791,1.7949,1.8008,1.8008,1.8008,1.8008,1.8008,1.8008,1.8008,1.8008,1.8008,1.8008,1.8008,1.8008,1.8008,1.8008,1.8008,1.8008,1.8008,1.8008,1.8008,1.8008,1.7939,1.7778,1.7468,1.7481,1.733,1.6986,1.6819,1.6619,1.6413,1.6413,1.6413,1.6413,1.6413,1.6316,1.6153,1.6153,1.6239,0.0,0.0,0.0,0.0,0.5837,0.0,0.0,0.0,0.6091,0.6438,0.0,0.0,0.0,0.0,0.0,0.0,0.0,0.0,0.0,0.0,0.0,0.0,0.0,0.0,0.0,0.0,0.0,1.5254,1.465,1.4582,1.5371,1.541,1.543,1.5488,1.5488,1.5693,1.6163,1.5762,1.5762,1.6163,1.5693,1.5508,1.5566,1.5508,1.5723,1.6173,1.6222,1.6416,1.6707,1.6755,1.6775,1.6775,1.6824,1.7109,1.7402,1.6941,1.6775,1.6765,1.6716,1.6726,1.6775,1.6775,1.6804,1.6911,1.7285,1.7383,1.7383,1.7383,1.7686,1.793,1.7549,1.7734,1.792,1.7539,1.7734,1.8008,1.8008,1.8008,1.8008,1.8008,1.8008,1.8008,1.8008,1.8008,1.8008,1.8008,1.8008,1.8008,1.8008,1.8008,1.8008,1.8008,1.8008,1.8008,1.8008,1.7666,1.7488,1.755,1.7258,1.6998,1.6829,1.6567,1.6425,1.6413,1.6413,1.6413,1.6413,1.6413,1.6374,1.6374,1.6374,1.6374,0.0,0.0,0.0,0.0,0.0,0.0,0.0,0.0,0.6325,0.0,0.0,0.0,0.0,0.0,0.0,0.0,0.0,0.0,0.0,0.0,0.0,0.0,0.0,0.0,0.0,0.0,0.0,0.0,0.0,1.426,1.4621,1.5137,1.541,1.541,1.541,1.5498,1.5684,1.5498,1.5508,1.5684,1.5498,1.541,1.541,1.541,1.5508,1.5703,1.5977,1.6025,1.5956,1.624,1.6338,1.6318,1.6064,1.6396,1.6953,1.6504,1.6338,1.6309,1.6055,1.6133,1.6426,1.6943,1.6758,1.6475,1.72,1.7207,1.7061,1.7314,1.751,1.7607,1.7432,1.7324,1.7194,1.7019,1.7334,1.7646,1.7646,1.7842,1.8008,1.8008,1.8008,1.8008,1.8008,1.8008,1.8008,1.8008,1.811,1.8168,1.8168,1.8245,1.8279,1.8279,1.8279,1.8214,1.7966,1.7777,1.7481,1.6985,1.6658,1.6485,1.6576,1.6448,1.6413,1.6413,1.6413,1.6413,1.6413,1.6413,1.6413,1.6413,1.6413,1.6413,0.7339,0.0,0.0,0.0,0.0,0.0,0.0,0.0,0.0,0.0,0.0,0.0,0.0,0.0,0.0,0.0,0.0,0.0,0.0,0.0,0.0,0.0,0.0,0.0,0.0,0.0,0.0,0.0,0.0,0.0,1.4085,1.4699,1.5137,1.5371,1.541,1.541,1.541,1.541,1.541,1.541,1.541,1.541,1.541,1.541,1.541,1.543,1.5752,1.5703,1.5439,1.5782,1.5919,1.588,1.5537,1.5801,1.6297,1.6036,1.5919,1.587,1.5527,1.5615,1.6036,1.6809,1.6535,1.6085,1.6934,1.6894,1.6641,1.708,1.7207,1.7178,1.7051,1.6875,1.6697,1.6697,1.7093,1.7501,1.7629,1.7894,1.8144,1.8144,1.8144,1.8144,1.8144,1.811,1.8076,1.8076,1.8245,1.8337,1.8337,1.8448,1.8516,1.8516,1.8405,1.8214,1.7936,1.7642,1.7201,1.6427,1.6279,1.6249,1.6374,1.6413,1.6413,1.6413,1.6413,1.6413,1.6413,1.6413,1.6413,1.6413,1.6413,1.6413,0.0,0.0,0.0,0.7857,0.0,0.0,0.0,0.0,0.7856,0.0,0.0,0.0,0.0,0.0,0.8826,0.8712,0.0,0.0,0.0,0.0,0.0,0.0,0.0,0.0,0.0,0.0,0.0,0.0,0.0,0.0,1.4016,1.4133,1.4523,1.5381,1.541,1.541,1.541,1.541,1.541,1.541,1.541,1.541,1.541,1.541,1.541,1.541,1.543,1.542,1.541,1.543,1.543,1.543,1.542,1.543,1.5449,1.5439,1.543,1.543,1.542,1.542,1.5508,1.5987,1.5831,1.5596,1.6453,1.6436,1.6212,1.6599,1.6726,1.6619,1.6251,1.6416,1.6697,1.6697,1.7179,1.7724,1.816,1.8371,1.8482,1.8482,1.8482,1.8482,1.8482,1.8371,1.8303,1.8303,1.8414,1.8482,1.8482,1.8516,1.8516,1.8516,1.8144,1.7916,1.7906,1.707,1.6437,1.6136,1.6288,1.6374,1.6413,1.6413,1.6413,1.6413,1.6413,1.6413,1.6413,1.6413,1.6413,1.6413,1.6413,1.6413,0.0,0.0,0.9939,0.8688,0.0,0.0,0.0,0.0,0.0,0.0,0.0,0.0,0.0,0.0,0.9082,0.9029,0.8648,0.0,0.0,0.0,0.0,0.0,0.0,0.0,0.0,0.0,0.0,0.0,0.0,0.0,0.0,1.4102,1.4824,1.5391,1.541,1.541,1.541,1.541,1.541,1.541,1.541,1.541,1.541,1.541,1.541,1.541,1.541,1.541,1.541,1.541,1.541,1.541,1.541,1.541,1.541,1.541,1.541,1.541,1.541,1.541,1.5488,1.5948,1.5762,1.5635,1.6807,1.6855,1.665,1.7373,1.7135,1.6668,1.6543,1.6468,1.6453,1.6453,1.7143,1.7841,1.7991,1.8261,1.8516,1.8516,1.8516,1.8516,1.8516,1.8583,1.8573,1.8448,1.8573,1.8717,1.8717,1.8543,1.8537,1.8877,1.8219,1.7779,1.7779,1.6949,1.6395,1.6288,1.6374,1.6413,1.6413,1.6413,1.6563,1.6916,1.6916,1.7123,1.754,1.754,1.754,1.754,1.754,1.7307,1.0236,1.0674,0.0,0.0,0.9558,0.0,0.0,0.0,0.0,0.0,0.0,0.0,0.0,0.0,0.0,0.9214,0.8745,0.0,0.0,0.0,0.0,0.0,0.0,0.0,0.0,0.0,1.1474,1.1375,0.0,0.0,0.0,0.0,1.46,1.5176,1.5332,1.541,1.541,1.541,1.541,1.541,1.541,1.541,1.541,1.541,1.541,1.541,1.541,1.541,1.541,1.541,1.541,1.541,1.541,1.5449,1.5507,1.5439,1.541,1.541,1.541,1.541,1.5459,1.5732,1.5644,1.5596,1.6643,1.6611,1.6414,1.7282,1.6902,1.6299,1.6486,1.6433,1.6356,1.6576,1.7311,1.8046,1.8198,1.8471,1.8707,1.8707,1.8707,1.8707,1.8707,1.8808,1.8841,1.865,1.8774,1.8908,1.8908,1.875,1.8766,1.9077,1.8268,1.7575,1.7244,1.6715,1.6413,1.6413,1.6413,1.6488,1.6694,1.6684,1.6955,1.7506,1.7506,1.7699,1.8093,1.8093,1.8093,1.8093,1.8093,1.8011]}]]